[[{"header":{"parameterUnit":"m.s-1","parameterCategory":1,"la1":31.0,"la2":29.5877,"lo1":-88.7671,"lo2":-86.6584,"dy":0.0162,"dx":0.0185,"nx":115,"ny":88,"refTime":"2024-05-04T18:00:00:Z","depth":0,"parameterNumber":2,"parameterNumberName":"U-component_of_WINDS"},"data":[0.0,0.0,0.0,0.0,0.0,0.0,0.0,0.0,0.0,0.0,0.0,0.0,0.0,0.0,0.0,0.0,0.0,0.0,0.0,0.0,0.0,0.0,0.0,0.0,0.0,0.0,0.0,0.0,0.0,0.0,0.0,0.0,0.0,0.0,0.0,0.0,0.0,0.0,0.0,0.0,0.0,0.0,0.0,0.0,0.0,0.0,0.0,0.0,0.0,0.0,0.0,0.0,0.0,0.0,0.0,0.0,0.0,0.0,0.0,0.0,0.0,0.0,0.0,0.0,0.0,0.0,0.0,0.0,0.0,0.0,0.0,0.0,0.0,0.0,0.0,0.0,0.0,0.0,0.0,0.0,0.0,0.0,0.0,0.0,0.0,0.0,0.0,0.0,0.0,0.0,0.0,0.0,0.0,0.0,0.0,0.0,0.0,0.0,0.0,0.0,0.0,0.0,0.0,0.0,0.0,0.0,0.0,0.0,0.0,0.0,0.0,0.0,0.0,0.0,0.0,0.0,0.0,0.0,0.0,0.0,0.0,0.0,0.0,0.0,0.0,0.0,0.0,0.0,0.0,0.0,0.0,0.0,0.0,0.0,0.0,0.0,0.0,0.0,0.0,0.0,0.0,0.0,0.0,0.0,0.0,0.0,0.0,0.0,0.0,0.0,0.0,0.0,0.0,0.0,0.0,0.0,0.0,0.0,0.0,0.0,0.0,0.0,0.0,0.0,0.0,0.0,0.0,0.0,0.0,0.0,0.0,0.0,0.0,0.0,0.0,0.0,0.0,0.0,0.0,0.0,0.0,0.0,0.0,0.0,0.0,0.0,0.0,0.0,0.0,0.0,0.0,0.0,0.0,0.0,0.0,0.0,0.0,0.0,0.0,0.0,0.0,0.0,0.0,0.0,0.0,0.0,0.0,0.0,0.0,0.0,0.0,0.0,0.0,0.0,0.0,0.0,0.0,0.0,0.0,0.0,0.0,0.0,0.0,0.0,0.0,0.0,0.0,0.0,0.0,0.0,0.0,0.0,0.0,0.0,0.0,0.0,0.0,0.0,0.0,0.0,0.0,0.0,0.0,0.0,0.0,0.0,0.0,0.0,0.0,0.0,0.0,0.0,0.0,0.0,0.0,0.0,0.0,0.0,0.0,0.0,0.0,0.0,0.0,0.0,0.0,0.0,0.0,0.0,0.0,0.0,0.0,0.0,0.0,0.0,0.0,0.0,0.0,0.0,0.0,0.0,0.0,0.0,0.0,0.0,0.0,0.0,0.0,0.0,0.0,0.0,0.0,0.0,0.0,0.0,0.0,0.0,0.0,0.0,0.0,0.0,0.0,0.0,0.0,0.0,0.0,0.0,0.0,0.0,0.0,0.0,0.0,0.0,0.0,0.0,0.0,0.0,0.0,0.0,0.0,0.0,0.0,0.0,0.0,0.0,0.0,0.0,0.0,0.0,0.0,0.0,0.0,0.0,0.0,0.0,0.0,0.0,0.0,0.0,0.0,0.0,0.0,0.0,0.0,0.0,0.0,0.0,0.0,0.0,0.0,0.0,0.0,0.0,0.0,0.0,0.0,0.0,0.0,0.0,0.0,0.0,0.0,0.0,0.0,0.0,0.0,0.0,0.0,0.0,0.0,0.0,0.0,0.0,0.0,0.0,0.0,0.0,0.0,0.0,0.0,0.0,0.0,0.0,0.0,0.0,0.0,0.0,0.0,0.0,0.0,0.0,0.0,0.0,0.0,0.0,0.0,0.0,0.0,0.0,0.0,0.0,0.0,0.0,0.0,0.0,0.0,0.0,0.0,0.0,0.0,0.0,0.0,0.0,0.0,0.0,0.0,0.0,0.0,0.0,0.0,0.0,0.0,0.0,0.0,0.0,0.0,0.0,0.0,0.0,0.0,0.0,0.0,0.0,0.0,0.0,0.0,0.0,0.0,0.0,0.0,0.0,0.0,0.0,0.0,0.0,0.0,0.0,0.0,0.0,0.0,0.0,0.0,0.0,0.0,0.0,0.0,0.0,0.0,0.0,0.0,0.0,0.0,0.0,0.0,0.0,0.0,0.0,0.0,0.0,0.0,0.0,0.0,0.0,0.0,0.0,0.0,0.0,0.0,0.0,0.0,0.0,0.0,0.0,0.0,0.0,0.0,0.0,0.0,0.0,0.0,0.0,0.0,0.0,0.0,0.0,0.0,0.0,0.0,0.0,0.0,0.0,0.0,0.0,0.0,0.0,0.0,0.0,0.0,0.0,0.0,0.0,0.0,0.0,0.0,0.0,0.0,0.0,0.0,0.0,0.0,0.0,0.0,0.0,0.0,0.0,0.0,0.0,0.0,0.0,0.0,0.0,0.0,0.0,0.0,0.0,0.0,0.0,0.0,0.0,0.0,0.0,0.0,0.0,0.0,0.0,0.0,0.0,0.0,0.0,0.0,0.0,0.0,0.0,0.0,0.0,0.0,0.0,0.0,0.0,0.0,0.0,0.0,0.0,0.0,0.0,0.0,0.0,0.0,0.0,0.0,0.0,0.0,0.0,0.0,0.0,0.0,0.0,0.0,0.0,0.0,0.0,0.0,0.0,0.0,0.0,0.0,0.0,0.0,0.0,0.0,0.0,0.0,0.0,0.0,0.0,0.0,0.0,0.0,0.0,0.0,0.0,0.0,0.0,0.0,0.0,0.0,0.0,0.0,0.0,0.0,0.0,0.0,0.0,0.0,0.0,0.0,0.0,0.0,0.0,0.0,0.0,0.0,0.0,0.0,0.0,0.0,0.0,0.0,0.0,0.0,0.0,0.0,0.0,0.0,0.0,0.0,0.0,0.0,0.0,0.0,0.0,0.0,0.0,0.0,0.0,0.0,0.0,0.0,0.0,0.0,0.0,0.0,0.0,0.0,0.0,0.0,0.0,0.0,0.0,0.0,0.0,0.0,0.0,0.0,0.0,0.0,0.0,0.0,0.0,0.0,0.0,0.0,0.0,0.0,0.0,0.0,0.0,0.0,0.0,0.0,0.0,0.0,0.0,0.0,0.0,0.0,0.0,0.0,0.0,0.0,0.0,0.0,0.0,0.0,0.0,0.0,0.0,0.0,0.0,0.0,0.0,0.0,0.0,0.0,0.0,0.0,0.0,0.0,0.0,0.0,0.0,0.0,0.0,0.0,0.0,0.0,0.0,0.0,0.0,0.0,0.0,0.0,0.0,0.0,0.0,0.0,0.0,0.0,0.0,0.0,0.0,0.0,0.0,0.0,0.0,0.0,0.0,0.0,0.0,0.0,0.0,0.0,0.0,0.0,0.0,0.0,0.0,0.0,0.0,0.0,0.0,0.0,0.0,0.0,0.0,0.0,0.0,0.0,0.0,0.0,0.0,0.0,0.0,0.0,0.0,0.0,0.0,0.0,0.0,0.0,0.0,0.0,0.0,0.0,0.0,0.0,0.0,0.0,0.0,0.0,0.0,0.0,0.0,0.0,0.0,0.0,0.0,0.0,0.0,0.0,0.0,0.0,0.0,0.0,0.0,0.0,0.0,0.0,0.0,0.0,0.0,0.0,0.0,0.0,0.0,0.0,0.0,0.0,0.0,0.0,0.0,0.0,0.0,0.0,0.0,0.0,0.0,0.0,0.0,0.0,0.0,0.0,0.0,0.0,0.0,0.0,0.0,0.0,0.0,0.0,0.0,0.0,0.0,0.0,0.0,0.0,0.0,0.0,0.0,0.0,0.0,0.0,0.0,0.0,0.0,0.0,0.0,0.0,0.0,0.0,0.0,0.0,0.0,0.0,0.0,0.0,0.0,0.0,0.0,0.0,0.0,0.0,0.0,0.0,0.0,0.0,0.0,0.0,0.0,0.0,0.0,0.0,0.0,0.0,0.0,0.0,0.0,0.0,0.0,0.0,0.0,0.0,0.0,0.0,0.0,0.0,0.0,0.0,0.0,0.0,0.0,0.0,0.0,0.0,0.0,0.0,0.0,0.0,0.0,0.0,0.0,0.0,0.0,0.0,0.0,0.0,0.0,0.0,0.0,0.0,0.0,0.0,0.0,0.0,0.0,0.0,0.0,0.0,0.0,0.0,0.0,0.0,0.0,0.0,0.0,0.0,0.0,0.0,0.0,0.0,0.0,0.0,0.0,0.0,0.0,0.0,0.0,0.0,0.0,0.0,0.0,0.0,0.0,0.0,0.0,0.0,0.0,0.0,0.0,0.0,0.0,0.0,0.0,0.0,0.0,0.0,0.0,0.0,0.0,0.0,0.0,0.0,0.0,0.0,0.0,0.0,0.0,-2.0037,0.0,0.0,0.0,0.0,0.0,0.0,0.0,0.0,0.0,0.0,0.0,0.0,0.0,0.0,0.0,0.0,0.0,0.0,0.0,0.0,0.0,0.0,0.0,0.0,0.0,0.0,0.0,0.0,0.0,0.0,0.0,0.0,0.0,0.0,0.0,0.0,0.0,0.0,0.0,0.0,0.0,0.0,0.0,0.0,0.0,0.0,0.0,0.0,0.0,0.0,0.0,0.0,0.0,0.0,0.0,0.0,0.0,0.0,0.0,0.0,0.0,0.0,0.0,0.0,0.0,0.0,0.0,0.0,0.0,0.0,0.0,0.0,0.0,0.0,0.0,0.0,0.0,0.0,0.0,0.0,0.0,0.0,0.0,0.0,0.0,0.0,0.0,0.0,0.0,0.0,0.0,0.0,0.0,0.0,0.0,0.0,0.0,0.0,0.0,0.0,0.0,0.0,0.0,0.0,0.0,0.0,0.0,0.0,0.0,0.0,-2.3327,-2.2952,-2.2546,-2.1761,-2.0626,0.0,0.0,0.0,0.0,0.0,0.0,0.0,0.0,0.0,0.0,0.0,0.0,0.0,0.0,0.0,0.0,0.0,0.0,0.0,0.0,0.0,0.0,0.0,0.0,0.0,0.0,0.0,0.0,0.0,0.0,0.0,0.0,0.0,0.0,0.0,0.0,0.0,0.0,0.0,0.0,0.0,0.0,0.0,0.0,0.0,0.0,0.0,0.0,0.0,0.0,0.0,0.0,0.0,0.0,0.0,0.0,0.0,0.0,0.0,0.0,0.0,0.0,0.0,0.0,0.0,0.0,0.0,0.0,0.0,0.0,0.0,0.0,0.0,0.0,0.0,0.0,0.0,0.0,0.0,0.0,0.0,0.0,0.0,0.0,0.0,0.0,0.0,0.0,0.0,0.0,0.0,0.0,0.0,0.0,0.0,0.0,0.0,0.0,0.0,0.0,0.0,0.0,0.0,0.0,0.0,0.0,0.0,0.0,0.0,0.0,0.0,0.0,-2.341,-2.2714,-2.1911,0.0,0.0,0.0,0.0,0.0,0.0,0.0,0.0,0.0,0.0,0.0,0.0,0.0,0.0,0.0,0.0,0.0,0.0,0.0,0.0,0.0,0.0,0.0,0.0,0.0,0.0,0.0,0.0,0.0,0.0,0.0,0.0,0.0,0.0,0.0,0.0,0.0,0.0,0.0,0.0,0.0,0.0,0.0,0.0,0.0,0.0,0.0,0.0,0.0,0.0,0.0,0.0,0.0,0.0,0.0,0.0,0.0,0.0,0.0,0.0,0.0,0.0,0.0,0.0,0.0,0.0,0.0,0.0,0.0,0.0,0.0,0.0,0.0,0.0,0.0,0.0,0.0,0.0,0.0,0.0,0.0,0.0,0.0,0.0,0.0,0.0,0.0,0.0,0.0,0.0,0.0,0.0,0.0,0.0,0.0,0.0,0.0,0.0,0.0,0.0,0.0,0.0,0.0,0.0,0.0,0.0,0.0,0.0,0.0,0.0,-2.4165,-2.5533,-2.5497,0.0,-2.429,0.0,0.0,0.0,0.0,0.0,0.0,0.0,0.0,0.0,0.0,0.0,0.0,0.0,0.0,0.0,0.0,0.0,0.0,0.0,0.0,0.0,0.0,0.0,0.0,0.0,0.0,0.0,0.0,0.0,0.0,0.0,0.0,0.0,0.0,0.0,0.0,0.0,0.0,0.0,0.0,0.0,0.0,0.0,0.0,0.0,0.0,0.0,0.0,0.0,0.0,0.0,0.0,0.0,0.0,0.0,0.0,0.0,0.0,0.0,0.0,0.0,0.0,0.0,0.0,0.0,0.0,0.0,0.0,0.0,0.0,0.0,0.0,0.0,0.0,0.0,0.0,0.0,0.0,0.0,0.0,0.0,0.0,0.0,0.0,0.0,0.0,0.0,0.0,0.0,0.0,0.0,0.0,0.0,0.0,0.0,0.0,0.0,0.0,0.0,0.0,0.0,0.0,0.0,0.0,0.0,0.0,0.0,0.0,0.0,0.0,-2.4236,-2.5752,-2.5372,-2.4569,0.0,0.0,0.0,0.0,0.0,0.0,0.0,0.0,0.0,0.0,0.0,0.0,0.0,0.0,0.0,0.0,0.0,0.0,0.0,0.0,0.0,0.0,0.0,0.0,0.0,0.0,0.0,0.0,0.0,0.0,0.0,0.0,0.0,0.0,0.0,0.0,0.0,0.0,0.0,0.0,0.0,0.0,0.0,0.0,0.0,0.0,0.0,0.0,0.0,0.0,0.0,0.0,0.0,0.0,0.0,0.0,0.0,0.0,0.0,0.0,0.0,0.0,0.0,0.0,0.0,0.0,0.0,0.0,0.0,0.0,0.0,0.0,0.0,0.0,0.0,0.0,0.0,0.0,0.0,0.0,0.0,0.0,0.0,0.0,0.0,0.0,0.0,0.0,0.0,0.0,0.0,0.0,0.0,0.0,0.0,0.0,0.0,0.0,0.0,0.0,0.0,0.0,0.0,0.0,0.0,0.0,0.0,0.0,0.0,0.0,-2.3933,-2.445,-2.5663,-2.4861,-2.3713,-2.2332,0.0,0.0,0.0,0.0,0.0,0.0,0.0,0.0,0.0,0.0,0.0,0.0,0.0,0.0,0.0,0.0,0.0,0.0,0.0,0.0,0.0,0.0,0.0,0.0,0.0,0.0,0.0,0.0,0.0,0.0,0.0,0.0,0.0,0.0,0.0,0.0,0.0,0.0,0.0,0.0,0.0,0.0,0.0,0.0,0.0,0.0,0.0,0.0,0.0,0.0,0.0,0.0,0.0,0.0,0.0,0.0,0.0,0.0,0.0,0.0,0.0,0.0,0.0,0.0,0.0,0.0,0.0,0.0,0.0,0.0,0.0,0.0,0.0,0.0,0.0,0.0,0.0,0.0,0.0,0.0,0.0,0.0,0.0,0.0,0.0,0.0,0.0,0.0,0.0,0.0,0.0,0.0,0.0,0.0,0.0,0.0,0.0,0.0,0.0,0.0,0.0,0.0,0.0,0.0,0.0,0.0,0.0,0.0,-2.561,-2.4998,-2.5003,-2.5681,-2.4343,-2.316,0.0,0.0,0.0,0.0,0.0,0.0,0.0,0.0,0.0,0.0,0.0,0.0,0.0,0.0,0.0,0.0,0.0,0.0,0.0,0.0,0.0,0.0,0.0,0.0,0.0,0.0,0.0,0.0,0.0,0.0,0.0,0.0,0.0,0.0,0.0,0.0,0.0,0.0,0.0,0.0,0.0,0.0,0.0,0.0,0.0,0.0,0.0,0.0,0.0,0.0,0.0,0.0,0.0,0.0,0.0,0.0,0.0,0.0,0.0,0.0,0.0,0.0,0.0,0.0,0.0,0.0,0.0,0.0,0.0,0.0,0.0,0.0,0.0,0.0,0.0,0.0,0.0,0.0,0.0,0.0,0.0,0.0,0.0,0.0,0.0,0.0,0.0,0.0,0.0,0.0,0.0,0.0,0.0,0.0,0.0,0.0,0.0,0.0,0.0,0.0,0.0,0.0,0.0,0.0,0.0,0.0,0.0,0.0,0.0,-2.4397,-2.5033,-2.4935,-2.407,-2.4159,-2.3798,0.0,0.0,0.0,0.0,0.0,0.0,0.0,0.0,0.0,0.0,0.0,0.0,0.0,0.0,0.0,0.0,0.0,0.0,0.0,0.0,0.0,0.0,0.0,0.0,0.0,0.0,0.0,0.0,0.0,0.0,0.0,0.0,0.0,0.0,0.0,0.0,0.0,0.0,0.0,0.0,0.0,0.0,0.0,0.0,0.0,0.0,0.0,0.0,0.0,0.0,0.0,0.0,0.0,0.0,0.0,0.0,0.0,0.0,0.0,0.0,0.0,0.0,0.0,0.0,0.0,0.0,0.0,0.0,0.0,0.0,0.0,0.0,0.0,0.0,0.0,0.0,0.0,0.0,0.0,0.0,0.0,0.0,0.0,0.0,0.0,0.0,0.0,0.0,0.0,0.0,0.0,0.0,0.0,0.0,0.0,0.0,0.0,0.0,0.0,0.0,0.0,0.0,0.0,0.0,0.0,0.0,0.0,0.0,0.0,-2.4206,0.0,-2.4941,-2.314,-2.3747,-2.3354,0.0,0.0,0.0,0.0,0.0,0.0,0.0,0.0,0.0,0.0,0.0,0.0,0.0,0.0,0.0,0.0,0.0,0.0,0.0,0.0,0.0,0.0,0.0,0.0,0.0,0.0,0.0,0.0,0.0,0.0,0.0,0.0,0.0,0.0,0.0,0.0,0.0,0.0,0.0,0.0,0.0,0.0,0.0,0.0,0.0,0.0,0.0,0.0,0.0,0.0,0.0,0.0,0.0,0.0,0.0,0.0,0.0,0.0,0.0,0.0,0.0,0.0,0.0,0.0,0.0,0.0,0.0,0.0,0.0,0.0,0.0,0.0,0.0,0.0,0.0,0.0,0.0,0.0,0.0,0.0,0.0,0.0,0.0,0.0,0.0,0.0,0.0,0.0,0.0,0.0,0.0,0.0,0.0,0.0,0.0,0.0,0.0,0.0,0.0,0.0,0.0,0.0,0.0,0.0,0.0,0.0,0.0,0.0,-2.5689,-2.5354,-2.5715,-2.5013,-2.3107,-2.3005,-2.1737,0.0,0.0,0.0,0.0,0.0,0.0,0.0,0.0,0.0,0.0,0.0,0.0,0.0,0.0,0.0,0.0,0.0,0.0,0.0,0.0,0.0,0.0,0.0,0.0,0.0,0.0,0.0,0.0,0.0,0.0,0.0,0.0,0.0,0.0,0.0,0.0,0.0,0.0,0.0,0.0,0.0,0.0,0.0,0.0,0.0,0.0,0.0,0.0,0.0,0.0,0.0,0.0,0.0,0.0,0.0,0.0,0.0,0.0,0.0,0.0,0.0,0.0,0.0,0.0,0.0,0.0,0.0,0.0,0.0,0.0,0.0,0.0,0.0,0.0,0.0,0.0,0.0,0.0,0.0,0.0,0.0,0.0,0.0,0.0,0.0,0.0,0.0,0.0,0.0,0.0,0.0,0.0,0.0,0.0,0.0,0.0,0.0,0.0,0.0,0.0,0.0,0.0,0.0,0.0,0.0,0.0,0.0,0.0,0.0,-2.3122,-2.4209,-2.4642,-2.4209,-2.2593,-2.2078,0.0,0.0,0.0,0.0,0.0,0.0,0.0,0.0,0.0,0.0,0.0,0.0,0.0,0.0,0.0,0.0,0.0,0.0,0.0,0.0,0.0,0.0,0.0,0.0,0.0,0.0,0.0,0.0,0.0,0.0,0.0,0.0,0.0,0.0,0.0,0.0,0.0,0.0,0.0,0.0,0.0,0.0,0.0,0.0,0.0,0.0,0.0,0.0,0.0,0.0,0.0,0.0,0.0,0.0,0.0,0.0,0.0,0.0,0.0,0.0,0.0,0.0,0.0,0.0,0.0,0.0,0.0,0.0,0.0,0.0,0.0,0.0,0.0,0.0,0.0,0.0,0.0,0.0,0.0,0.0,0.0,0.0,0.0,0.0,0.0,0.0,0.0,0.0,0.0,0.0,0.0,0.0,0.0,0.0,0.0,0.0,0.0,0.0,0.0,0.0,0.0,0.0,0.0,0.0,0.0,0.0,0.0,0.0,0.0,-2.5151,-2.6093,-2.6394,-2.5853,-2.442,-2.3682,-2.3659,0.0,0.0,0.0,0.0,0.0,0.0,0.0,0.0,0.0,0.0,0.0,0.0,0.0,0.0,0.0,0.0,0.0,0.0,0.0,0.0,0.0,0.0,0.0,0.0,0.0,0.0,0.0,0.0,0.0,0.0,0.0,0.0,0.0,0.0,0.0,0.0,0.0,0.0,0.0,0.0,0.0,0.0,0.0,0.0,0.0,0.0,0.0,0.0,0.0,0.0,0.0,0.0,0.0,0.0,0.0,0.0,0.0,0.0,0.0,0.0,0.0,0.0,0.0,0.0,0.0,0.0,0.0,0.0,0.0,0.0,0.0,0.0,0.0,0.0,0.0,0.0,0.0,0.0,0.0,0.0,0.0,0.0,0.0,0.0,0.0,0.0,0.0,0.0,0.0,0.0,0.0,0.0,0.0,0.0,0.0,0.0,0.0,0.0,0.0,0.0,0.0,0.0,0.0,0.0,0.0,0.0,0.0,0.0,-3.0488,-3.0905,-3.0124,-2.8022,-2.7908,-2.6167,0.0,0.0,0.0,0.0,0.0,0.0,0.0,0.0,0.0,0.0,0.0,0.0,0.0,0.0,0.0,0.0,0.0,0.0,0.0,0.0,0.0,0.0,0.0,0.0,0.0,0.0,0.0,0.0,0.0,0.0,0.0,0.0,0.0,0.0,0.0,0.0,0.0,0.0,0.0,0.0,0.0,0.0,0.0,0.0,0.0,0.0,0.0,0.0,0.0,0.0,0.0,0.0,0.0,0.0,0.0,0.0,0.0,0.0,0.0,0.0,0.0,0.0,0.0,0.0,0.0,0.0,0.0,0.0,0.0,0.0,0.0,0.0,0.0,0.0,0.0,0.0,0.0,0.0,0.0,0.0,0.0,0.0,0.0,0.0,0.0,0.0,0.0,0.0,0.0,0.0,0.0,0.0,0.0,0.0,0.0,0.0,0.0,0.0,0.0,0.0,0.0,0.0,0.0,0.0,0.0,0.0,0.0,0.0,0.0,-3.4106,-3.6516,-3.5906,-3.1985,-2.9268,-2.711,0.0,0.0,0.0,0.0,0.0,0.0,0.0,0.0,0.0,0.0,0.0,0.0,0.0,0.0,0.0,0.0,0.0,0.0,0.0,0.0,0.0,0.0,0.0,0.0,0.0,0.0,0.0,0.0,0.0,0.0,0.0,0.0,0.0,0.0,0.0,0.0,0.0,0.0,0.0,0.0,0.0,0.0,0.0,0.0,0.0,0.0,0.0,0.0,0.0,0.0,0.0,0.0,0.0,0.0,0.0,0.0,0.0,0.0,0.0,0.0,0.0,0.0,0.0,0.0,0.0,0.0,0.0,0.0,0.0,0.0,0.0,0.0,0.0,0.0,0.0,0.0,0.0,0.0,0.0,0.0,0.0,0.0,0.0,0.0,0.0,0.0,0.0,0.0,0.0,0.0,0.0,0.0,0.0,0.0,0.0,0.0,0.0,0.0,0.0,0.0,0.0,0.0,0.0,0.0,0.0,0.0,0.0,0.0,-3.3329,-3.6534,-4.0418,-4.0906,-3.7723,-3.3721,-3.0104,0.0,0.0,0.0,0.0,0.0,0.0,0.0,0.0,0.0,0.0,0.0,0.0,0.0,0.0,0.0,0.0,0.0,0.0,0.0,0.0,0.0,0.0,0.0,0.0,0.0,0.0,0.0,0.0,0.0,0.0,0.0,0.0,0.0,0.0,0.0,0.0,0.0,0.0,0.0,0.0,0.0,0.0,0.0,0.0,0.0,0.0,0.0,0.0,0.0,0.0,0.0,0.0,0.0,0.0,0.0,0.0,0.0,0.0,0.0,0.0,0.0,0.0,0.0,0.0,0.0,0.0,0.0,0.0,0.0,0.0,0.0,0.0,0.0,0.0,0.0,0.0,0.0,0.0,0.0,0.0,0.0,0.0,0.0,0.0,0.0,0.0,0.0,0.0,0.0,0.0,0.0,0.0,0.0,0.0,0.0,0.0,0.0,0.0,0.0,0.0,0.0,0.0,0.0,0.0,0.0,0.0,0.0,0.0,-3.591,-3.8182,-4.2898,-4.4837,-4.3562,-3.9111,-3.3746,0.0,0.0,0.0,0.0,0.0,0.0,0.0,0.0,0.0,0.0,0.0,0.0,0.0,0.0,0.0,0.0,0.0,0.0,0.0,0.0,0.0,0.0,0.0,0.0,0.0,0.0,0.0,0.0,0.0,0.0,0.0,0.0,0.0,0.0,0.0,0.0,0.0,0.0,0.0,0.0,0.0,0.0,0.0,0.0,0.0,0.0,0.0,0.0,0.0,0.0,0.0,0.0,0.0,0.0,0.0,0.0,0.0,0.0,0.0,0.0,0.0,0.0,0.0,0.0,0.0,0.0,0.0,0.0,0.0,0.0,0.0,0.0,0.0,0.0,0.0,0.0,0.0,0.0,0.0,0.0,0.0,0.0,0.0,0.0,0.0,0.0,0.0,0.0,0.0,0.0,0.0,0.0,0.0,0.0,0.0,0.0,0.0,0.0,0.0,0.0,0.0,0.0,0.0,0.0,0.0,0.0,0.0,0.0,-3.6633,-4.006,-4.3553,-4.5172,-4.4662,-3.8693,-3.3507,0.0,0.0,0.0,0.0,0.0,0.0,0.0,0.0,0.0,0.0,0.0,0.0,0.0,0.0,0.0,0.0,0.0,0.0,0.0,0.0,0.0,0.0,0.0,0.0,0.0,0.0,0.0,0.0,0.0,0.0,0.0,0.0,0.0,0.0,0.0,0.0,0.0,0.0,0.0,0.0,0.0,0.0,0.0,0.0,0.0,0.0,0.0,0.0,-2.0832,0.0,0.0,0.0,0.0,0.0,0.0,0.0,0.0,0.0,0.0,0.0,0.0,0.0,0.0,0.0,0.0,0.0,0.0,0.0,0.0,0.0,0.0,0.0,0.0,0.0,0.0,0.0,0.0,0.0,0.0,0.0,0.0,0.0,0.0,0.0,0.0,0.0,0.0,0.0,0.0,0.0,0.0,0.0,0.0,0.0,0.0,0.0,0.0,0.0,0.0,0.0,0.0,0.0,0.0,0.0,0.0,0.0,0.0,0.0,-3.7551,-4.0676,-4.4122,-4.5851,-4.5422,-3.9733,-3.4848,0.0,0.0,0.0,0.0,0.0,0.0,0.0,0.0,0.0,0.0,0.0,0.0,0.0,0.0,0.0,0.0,0.0,0.0,0.0,0.0,0.0,0.0,0.0,0.0,0.0,0.0,0.0,0.0,0.0,0.0,0.0,0.0,0.0,0.0,0.0,0.0,0.0,0.0,0.0,0.0,0.0,0.0,0.0,0.0,0.0,0.0,0.0,0.0,0.0,0.0,0.0,0.0,0.0,0.0,0.0,0.0,0.0,0.0,0.0,0.0,0.0,0.0,0.0,0.0,0.0,0.0,0.0,0.0,0.0,0.0,0.0,0.0,0.0,0.0,0.0,0.0,0.0,0.0,0.0,0.0,0.0,0.0,0.0,0.0,0.0,0.0,0.0,0.0,0.0,0.0,0.0,0.0,0.0,0.0,0.0,0.0,0.0,0.0,0.0,0.0,0.0,0.0,0.0,0.0,0.0,0.0,0.0,-3.4506,-3.8557,-4.1381,-4.4682,-4.6325,-4.6062,-4.0859,-3.6285,-3.2593,0.0,0.0,0.0,0.0,0.0,0.0,0.0,0.0,0.0,0.0,0.0,0.0,0.0,0.0,0.0,0.0,0.0,0.0,0.0,0.0,0.0,0.0,0.0,0.0,0.0,0.0,0.0,0.0,0.0,0.0,0.0,0.0,0.0,0.0,0.0,0.0,0.0,0.0,-2.2111,-2.1497,0.0,0.0,0.0,0.0,0.0,0.0,0.0,0.0,-2.2134,0.0,0.0,0.0,0.0,0.0,0.0,0.0,0.0,0.0,0.0,0.0,0.0,0.0,0.0,0.0,0.0,0.0,0.0,0.0,0.0,0.0,0.0,0.0,0.0,0.0,0.0,0.0,0.0,0.0,0.0,0.0,0.0,0.0,0.0,0.0,0.0,0.0,0.0,0.0,0.0,0.0,0.0,0.0,0.0,0.0,0.0,0.0,0.0,0.0,0.0,0.0,0.0,0.0,0.0,0.0,0.0,-3.5548,-3.6691,-3.9615,-4.4475,-4.5259,-4.5533,-4.5238,-4.0048,-3.5669,-3.2412,0.0,0.0,0.0,0.0,0.0,0.0,0.0,0.0,0.0,0.0,0.0,0.0,0.0,0.0,0.0,0.0,0.0,0.0,0.0,0.0,0.0,0.0,0.0,0.0,0.0,0.0,0.0,0.0,0.0,0.0,0.0,0.0,0.0,0.0,0.0,0.0,0.0,0.0,0.0,-2.3007,-2.2674,0.0,0.0,0.0,0.0,0.0,0.0,0.0,0.0,-2.3724,0.0,0.0,0.0,0.0,0.0,0.0,0.0,0.0,0.0,0.0,0.0,0.0,0.0,0.0,0.0,0.0,0.0,0.0,0.0,0.0,0.0,0.0,0.0,0.0,0.0,0.0,0.0,0.0,0.0,0.0,0.0,0.0,0.0,0.0,0.0,0.0,0.0,0.0,0.0,0.0,0.0,0.0,0.0,0.0,0.0,0.0,0.0,0.0,0.0,0.0,0.0,0.0,0.0,0.0,0.0,-3.462,-3.6842,-3.9731,-4.3484,-4.4406,-4.4415,-4.3468,-3.822,-3.4048,0.0,0.0,0.0,0.0,0.0,0.0,0.0,0.0,0.0,0.0,0.0,0.0,0.0,0.0,0.0,0.0,0.0,0.0,0.0,0.0,0.0,0.0,0.0,0.0,0.0,0.0,0.0,0.0,0.0,0.0,0.0,0.0,0.0,0.0,0.0,0.0,0.0,0.0,0.0,0.0,-2.4265,-2.4166,-2.4564,0.0,0.0,0.0,0.0,0.0,0.0,-2.3863,-2.3957,0.0,0.0,0.0,0.0,0.0,0.0,0.0,0.0,0.0,0.0,0.0,0.0,0.0,0.0,0.0,0.0,0.0,0.0,0.0,0.0,0.0,0.0,0.0,0.0,0.0,0.0,0.0,0.0,0.0,0.0,0.0,0.0,0.0,0.0,0.0,0.0,0.0,0.0,0.0,0.0,0.0,0.0,0.0,0.0,0.0,0.0,0.0,0.0,0.0,0.0,0.0,0.0,0.0,0.0,0.0,-3.3342,-3.6766,-3.9864,-4.2578,-4.3603,-4.3475,-4.2157,-3.6722,-3.2704,0.0,0.0,0.0,0.0,0.0,0.0,0.0,0.0,0.0,0.0,0.0,0.0,0.0,0.0,0.0,0.0,0.0,0.0,0.0,0.0,0.0,0.0,0.0,0.0,0.0,0.0,0.0,0.0,0.0,0.0,0.0,0.0,0.0,0.0,0.0,0.0,0.0,0.0,0.0,0.0,0.0,-2.5904,-2.6352,-2.5292,0.0,0.0,0.0,0.0,-2.4407,-2.4857,0.0,0.0,0.0,0.0,0.0,0.0,0.0,0.0,0.0,0.0,0.0,0.0,0.0,0.0,0.0,0.0,0.0,0.0,0.0,0.0,0.0,0.0,0.0,0.0,0.0,0.0,0.0,0.0,0.0,0.0,0.0,0.0,0.0,0.0,0.0,0.0,0.0,0.0,0.0,0.0,0.0,0.0,0.0,0.0,0.0,0.0,0.0,0.0,0.0,0.0,0.0,0.0,0.0,0.0,0.0,0.0,-3.5514,-3.7556,-4.0603,-4.4708,-4.3931,-4.3191,-4.2824,-3.6807,-3.2768,0.0,0.0,0.0,0.0,0.0,0.0,0.0,0.0,0.0,0.0,0.0,0.0,0.0,0.0,0.0,0.0,0.0,0.0,0.0,0.0,0.0,0.0,0.0,0.0,0.0,0.0,0.0,0.0,0.0,0.0,0.0,0.0,0.0,0.0,0.0,0.0,0.0,0.0,0.0,0.0,0.0,-2.7812,-2.7249,-2.6485,-2.5474,0.0,0.0,-2.7454,-2.6646,-2.8678,0.0,0.0,0.0,0.0,0.0,0.0,0.0,0.0,0.0,0.0,0.0,0.0,0.0,0.0,0.0,0.0,0.0,0.0,0.0,0.0,0.0,0.0,0.0,0.0,0.0,0.0,0.0,0.0,0.0,0.0,0.0,0.0,0.0,0.0,0.0,0.0,0.0,0.0,0.0,0.0,0.0,0.0,0.0,0.0,0.0,0.0,0.0,0.0,0.0,0.0,0.0,0.0,0.0,0.0,0.0,-3.0408,-3.4709,-3.7274,-3.9968,-4.2681,-4.1736,-4.0913,-4.0377,-3.3847,-2.9995,0.0,0.0,0.0,0.0,0.0,0.0,0.0,0.0,0.0,0.0,0.0,0.0,0.0,0.0,0.0,0.0,0.0,0.0,0.0,0.0,0.0,0.0,0.0,0.0,0.0,0.0,0.0,0.0,0.0,0.0,0.0,0.0,0.0,0.0,0.0,0.0,0.0,0.0,0.0,0.0,0.0,0.0,-2.7561,-2.7615,0.0,0.0,0.0,-2.8404,-2.6273,0.0,0.0,0.0,0.0,0.0,0.0,0.0,0.0,0.0,0.0,0.0,0.0,0.0,0.0,0.0,0.0,0.0,0.0,0.0,0.0,0.0,0.0,0.0,0.0,0.0,0.0,0.0,0.0,0.0,0.0,0.0,0.0,0.0,0.0,0.0,0.0,0.0,0.0,0.0,0.0,0.0,0.0,0.0,0.0,0.0,0.0,0.0,0.0,0.0,0.0,0.0,0.0,0.0,0.0,0.0,0.0,0.0,-3.4038,-3.7042,-3.9422,-4.103,-4.0139,-3.9272,-3.8511,-3.2559,0.0,0.0,0.0,0.0,0.0,0.0,0.0,0.0,0.0,0.0,0.0,0.0,0.0,0.0,0.0,0.0,0.0,0.0,0.0,0.0,0.0,0.0,0.0,0.0,0.0,0.0,0.0,-1.8589,0.0,0.0,0.0,0.0,0.0,0.0,0.0,0.0,0.0,0.0,0.0,0.0,0.0,0.0,-2.9461,-2.8062,-2.8522,-2.886,0.0,0.0,-2.8726,-2.6665,-2.919,-2.943,0.0,0.0,0.0,0.0,0.0,0.0,0.0,0.0,0.0,0.0,0.0,0.0,0.0,0.0,0.0,0.0,0.0,0.0,0.0,0.0,0.0,0.0,0.0,0.0,0.0,0.0,0.0,0.0,0.0,0.0,0.0,0.0,0.0,0.0,0.0,0.0,0.0,0.0,0.0,0.0,0.0,0.0,0.0,0.0,0.0,0.0,0.0,0.0,0.0,0.0,0.0,0.0,0.0,0.0,-3.1112,-3.4757,-3.7317,-3.9617,-4.1614,-4.0343,-3.9453,-3.9105,-3.5225,-3.1999,0.0,0.0,0.0,0.0,0.0,0.0,0.0,0.0,0.0,0.0,0.0,0.0,0.0,0.0,0.0,0.0,0.0,0.0,0.0,0.0,0.0,0.0,0.0,0.0,0.0,0.0,0.0,0.0,0.0,0.0,0.0,0.0,0.0,0.0,0.0,0.0,0.0,0.0,0.0,0.0,0.0,-3.048,-2.9084,-2.9019,-2.9454,0.0,-2.9256,-2.8489,-2.9272,-3.1751,-3.1962,-2.6947,0.0,0.0,0.0,0.0,0.0,0.0,0.0,0.0,0.0,0.0,0.0,0.0,0.0,0.0,0.0,0.0,0.0,0.0,0.0,0.0,0.0,0.0,0.0,0.0,0.0,0.0,0.0,0.0,0.0,0.0,0.0,0.0,0.0,0.0,0.0,0.0,0.0,0.0,0.0,0.0,0.0,0.0,0.0,0.0,0.0,0.0,0.0,0.0,0.0,0.0,0.0,0.0,0.0,-3.1369,-3.4192,-3.7111,-3.9428,-4.0971,-3.9603,-3.8692,-3.8527,-3.4718,-3.1345,0.0,0.0,0.0,0.0,0.0,0.0,0.0,0.0,0.0,0.0,0.0,0.0,0.0,0.0,0.0,0.0,0.0,0.0,0.0,0.0,0.0,0.0,0.0,0.0,0.0,0.0,0.0,0.0,-1.8764,-1.8731,-1.8326,0.0,0.0,0.0,0.0,0.0,0.0,0.0,0.0,0.0,0.0,-3.0004,-3.0294,-3.083,0.0,0.0,-3.0561,-2.9844,-2.8925,-3.0343,-2.9677,-2.4239,-2.3198,0.0,0.0,0.0,0.0,0.0,0.0,0.0,0.0,0.0,0.0,0.0,0.0,0.0,0.0,0.0,0.0,0.0,0.0,0.0,0.0,0.0,0.0,0.0,0.0,0.0,0.0,0.0,0.0,0.0,0.0,0.0,0.0,0.0,0.0,0.0,0.0,0.0,0.0,0.0,0.0,0.0,0.0,0.0,0.0,0.0,0.0,0.0,0.0,0.0,0.0,0.0,0.0,-3.1542,-3.3782,-3.6956,-3.9267,-4.0614,-3.9097,-3.8142,-3.7739,-3.4443,-3.1165,0.0,0.0,0.0,0.0,0.0,0.0,0.0,0.0,0.0,0.0,0.0,0.0,0.0,0.0,0.0,0.0,0.0,0.0,0.0,0.0,0.0,0.0,0.0,0.0,0.0,0.0,0.0,0.0,-1.8506,-1.8561,-1.8944,0.0,0.0,0.0,0.0,0.0,0.0,0.0,0.0,0.0,0.0,-2.9735,-3.0338,-3.0777,-3.0889,-3.0479,-2.9857,-2.9108,-2.8164,-2.8743,-2.7825,-2.3555,0.0,0.0,0.0,0.0,0.0,0.0,0.0,0.0,0.0,0.0,0.0,0.0,0.0,0.0,0.0,0.0,0.0,0.0,0.0,0.0,0.0,0.0,0.0,0.0,0.0,0.0,0.0,-2.6742,0.0,0.0,-2.6239,0.0,0.0,0.0,0.0,0.0,0.0,0.0,0.0,0.0,0.0,0.0,0.0,0.0,0.0,0.0,0.0,0.0,0.0,0.0,0.0,0.0,0.0,-3.1523,-3.3799,-3.6939,-3.9204,-4.039,-3.9057,-3.7862,-3.7062,-3.4866,-3.2054,-2.8656,0.0,0.0,0.0,0.0,0.0,0.0,0.0,0.0,0.0,0.0,0.0,0.0,0.0,0.0,0.0,0.0,0.0,0.0,0.0,0.0,0.0,0.0,0.0,0.0,0.0,0.0,-1.7984,-1.7175,-1.7579,0.0,0.0,0.0,0.0,0.0,0.0,0.0,0.0,0.0,-2.3646,-2.76,-2.9983,-2.8858,-2.8139,-2.8109,-2.8663,-2.6551,-2.5503,-2.7355,-2.7529,-2.7168,0.0,0.0,0.0,0.0,0.0,0.0,0.0,0.0,0.0,0.0,0.0,0.0,0.0,0.0,0.0,0.0,0.0,0.0,0.0,0.0,0.0,0.0,0.0,0.0,0.0,0.0,0.0,-3.1015,-2.9746,0.0,0.0,0.0,0.0,0.0,0.0,0.0,0.0,0.0,0.0,0.0,-3.0877,-3.0625,0.0,0.0,0.0,0.0,0.0,0.0,0.0,0.0,0.0,0.0,0.0,0.0,-3.2,-3.3816,-3.6496,-3.8311,-3.9175,-3.7766,-3.6592,-3.5764,-3.4545,-3.2243,-2.8689,0.0,0.0,0.0,0.0,0.0,0.0,0.0,0.0,0.0,0.0,0.0,0.0,0.0,0.0,0.0,0.0,0.0,0.0,0.0,0.0,0.0,0.0,0.0,0.0,0.0,-1.9089,0.0,0.0,0.0,0.0,0.0,0.0,0.0,0.0,0.0,0.0,0.0,-2.364,-2.536,-2.6916,-2.8068,-2.8532,-2.8771,-2.9172,0.0,0.0,0.0,0.0,0.0,0.0,0.0,0.0,0.0,0.0,0.0,0.0,0.0,0.0,-2.4805,-2.132,-2.098,-2.1442,-2.2034,0.0,0.0,0.0,0.0,0.0,0.0,0.0,0.0,0.0,0.0,0.0,0.0,0.0,0.0,-3.2304,-3.1793,-3.0866,0.0,0.0,0.0,0.0,0.0,0.0,0.0,0.0,-3.2608,-3.3477,-3.3347,-3.3064,-3.2829,0.0,-3.1743,-2.9741,0.0,0.0,0.0,0.0,0.0,0.0,0.0,0.0,-3.1825,-3.29,-3.5659,-3.7407,-3.7945,-3.6769,-3.5704,-3.4806,-3.3467,-3.1531,-2.8944,-2.5903,-2.3525,0.0,0.0,0.0,0.0,0.0,0.0,0.0,0.0,0.0,0.0,0.0,0.0,0.0,0.0,0.0,0.0,0.0,0.0,0.0,0.0,0.0,0.0,0.0,-1.9294,0.0,0.0,0.0,0.0,0.0,0.0,0.0,0.0,0.0,-2.3507,-2.3666,-2.443,-2.6338,-2.721,-2.7634,-2.756,0.0,0.0,0.0,0.0,0.0,0.0,0.0,-2.5629,-2.5097,-2.5708,-2.6468,-2.7132,-2.8061,-2.8699,-2.8681,0.0,0.0,-2.4466,-2.4181,-2.4602,-2.4723,-2.5068,-2.5263,-2.5035,-2.5109,-2.528,0.0,0.0,0.0,0.0,0.0,0.0,0.0,0.0,-3.2676,-3.2718,0.0,-3.1755,0.0,0.0,0.0,0.0,-2.9889,-3.2737,0.0,0.0,-3.6959,-3.8029,-3.5886,-3.5289,-3.4973,-3.485,-3.3808,-3.2512,-3.1108,-3.0015,0.0,0.0,0.0,0.0,0.0,0.0,-3.1029,-3.1348,-3.4628,-3.6536,-3.6843,-3.61,-3.5252,-3.4216,-3.1793,-3.0151,-2.9412,-2.7682,-2.579,-2.3783,-2.258,0.0,0.0,0.0,0.0,0.0,0.0,0.0,0.0,0.0,0.0,0.0,0.0,0.0,0.0,0.0,0.0,0.0,0.0,0.0,0.0,-2.0307,0.0,0.0,0.0,0.0,0.0,0.0,0.0,0.0,0.0,0.0,-2.3813,-2.476,-2.5835,-2.6514,0.0,0.0,0.0,0.0,-2.6877,-2.5111,-2.4745,-2.502,-2.5735,-2.625,-2.6879,-2.7769,0.0,0.0,-2.9694,-2.9132,-2.8848,-2.8929,-3.0969,-3.1814,-2.9377,-2.8405,-2.8041,-2.8136,-2.8192,-2.8184,-2.8335,-2.7961,-2.7602,-4.018,0.0,0.0,0.0,0.0,-3.6266,-3.7251,-3.8681,-3.7965,-3.7436,-3.6985,-3.5188,0.0,0.0,0.0,0.0,0.0,0.0,-3.4489,-3.489,-3.7508,-3.8561,-3.8254,-3.796,-3.7682,-3.7421,-3.6548,-3.5516,-3.443,-3.3501,-3.1883,-2.9544,0.0,0.0,0.0,0.0,-3.1938,-3.3796,-3.4961,-3.5768,-3.6231,-3.5026,-3.3934,-3.2963,-3.1766,-3.0812,-3.0109,-2.87,-2.7157,-2.5527,-2.4662,0.0,0.0,0.0,0.0,0.0,0.0,0.0,0.0,0.0,0.0,0.0,0.0,0.0,0.0,0.0,0.0,0.0,0.0,0.0,-1.9324,-2.0489,-2.1005,0.0,0.0,0.0,0.0,0.0,0.0,0.0,0.0,0.0,-2.606,-2.5463,-2.5313,0.0,0.0,-2.5226,-2.4918,-2.5585,-2.6381,-2.7142,-2.7197,0.0,-2.9223,-2.8464,-2.7965,-2.8717,-3.0081,-3.1114,-3.1295,-3.1809,-3.2415,-3.3016,-3.3783,-3.4213,-3.4148,-3.3238,-3.2576,-3.2677,-3.2372,-3.1965,-3.1692,-3.1132,-3.0807,-4.5756,-4.3345,-3.9874,-3.8774,-3.9362,-3.9362,-4.0517,-4.2289,-4.0712,-4.0041,-3.9946,-3.7711,-3.5619,-3.3695,-3.2382,0.0,0.0,0.0,-3.6308,-3.7239,-3.8603,-3.9419,-3.9745,-3.9643,-3.9354,-3.8895,-3.8263,-3.7392,-3.6223,-3.5211,-3.3689,-3.163,0.0,0.0,-3.0002,-3.1283,-3.2409,-3.3489,-3.451,-3.4993,-3.4904,-3.3816,-3.2964,-3.241,-3.1997,-3.1474,-3.0828,-2.974,-2.8532,-2.7133,-2.6122,-2.468,0.0,0.0,0.0,0.0,0.0,0.0,0.0,0.0,0.0,0.0,0.0,-2.0007,-1.7926,0.0,0.0,0.0,-2.0055,-1.9942,-1.9993,-2.0869,0.0,0.0,0.0,0.0,0.0,0.0,0.0,-2.2872,-2.3858,-2.5177,-2.6777,-2.5851,-2.5571,-2.7108,-2.609,-2.5212,-2.5332,0.0,-2.7045,-2.8137,-2.826,-2.874,-3.0077,-2.978,-2.9665,-3.0788,-3.1339,-3.2038,-3.2748,-3.3403,-3.4151,-3.5109,-3.5592,-3.5967,-3.6664,-3.611,-3.5447,-3.5069,-3.4555,-3.4097,-3.3812,-3.3065,-3.27,-5.0924,-5.0509,-4.348,-4.1369,-4.2641,-4.2658,-4.3399,-4.4368,-4.1853,-4.1256,-4.1917,-3.9409,-3.8056,-3.7526,-3.6248,0.0,-3.6908,-3.7713,-3.8543,-3.9345,-4.0102,-4.0499,-4.0489,-4.0489,-4.0166,-3.9585,-3.9189,-3.8371,-3.7062,-3.5725,-3.4904,-3.4574,-3.2807,-3.1462,-3.0799,-3.2344,-3.2637,-3.1613,-3.3641,-3.4224,-3.3272,-3.2761,-3.2444,-3.2398,-3.2336,-3.2013,-3.1397,-3.0705,-2.974,-2.8495,-2.7133,-2.6038,-2.5273,0.0,0.0,0.0,0.0,0.0,0.0,0.0,0.0,0.0,0.0,0.0,0.0,0.0,0.0,0.0,-2.2169,0.0,-2.2064,-2.1503,0.0,0.0,0.0,-2.2204,-2.2867,-2.4014,-2.472,-2.4594,0.0,0.0,-2.6506,-2.6007,-2.6298,-2.816,-2.7905,-2.7293,-2.6676,-2.7623,-2.8455,-2.8501,-2.8522,-2.8781,-2.9775,-3.0487,-3.141,-3.2747,-3.262,-3.2359,-3.3357,-3.3605,-3.4191,-3.5204,-3.6175,-3.6759,-3.7186,-3.72,-3.7075,-3.5758,-3.5229,-3.4994,-3.4817,-3.4016,-3.3476,-5.1651,-5.0379,-4.7868,-4.6714,-4.6541,-4.6524,-4.6099,-4.5419,-4.5287,-4.4143,-4.2235,-4.0625,-3.8763,-3.6785,-3.6956,-3.7126,-3.7421,-3.9109,-3.9707,-3.9559,-4.0678,-4.1002,-4.0489,-4.0489,-4.0413,-4.0228,-3.9668,-3.9062,-3.8449,-3.7089,-3.5951,-3.4967,-3.4011,-3.3281,-3.2844,-3.2442,-3.3056,-3.4693,-3.4001,-3.3456,-3.302,-3.3116,-3.2906,-3.2413,-3.189,-3.1578,-3.1393,-3.0274,-2.9479,-2.9156,-2.8341,-2.7295,-2.6023,-2.4396,0.0,0.0,0.0,0.0,0.0,0.0,0.0,0.0,0.0,-2.1699,-1.9375,0.0,-2.138,0.0,-2.2472,-2.3149,-2.2728,-2.288,0.0,0.0,-2.3644,-2.3972,-2.4149,-2.5311,-2.576,-2.472,-2.5297,-2.6094,-2.707,-2.6333,-2.6396,-2.812,-2.7435,-2.6871,-2.7148,-2.8169,-2.9104,-2.947,-2.995,-3.0732,-3.1551,-3.1681,-3.1662,-3.1941,-3.1422,-3.1164,-3.1785,-3.1837,-3.2046,-3.263,-3.3947,-3.4994,-3.5447,-3.6397,-3.6934,-3.6555,-3.6148,-3.5726,-3.5218,-3.4513,-3.3979,-5.2337,-5.1598,-5.0032,-4.8988,-4.8282,-4.7668,-4.7276,-4.7026,-4.6217,-4.4939,-4.3263,-4.135,-3.9674,-3.8338,-3.8692,-3.8846,-3.8908,-3.9987,-4.0311,-3.9985,-4.0717,-4.087,-4.0489,-4.0489,-4.0489,-4.0474,-3.9813,-3.9236,-3.8755,-3.7826,-3.6844,-3.5725,-3.5455,-3.5003,-3.4427,-3.3356,-3.3222,-3.4,-3.3024,-3.2705,-3.311,-3.3005,-3.2462,-3.1455,-3.1056,-3.0416,-2.9501,-2.8465,-2.7898,-2.7883,-2.7231,-2.6528,-2.5711,-2.4832,-2.3912,0.0,0.0,0.0,0.0,0.0,0.0,0.0,0.0,0.0,0.0,0.0,-2.2344,-2.1715,-2.3089,-2.38,-2.3256,-2.3624,-2.3937,-2.4134,-2.4696,-2.5171,-2.5486,-2.64,-2.6725,-2.5977,-2.6281,-2.6889,-2.7722,-2.7321,-2.7392,-2.8621,-2.8392,-2.802,-2.789,-2.8418,-2.8982,-2.9613,-3.0013,-3.062,-3.1744,-3.1666,-3.1485,-3.1578,-3.1344,-3.1099,-3.0958,-3.0933,-3.1034,-3.149,-3.26,-3.3618,-3.383,-3.4856,-3.5599,-3.5151,-3.4971,-3.5044,-3.5426,-3.4807,-3.4231,-5.2751,-5.2953,-5.0709,-4.9316,-4.853,-4.7213,-4.7317,-4.8263,-4.6065,-4.4825,-4.4172,-4.1663,-4.0489,-4.0489,-4.0489,-4.0489,-4.0489,-4.0489,-4.0489,-4.0489,-4.0489,-4.0489,-4.0489,-4.0489,-4.0489,-4.0474,-3.9797,-3.9216,-3.8631,-3.815,-3.7437,-3.6523,-3.656,-3.6182,-3.5351,-3.4441,-3.3279,-3.1893,-3.2004,-3.247,-3.3077,-3.2539,-3.152,-3.0127,-2.9898,-2.89,-2.7044,-2.626,-2.5872,-2.5842,-2.531,-2.5104,-2.5256,-2.4934,-2.4332,0.0,-2.352,0.0,0.0,0.0,0.0,0.0,0.0,0.0,0.0,-2.3333,-2.3487,-2.3073,-2.3825,-2.4229,-2.3913,-2.422,-2.457,-2.4938,-2.5477,-2.6113,-2.6738,-2.7223,-2.7503,-2.7503,-2.7503,-2.7732,-2.8158,-2.8268,-2.8525,-2.9022,-2.9375,-2.9236,-2.8603,-2.8572,-2.8939,-2.9297,-2.9353,-2.9902,-3.0607,-3.0895,-3.1143,-3.1484,-3.1433,-3.1264,-3.0399,-3.0426,-3.0616,-3.0906,-3.1649,-3.2314,-3.2253,-3.3058,-3.3532,-3.3063,-3.3211,-3.3849,-3.489,-3.4587,-3.4194,-5.2206,-5.1617,-4.9769,-4.8294,-4.7046,-4.6175,-4.6009,-4.6329,-4.6935,-4.5645,-4.2931,-4.1212,-4.0489,-4.0489,-4.0489,-4.0489,-4.0489,-4.0489,-4.0489,-4.0489,-4.0489,-4.0489,-4.0489,-4.0489,-4.0489,-4.0443,-3.9813,-3.9447,-3.9275,-3.8157,-3.7169,-3.6351,-3.5784,-3.5212,-3.4704,0.0,0.0,0.0,-3.3973,-3.3836,-3.1711,-3.1399,-3.0616,-2.9266,-2.817,0.0,-2.626,-2.5553,-2.5188,-2.5188,-2.5067,0.0,0.0,0.0,0.0,0.0,0.0,0.0,0.0,0.0,0.0,0.0,-2.4869,-2.4171,-2.3003,-2.2954,-2.3363,-2.4244,-2.4502,-2.4833,-2.5338,-2.5884,-2.6241,-2.6322,-2.6816,-2.7197,-2.732,-2.7438,-2.7503,-2.7503,-2.7503,-2.7542,-2.7646,-2.7659,-2.7928,-2.8525,-2.8647,-2.8669,-2.8472,-2.9131,-2.9578,-2.9392,-2.9588,-2.981,-2.964,-3.0372,-3.0764,-3.0607,-3.0427,-3.0009,-2.9151,-2.9634,-2.979,-2.9249,-3.0286,-3.1284,-3.091,-3.1436,-3.2136,-3.2468,-3.2872,-3.326,-3.3352,-3.3243,-3.3064,-5.1635,-5.109,-4.94,-4.8105,0.0,-4.6731,-4.6222,-4.5672,-4.6037,-4.507,-4.3002,-4.1648,-4.1047,-4.1032,-4.0659,-4.0489,-4.0489,-4.0489,-4.0489,-4.0489,-4.0489,-4.0489,-4.0489,-4.0489,-4.0489,-4.0474,-4.0151,-3.9813,-3.9493,-3.8831,-3.7967,-3.6905,-3.6677,-3.623,-3.5491,-3.5182,-3.4459,-3.3426,-3.3442,-3.309,-3.2302,-3.1879,-3.0861,-2.9164,-2.8448,0.0,0.0,0.0,0.0,0.0,0.0,0.0,0.0,-2.5224,0.0,-2.5206,-2.464,-2.4799,-2.5828,-2.5238,-2.5269,-2.6327,-2.569,-2.4962,-2.4326,-2.4272,-2.4664,-2.5604,-2.5828,-2.6126,-2.6588,-2.7098,-2.7315,-2.7151,-2.7353,-2.7503,-2.7503,-2.7503,-2.7503,-2.7503,-2.7503,-2.7503,-2.7503,-2.7798,-2.8046,-2.8381,-2.8682,-2.8734,-2.8525,-2.8869,-2.9131,-2.8895,-2.934,-2.9601,-2.9405,-2.9693,-2.9954,-2.9431,-2.9261,-2.8908,-2.8111,-2.8404,-2.8565,-2.8069,-2.8937,-2.972,-2.9753,-3.0331,-3.1035,-3.1233,-3.1723,-3.1946,-3.1563,-3.2326,-3.31,-5.1112,-5.0729,-4.9228,-4.8219,-4.7619,-4.7619,-4.685,-4.5526,-4.4779,0.0,0.0,-4.2309,-4.1771,-4.174,-4.1155,-4.0858,-4.0858,-4.0735,-4.0709,-4.0674,-4.0551,-4.0489,-4.0489,-4.0489,-4.0489,-4.0489,-4.0489,-4.0213,-3.9674,-3.9551,-3.8954,-3.7971,-3.7902,-3.7483,-3.6616,-3.5798,-3.5239,-3.4814,-3.2693,-3.2002,-3.2942,-3.2327,-3.1075,-2.9185,-2.9047,-2.7862,-2.5462,-2.5234,-2.5129,-2.5084,-2.4956,-2.489,-2.4843,-2.5392,-2.5419,-2.4852,-2.5326,-2.6191,-2.74,-2.6493,-2.6426,-2.7741,-2.6956,-2.6275,-2.5912,-2.5915,-2.6203,-2.6778,-2.7109,-2.7326,-2.7484,-2.7802,-2.7835,-2.7536,-2.7503,-2.7503,-2.7503,-2.7503,-2.7503,-2.7503,-2.7503,-2.7503,-2.7503,-2.7889,-2.8281,-2.8412,-2.8773,-2.8996,-2.8503,-2.832,-2.8281,-2.8281,-2.8726,-2.9118,-2.9131,-2.9274,-2.9026,-2.8629,-2.8543,-2.8307,-2.7712,-2.7659,-2.773,-2.7689,-2.803,-2.8484,-2.8756,-2.9446,-2.9984,-2.9854,-3.0494,-3.0893,-3.0424,-3.1748,-3.292,-5.0713,-4.9971,-4.9,-4.8219,-4.7619,-4.7619,-4.6834,-4.5511,-4.4302,-4.3685,-4.3562,-4.2802,-4.2463,-4.2448,-4.2355,-4.2309,-4.2263,-4.1709,-4.1447,-4.1417,-4.0816,-4.0489,-4.0489,-4.0489,-4.0489,-4.0489,-4.0489,-4.0459,-4.029,-3.9767,-3.9367,-3.9093,-3.8109,-3.7358,-3.6861,-3.5646,-3.5225,-3.5677,-3.3875,-3.2451,-3.1515,-3.0746,-2.992,-2.9042,-2.8505,-2.7774,-2.6861,-2.6229,-2.5681,-2.5342,-2.4797,-2.5094,-2.6458,-2.6806,-2.7422,-2.8412,-2.8763,-2.8867,-2.8737,-2.8365,-2.8185,-2.8309,-2.8612,-2.8206,-2.6711,-2.6568,-2.6791,-2.7307,-2.7426,-2.7465,-2.749,-2.7556,-2.7603,-2.7536,-2.7503,-2.7503,-2.7503,-2.7503,-2.7503,-2.7503,-2.7503,-2.7503,-2.7516,-2.7594,-2.7876,-2.8255,-2.8425,-2.8499,-2.8307,-2.7954,-2.7646,-2.7686,-2.8137,-2.8499,-2.8643,-2.8996,-2.8935,-2.849,-2.8739,-2.8621,-2.7659,-2.8203,-2.8521,-2.8273,-2.8268,-2.8389,-2.8491,-2.8565,-2.9054,-2.946,-3.0347,-3.0875,-3.0788,-3.1431,-3.1644,-5.0941,-5.0384,-4.9147,-4.8435,-4.8127,-4.7758,-4.6819,-4.5603,-4.5365,-4.4825,-4.4101,-4.3417,-4.3125,-4.3094,-4.2756,-4.2602,-4.2586,-4.2294,-4.1955,-4.1601,-4.1263,-4.0858,-4.052,-4.0489,-4.0489,-4.0489,-4.0489,-4.0489,-4.0459,-4.0166,-3.9859,-3.9447,-3.8169,-3.7417,-3.7188,-3.5933,-3.5346,-3.5624,-3.3752,-3.2624,-3.2379,-3.1692,-3.0991,-3.0317,-2.998,-2.9536,-2.8924,-2.8547,-2.8181,-2.7764,-2.7415,-2.7576,-2.8161,-2.8297,-2.8668,-2.9401,-2.9341,-2.9428,-2.9812,-2.9657,-2.9369,-2.8948,-2.9153,-2.8996,-2.8164,-2.7785,-2.7706,-2.7954,-2.7686,-2.7503,-2.7503,-2.7503,-2.7503,-2.7503,-2.7503,-2.7503,-2.7503,-2.7503,-2.7503,-2.7503,-2.7503,-2.7503,-2.7503,-2.7503,-2.7568,-2.7889,-2.7928,-2.7928,-2.7928,-2.7686,-2.7641,-2.7968,-2.8512,-2.8695,-2.8451,-2.8582,-2.8529,-2.802,-2.815,-2.8098,-2.7568,-2.8072,-2.815,-2.7994,-2.7928,-2.8084,-2.8352,-2.8456,-2.8785,-2.939,-3.0071,-3.0571,-3.0684,-3.0889,-3.0963,-5.0789,-5.0422,-4.9147,-4.8604,-4.8543,-4.7881,-4.7004,-4.6126,-4.6434,-4.6003,-4.5018,-4.4326,-4.3978,-4.3756,-4.3264,-4.3063,-4.3033,-4.2894,-4.2463,-4.1848,-4.1663,-4.1217,-4.0566,-4.0489,-4.0489,-4.0489,-4.0489,-4.0489,-4.0489,-4.0489,-4.0151,-3.9459,-3.8477,-3.7815,-3.7477,-3.6307,-3.5737,-3.5599,-3.3814,-3.3029,-3.3367,-3.2752,-3.2121,-3.1659,-3.1613,-3.1382,-3.0905,-3.0694,-3.0365,-2.9826,-2.9651,-2.9507,-2.9386,-2.9497,-2.9728,-3.0027,-2.9928,-3.0074,-3.063,-3.0589,-3.0281,-2.9725,-2.9702,-2.9666,-2.965,-2.9118,-2.8647,-2.8386,-2.7981,-2.7659,-2.7529,-2.7503,-2.7503,-2.7503,-2.7503,-2.7503,-2.7503,-2.7503,-2.7503,-2.7503,-2.7503,-2.7503,-2.7503,-2.7503,-2.7516,-2.7516,-2.7503,-2.7503,-2.7503,-2.7503,-2.7732,-2.8111,-2.8595,-2.8621,-2.8255,-2.819,-2.8007,-2.7542,-2.7529,-2.7568,-2.7516,-2.7503,-2.7516,-2.7542,-2.7529,-2.7808,-2.8346,-2.8495,-2.8853,-2.9563,-3.0097,-3.028,-3.0431,-3.0657,-3.0761,-4.959,-4.8893,-4.8702,-4.8604,-4.8543,-4.7896,-4.7527,-4.7311,-4.685,-4.6557,-4.6234,-4.5695,-4.5033,-4.4564,-4.4402,-4.4326,-4.4317,-4.3793,-4.3177,-4.2479,-4.1878,-4.1232,-4.0566,-4.0489,-4.0489,-4.0489,-4.0489,-4.0489,-4.0489,-4.0489,-4.0166,-3.9585,-3.9385,-3.8692,-3.7584,-3.6784,-3.6399,-3.6384,-3.5028,-3.4012,-3.3383,-3.2752,-3.2367,-3.2305,-3.229,-3.2302,-3.2121,-3.1613,-3.0913,-3.0107,-2.952,-2.9318,-2.9605,-3.007,-3.0737,-3.155,-3.2013,-3.2165,-3.1545,-3.1148,-3.0889,-3.0867,-3.0815,-3.0764,-3.0738,-3.0281,-2.951,-2.8699,-2.836,-2.8046,-2.7581,-2.7503,-2.7503,-2.7503,-2.7503,-2.7503,-2.7503,-2.7503,-2.7503,-2.7503,-2.7503,-2.7503,-2.7503,-2.7503,-2.7503,-2.7503,-2.7503,-2.7503,-2.7503,-2.7503,-2.7503,-2.7594,-2.7673,-2.7699,-2.762,-2.7581,-2.7594,-2.7516,-2.7503,-2.7503,-2.7503,-2.7503,-2.7503,-2.7503,-2.7503,-2.7756,-2.817,-2.8546,-2.8949,-2.978,-3.0176,-3.0251,-3.0477,-3.0702,-3.0732,-4.9686,-4.9325,-4.8811,-4.8604,-4.8558,-4.8312,-4.7973,-4.7573,-4.7327,-4.6757,-4.6018,-4.5695,-4.5418,-4.5195,-4.4795,-4.461,-4.4579,-4.4317,-4.3802,-4.3156,-4.2494,-4.1832,-4.1186,-4.0674,-4.0489,-4.0489,-4.0489,-4.0489,-4.0489,-4.0489,-4.0351,-4.0059,-3.9705,-3.9198,-3.8646,-3.7615,-3.7092,-3.7061,-3.5783,-3.4951,-3.4537,-3.3552,-3.2982,-3.2936,-3.2598,-3.2398,-3.2382,-3.2133,-3.1582,-3.0703,-3.038,-3.0364,-3.0707,-3.0965,-3.1573,-3.2549,-3.2672,-3.2273,-3.131,-3.131,-3.1272,-3.1024,-3.1024,-3.1024,-3.0986,-3.0764,-3.0281,-2.9523,-2.8826,-2.815,-2.762,-2.7503,-2.7503,-2.7503,-2.7503,-2.7503,-2.7503,-2.7503,-2.7503,-2.7503,-2.7503,-2.7503,-2.7503,-2.7503,-2.7503,-2.7503,-2.7503,-2.7503,-2.7503,-2.7503,-2.7503,-2.7503,-2.7503,-2.7503,-2.7503,-2.7503,-2.7503,-2.7503,-2.7503,-2.7503,-2.7503,-2.7503,-2.7503,-2.7503,-2.7503,-2.7556,-2.7822,-2.8268,-2.8693,-2.9608,-3.0493,-3.0687,-3.0717,-3.0762,-3.0732,-4.9526,-4.943,-4.8852,-4.8604,-4.8604,-4.8604,-4.8343,-4.7927,-4.7881,-4.7219,-4.6172,-4.5957,-4.5741,-4.5511,-4.488,-4.461,-4.461,-4.461,-4.4148,-4.334,-4.2802,-4.214,-4.1309,-4.0751,-4.0489,-4.0489,-4.0489,-4.0489,-4.0489,-4.0489,-4.0489,-4.0413,-3.9997,-3.9616,-3.917,-3.82,-3.7677,-3.74,-3.6338,-3.5845,-3.583,-3.4691,-3.3891,-3.366,-3.3029,-3.2675,-3.2659,-3.2475,-3.1964,-3.1043,-3.0999,-3.1148,-3.1486,-3.1485,-3.1932,-3.2778,-3.2596,-3.1982,-3.1061,-3.1272,-3.131,-3.1061,-3.1024,-3.1024,-3.1024,-3.1024,-3.0725,-3.01,-2.9353,-2.866,-2.8111,-2.7686,-2.7555,-2.7719,-2.7641,-2.7503,-2.7503,-2.7503,-2.7503,-2.7503,-2.7503,-2.7503,-2.7503,-2.7503,-2.7503,-2.7503,-2.7503,-2.7503,-2.7503,-2.7503,-2.7503,-2.7503,-2.7503,-2.7503,-2.7503,-2.7503,-2.7503,-2.7503,-2.7503,-2.7503,-2.7503,-2.7503,-2.7503,-2.7503,-2.7503,-2.7656,-2.7908,-2.8235,-2.8352,-2.9107,-2.9993,-3.0747,-3.0732,-3.0762,-3.0732,-4.8661,-4.8687,-4.8604,-4.8604,-4.8604,-4.8604,-4.8589,-4.8435,-4.8466,-4.8081,-4.7265,-4.6696,-4.6157,-4.5526,-4.4864,-4.461,-4.461,-4.461,-4.3956,-4.2879,-4.2663,-4.1894,-4.0582,-4.0505,-4.0489,-4.0489,-4.0489,-4.0489,-4.0489,-4.0489,-4.0489,-4.0489,-4.0413,-3.9797,-3.8877,-3.8585,-3.8154,-3.7615,-3.6861,-3.6738,-3.7123,-3.6045,-3.5075,-3.4505,-3.3737,-3.3367,-3.3306,-3.2736,-3.201,-3.1073,-3.1087,-3.1206,-3.1476,-3.1527,-3.1797,-3.2145,-3.1886,-3.1482,-3.1099,-3.1061,-3.1061,-3.1024,-3.1024,-3.1024,-3.1024,-3.1024,-3.0751,-3.0166,-3.0009,-2.9657,-2.9196,-2.8307,-2.7816,-2.8124,-2.7837,-2.7581,-2.7503,-2.7503,-2.7503,-2.7503,-2.7503,-2.7503,-2.7503,-2.7503,-2.7503,-2.7503,-2.7503,-2.7503,-2.7503,-2.7503,-2.7503,-2.7503,-2.7503,-2.7503,-2.7503,-2.7503,-2.7503,-2.7503,-2.7503,-2.7503,-2.7503,-2.7503,-2.7503,-2.7503,-2.7469,-2.7656,-2.8072,-2.8235,-2.8203,-2.8725,-2.9639,-3.0237,-3.0417,-3.0672,-3.0702,-4.8604,-4.8604,-4.8604,-4.8604,-4.8604,-4.8604,-4.8373,-4.7942,-4.7511,-4.6942,-4.628,-4.5603,-4.5157,-4.4964,-4.4733,-4.461,-4.461,-4.461,-4.4348,-4.3771,-4.3017,-4.234,-4.1812,-4.0951,-4.0489,-4.0489,-4.0489,-4.0489,-4.0489,-4.0489,-4.0489,-4.0489,-4.0489,-4.0213,-3.9767,-3.9336,-3.9016,-3.8708,-3.7723,-3.7261,-3.7415,-3.6599,-3.5999,-3.5722,-3.4705,-3.4091,-3.4104,-3.3873,-3.33,-3.2313,-3.2297,-3.221,-3.2125,-3.244,-3.2577,-3.2456,-3.2128,-3.1763,-3.1421,-3.1123,-3.1024,-3.1024,-3.1024,-3.1024,-3.1024,-3.0986,-3.0895,-3.0673,-3.032,-3.0113,-3.0163,-2.9327,-2.8425,-2.7954,-2.7994,-2.7928,-2.7594,-2.7503,-2.7503,-2.7503,-2.7503,-2.7503,-2.7503,-2.7503,-2.7503,-2.7503,-2.7503,-2.7503,-2.7503,-2.7503,-2.7503,-2.7503,-2.7503,-2.7503,-2.7503,-2.7503,-2.7503,-2.7503,-2.7503,-2.7503,-2.7503,-2.7503,-2.7503,-2.7469,-2.7469,-2.7403,-2.7743,-2.8222,-2.8157,-2.8519,-2.9393,-2.9962,-3.0007,-3.0447,-3.0598,-4.8604,-4.8604,-4.8604,-4.8604,-4.8604,-4.8604,-4.8219,-4.7588,-4.7111,-4.6419,-4.5618,-4.5095,-4.4825,-4.4641,-4.461,-4.461,-4.461,-4.461,-4.4502,-4.4225,-4.3325,-4.2694,-4.2186,-4.1324,-4.0755,-4.0536,-4.0489,-4.0489,-4.0489,-4.0489,-4.0489,-4.0489,-4.0489,-4.0382,-4.0105,-3.949,-3.9277,-3.9167,-3.7984,-3.7338,-3.7631,-3.6953,-3.6492,-3.6368,-3.5629,-3.5044,-3.4814,-3.4465,-3.3879,-3.3115,-3.2834,-3.263,-3.2472,-3.2988,-3.3122,-3.2739,-3.2453,-3.2128,-3.18,-3.1519,-3.131,-3.1198,-3.1161,-3.1161,-3.1024,-3.1024,-3.1024,-3.0895,-3.0673,-3.0531,-3.0542,-3.015,-2.9431,-2.8569,-2.8556,-2.8438,-2.7902,-2.7777,-2.7719,-2.7542,-2.7503,-2.7503,-2.7503,-2.7503,-2.7503,-2.7503,-2.7503,-2.7503,-2.7503,-2.7503,-2.7503,-2.7503,-2.7503,-2.7503,-2.7503,-2.7503,-2.7503,-2.7503,-2.7503,-2.7503,-2.7503,-2.7503,-2.7503,-2.7469,-2.7403,-2.7268,-2.749,-2.8026,-2.8325,-2.8505,-2.9219,-2.9901,-3.0099,-3.0342,-3.0507,-4.8604,-4.8604,-4.8604,-4.8604,-4.8604,-4.8604,-4.8219,-4.7588,-4.7542,-4.6757,-4.5541,-4.5511,-4.5164,-4.4702,-4.461,-4.461,-4.461,-4.461,-4.4332,-4.3793,-4.3608,-4.2879,-4.1894,-4.1709,-4.1247,-4.0612,-4.052,-4.0489,-4.0489,-4.0489,-4.0489,-4.0489,-4.0489,-4.0243,-3.9551,-3.9121,-3.9016,-3.9093,-3.7769,-3.7323,-3.8154,-3.7169,-3.6492,-3.6492,-3.6337,-3.5999,-3.5476,-3.4425,-3.3711,-3.317,-3.2646,-3.2325,-3.2537,-3.3016,-3.3122,-3.2824,-3.2704,-3.2489,-3.2164,-3.2019,-3.1776,-3.1593,-3.1556,-3.1347,-3.1061,-3.1024,-3.1024,-3.1011,-3.0934,-3.0777,-3.0424,-3.0581,-3.0529,-3.01,-2.9483,-2.9026,-2.8538,-2.8368,-2.8137,-2.762,-2.7503,-2.7503,-2.7503,-2.7503,-2.7503,-2.7503,-2.7503,-2.7503,-2.7503,-2.7503,-2.7503,-2.7503,-2.7503,-2.7503,-2.7503,-2.7503,-2.7503,-2.7503,-2.7503,-2.7503,-2.7503,-2.7503,-2.7503,-2.7469,-2.7302,-2.7167,-2.7053,-2.7564,-2.8045,-2.839,-2.917,-2.987,-3.0146,-3.0358,-3.0538,-4.8604,-4.8604,-4.8604,-4.8604,-4.8604,-4.8604,-4.7973,-4.7019,-4.7388,-4.6588,-4.5203,-4.5426,-4.5257,-4.4733,-4.461,-4.461,-4.461,-4.461,-4.4464,-4.424,-4.3824,-4.3408,-4.2961,-4.2479,-4.1925,-4.1278,-4.072,-4.0489,-4.0489,-4.0489,-4.0489,-4.0489,-4.0489,-4.0382,-4.0151,-3.9967,-4.0013,-3.9985,-3.8692,-3.8138,-3.8369,-3.7184,-3.6507,-3.646,-3.6148,-3.5837,-3.5608,-3.527,-3.4816,-3.4289,-3.3794,-3.3373,-3.3135,-3.3178,-3.3241,-3.31,-3.286,-3.2668,-3.2489,-3.2055,-3.1776,-3.1593,-3.1384,-3.1161,-3.1024,-3.1024,-3.1024,-3.1024,-3.0986,-3.0869,-3.0803,-3.0856,-3.0594,-2.9666,-2.9719,-2.947,-2.8569,-2.8046,-2.7712,-2.7555,-2.7503,-2.7503,-2.7503,-2.7503,-2.7503,-2.7503,-2.7503,-2.7503,-2.7503,-2.7503,-2.7503,-2.7503,-2.7503,-2.7503,-2.7503,-2.7469,-2.7456,-2.7469,-2.7503,-2.7503,-2.7503,-2.7503,-2.7503,-2.7403,-2.7235,-2.71,-2.6952,-2.7364,-2.798,-2.8422,-2.9107,-2.9639,-3.0056,-3.0388,-3.0628,-4.8604,-4.8604,-4.8604,-4.8604,-4.8604,-4.8604,-4.7835,-4.6757,-4.7034,-4.6203,-4.4964,-4.5041,-4.4987,-4.4671,-4.461,-4.461,-4.461,-4.461,-4.461,-4.4564,-4.4225,-4.387,-4.3501,-4.2617,-4.1863,-4.1247,-4.0705,-4.0489,-4.0489,-4.0489,-4.0489,-4.0489,-4.0489,-4.0489,-4.0459,-4.0243,-4.012,-3.992,-3.8782,-3.8123,-3.7923,-3.7046,-3.6492,-3.6429,-3.599,-3.572,-3.5688,-3.5365,-3.4942,-3.4591,-3.4085,-3.3632,-3.3312,-3.3276,-3.3276,-3.3241,-3.3086,-3.2931,-3.286,-3.2538,-3.2141,-3.1982,-3.1629,-3.1347,-3.1235,-3.1123,-3.1024,-3.1024,-3.1024,-3.1024,-3.1024,-3.1024,-3.062,-3.0032,-3.0255,-2.9915,-2.8895,-2.7994,-2.7686,-2.7732,-2.7646,-2.762,-2.7771,-2.7568,-2.7516,-2.7503,-2.7503,-2.7503,-2.7503,-2.7503,-2.7503,-2.7503,-2.7503,-2.7503,-2.7503,-2.7456,-2.7423,-2.7423,-2.7469,-2.7503,-2.7503,-2.7503,-2.7503,-2.7302,-2.7134,-2.7019,-2.6952,-2.7927,-2.8661,-2.8949,-2.9251,-3.0054,-3.0687,-3.0687,-3.0895,-4.8604,-4.8604,-4.8604,-4.8604,-4.8589,-4.8501,-4.7758,-4.6726,-4.6634,-4.5895,-4.4787,-4.4772,-4.4733,-4.4641,-4.461,-4.461,-4.461,-4.461,-4.461,-4.461,-4.4486,-4.4209,-4.3516,-4.2432,-4.1555,-4.0828,-4.0582,-4.0505,-4.0489,-4.0489,-4.0489,-4.0489,-4.0489,-4.0489,-4.0413,-3.9874,-3.9693,-3.9428,-3.8308,-3.7692,-3.7538,-3.6861,-3.6492,-3.646,-3.5926,-3.5591,-3.5447,-3.4691,-3.4085,-3.3982,-3.3612,-3.3347,-3.3312,-3.3276,-3.3276,-3.3276,-3.3276,-3.3241,-3.3276,-3.3086,-3.2945,-3.2596,-3.2164,-3.1946,-3.1556,-3.1198,-3.1024,-3.1024,-3.1024,-3.1024,-3.1024,-3.1024,-3.0934,-3.096,-3.0764,-3.0268,-2.9431,-2.836,-2.8085,-2.8242,-2.7994,-2.7751,-2.8268,-2.7889,-2.7646,-2.7503,-2.7503,-2.7503,-2.7503,-2.7503,-2.7503,-2.7503,-2.7469,-2.7436,-2.7436,-2.7302,-2.7235,-2.7268,-2.7302,-2.7369,-2.7436,-2.7469,-2.7503,-2.7302,-2.7134,-2.7019,-2.731,-2.8208,-2.898,-2.9345,-2.9948,-3.0791,-3.1087,-3.1073,-3.1014,-4.8604,-4.8604,-4.8604,-4.8604,-4.8527,-4.8096,-4.7404,-4.665,-4.6588,-4.5803,-4.4918,-4.5149,-4.4987,-4.4656,-4.461,-4.461,-4.461,-4.461,-4.461,-4.461,-4.461,-4.4225,-4.3578,-4.274,-4.1971,-4.134,-4.0751,-4.0505,-4.0489,-4.0505,-4.0505,-4.0489,-4.0489,-4.0489,-4.0443,-4.029,-3.9951,-3.9493,-3.8723,-3.7969,-3.7446,-3.6876,-3.6507,-3.6429,-3.5623,-3.5154,-3.5023,-3.4065,-3.3507,-3.3507,-3.3417,-3.3276,-3.3276,-3.3276,-3.3276,-3.3276,-3.3276,-3.3276,-3.3241,-3.3051,-3.281,-3.2668,-3.2164,-3.1703,-3.1629,-3.1235,-3.1024,-3.1024,-3.1024,-3.1024,-3.1024,-3.1024,-3.1024,-3.0934,-3.0699,-3.0307,-2.9826,-2.9301,-2.8895,-2.9035,-2.8882,-2.8686,-2.849,-2.8255,-2.7981,-2.7646,-2.7516,-2.7503,-2.7503,-2.7503,-2.7503,-2.7469,-2.7436,-2.7369,-2.7302,-2.7146,-2.7079,-2.7079,-2.7113,-2.718,-2.7315,-2.7403,-2.7436,-2.7403,-2.7268,-2.7134,-2.7643,-2.8338,-2.8967,-2.9611,-3.0222,-3.0851,-3.1161,-3.1278,-3.1132,-4.8604,-4.8604,-4.8604,-4.8604,-4.8527,-4.7896,-4.7219,-4.6619,-4.6265,-4.5603,-4.4872,-4.5026,-4.4941,-4.4641,-4.461,-4.461,-4.461,-4.461,-4.461,-4.461,-4.461,-4.4225,-4.3593,-4.291,-4.2402,-4.1955,-4.0981,-4.077,-4.0878,-4.0659,-4.0505,-4.0489,-4.0489,-4.0489,-4.0489,-4.0474,-4.0166,-3.9551,-3.9077,-3.8492,-3.7538,-3.7138,-3.6769,-3.6381,-3.5479,-3.4743,-3.4235,-3.3612,-3.3276,-3.3312,-3.3276,-3.3276,-3.3276,-3.3276,-3.3276,-3.3276,-3.3276,-3.3276,-3.3276,-3.3086,-3.2966,-3.2824,-3.225,-3.1886,-3.1703,-3.1347,-3.1024,-3.1024,-3.1024,-3.1024,-3.1024,-3.1024,-3.1024,-3.0947,-3.0686,-3.0398,-3.014,-2.9601,-2.9444,-2.9497,-2.9418,-2.9287,-2.9052,-2.8726,-2.8281,-2.7941,-2.7667,-2.7568,-2.7503,-2.7503,-2.7503,-2.7469,-2.7436,-2.7369,-2.7235,-2.7113,-2.6943,-2.6897,-2.6909,-2.6977,-2.7214,-2.7335,-2.7335,-2.7369,-2.7335,-2.7436,-2.7875,-2.8403,-2.9111,-2.9735,-3.0328,-3.0836,-3.1249,-3.1395,-3.1278,-4.8604,-4.8604,-4.8604,-4.8604,-4.8496,-4.7881,-4.7219,-4.6557,-4.5942,-4.5249,-4.4748,-4.461,-4.4671,-4.461,-4.461,-4.461,-4.461,-4.461,-4.461,-4.461,-4.4564,-4.4302,-4.3809,-4.314,-4.2725,-4.2386,-4.1263,-4.1247,-4.1417,-4.1032,-4.0674,-4.0659,-4.0612,-4.0489,-4.0489,-4.0489,-4.012,-3.9613,-3.9428,-3.8723,-3.7754,-3.7384,-3.7076,-3.6428,-3.5608,-3.4591,-3.3874,-3.3417,-3.3417,-3.3276,-3.3276,-3.3276,-3.3276,-3.3276,-3.3276,-3.3276,-3.3241,-3.3171,-3.3206,-3.31,-3.3065,-3.2923,-3.2359,-3.2055,-3.1836,-3.1371,-3.1024,-3.1024,-3.1024,-3.1024,-3.1024,-3.1024,-3.1024,-3.1011,-3.0985,-3.0712,-3.0281,-2.9771,-2.9653,-3.0061,-2.9758,-2.9784,-2.968,-2.9301,-2.8529,-2.8203,-2.7928,-2.7758,-2.7594,-2.7503,-2.7503,-2.7503,-2.7436,-2.7356,-2.7201,-2.7045,-2.6897,-2.676,-2.6726,-2.6807,-2.7134,-2.7268,-2.7235,-2.7235,-2.7335,-2.7503,-2.7789,-2.8403,-2.9142,-2.9858,-3.0448,-3.0984,-3.1453,-3.1453,-3.138,-4.8604,-4.8604,-4.8604,-4.8604,-4.8496,-4.7896,-4.7219,-4.6557,-4.588,-4.5157,-4.4679,-4.461,-4.461,-4.461,-4.461,-4.461,-4.461,-4.461,-4.461,-4.461,-4.461,-4.4548,-4.424,-4.3664,-4.3125,-4.2694,-4.2371,-4.2248,-4.2202,-4.1755,-4.137,-4.1324,-4.0828,-4.0505,-4.0551,-4.0505,-4.0166,-3.9613,-3.9539,-3.8908,-3.7908,-3.7615,-3.7277,-3.6536,-3.5831,-3.5023,-3.4153,-3.3928,-3.3736,-3.3417,-3.3276,-3.3276,-3.3276,-3.3276,-3.3276,-3.3206,-3.2966,-3.286,-3.2789,-3.2574,-3.2395,-3.2395,-3.2069,-3.1703,-3.1666,-3.131,-3.1024,-3.1024,-3.1024,-3.1024,-3.1024,-3.1024,-3.1024,-3.1024,-3.0986,-3.0934,-3.0803,-3.066,-3.062,-3.0673,-3.0634,-3.0503,-3.0166,-2.9957,-2.9301,-2.8656,-2.8216,-2.7981,-2.7764,-2.7581,-2.7503,-2.7503,-2.7403,-2.7302,-2.71,-2.6943,-2.6829,-2.6726,-2.6671,-2.6705,-2.7032,-2.7188,-2.7167,-2.7268,-2.7403,-2.759,-2.7756,-2.8222,-2.8903,-2.9718,-3.0434,-3.0822,-3.1131,-3.1278,-3.1438,-4.8604,-4.8604,-4.8604,-4.8604,-4.8435,-4.7558,-4.6927,-4.6434,-4.5526,-4.4964,-4.4671,-4.461,-4.461,-4.461,-4.461,-4.461,-4.461,-4.461,-4.461,-4.461,-4.461,-4.461,-4.4579,-4.4302,-4.3855,-4.3448,-4.2833,-4.2771,-4.2802,-4.2448,-4.2063,-4.2017,-4.1355,-4.1124,-4.0905,-4.0674,-4.0351,-4.0074,-3.9951,-3.9462,-3.8616,-3.8431,-3.773,-3.6728,-3.5965,-3.5187,-3.4206,-3.407,-3.3791,-3.3437,-3.3276,-3.3276,-3.3276,-3.3276,-3.3192,-3.3002,-3.286,-3.2561,-3.2417,-3.2237,-3.2128,-3.2092,-3.1776,-3.1629,-3.1482,-3.1235,-3.1024,-3.1024,-3.1024,-3.1024,-3.1024,-3.1024,-3.1024,-3.1024,-3.1024,-3.1024,-3.1024,-3.1024,-3.1024,-3.1024,-3.0934,-3.0803,-3.062,-3.0333,-2.997,-2.9274,-2.8446,-2.8164,-2.8033,-2.7803,-2.7555,-2.7469,-2.7369,-2.7248,-2.7011,-2.6841,-2.6726,-2.6705,-2.6671,-2.6773,-2.7011,-2.7066,-2.7087,-2.7235,-2.7403,-2.7503,-2.7723,-2.8189,-2.8565,-2.9093,-2.9687,-3.0283,-3.0718,-3.0896,-3.1117,-4.8604,-4.8604,-4.8604,-4.8604,-4.8404,-4.7311,-4.6742,-4.6403,-4.528,-4.4825,-4.461,-4.461,-4.461,-4.461,-4.461,-4.461,-4.461,-4.461,-4.461,-4.461,-4.461,-4.461,-4.4594,-4.4533,-4.4486,-4.4456,-4.3587,-4.3371,-4.3464,-4.311,-4.2756,-4.2617,-4.1925,-4.1524,-4.1401,-4.0874,-4.0459,-4.0382,-4.0366,-4.0043,-3.9444,-3.9305,-3.8524,-3.7347,-3.6472,-3.5651,-3.4781,-3.4341,-3.3962,-3.3347,-3.3276,-3.3276,-3.3276,-3.3276,-3.3122,-3.2739,-3.2632,-3.2381,-3.2055,-3.1946,-3.185,-3.1909,-3.1666,-3.1519,-3.1384,-3.1198,-3.1061,-3.1024,-3.1024,-3.1024,-3.1024,-3.1024,-3.1024,-3.1024,-3.1024,-3.1024,-3.1024,-3.1024,-3.1024,-3.1024,-3.1024,-3.0908,-3.0725,-3.0477,-3.0241,-2.9876,-2.9,-2.8368,-2.8203,-2.7981,-2.7646,-2.7469,-2.7369,-2.7134,-2.6897,-2.6773,-2.6658,-2.6705,-2.6705,-2.6807,-2.6956,-2.6875,-2.693,-2.7201,-2.7369,-2.7503,-2.7623,-2.7973,-2.832,-2.8565,-2.903,-2.9749,-3.0178,-3.048,-3.0837,-4.8604,-4.8604,-4.8604,-4.8604,-4.8481,-4.7742,-4.7034,-4.6511,-4.5664,-4.5133,-4.4641,-4.461,-4.461,-4.461,-4.461,-4.461,-4.461,-4.461,-4.461,-4.461,-4.461,-4.461,-4.461,-4.461,-4.461,-4.4594,-4.4202,-4.4187,-4.4178,-4.3809,-4.3424,-4.3177,-4.2232,-4.1678,-4.1432,-4.0905,-4.0489,-4.0489,-4.0489,-4.0151,-3.9751,-3.9459,-3.9149,-3.8126,-3.7436,-3.6549,-3.5644,-3.5003,-3.4322,-3.3417,-3.3312,-3.3276,-3.3241,-3.3241,-3.3051,-3.2668,-3.2345,-3.2055,-3.1703,-3.1421,-3.1235,-3.1161,-3.1161,-3.1161,-3.1099,-3.1061,-3.1024,-3.1024,-3.1024,-3.1024,-3.1024,-3.1024,-3.1024,-3.1024,-3.1024,-3.1024,-3.1024,-3.1024,-3.1024,-3.1024,-3.1024,-3.1011,-3.0817,-3.0581,-3.0268,-2.9862,-2.9118,-2.8503,-2.8203,-2.7941,-2.7594,-2.7482,-2.7369,-2.71,-2.6829,-2.6671,-2.6602,-2.6739,-2.6773,-2.6807,-2.6841,-2.6705,-2.676,-2.7079,-2.7335,-2.7536,-2.7689,-2.7855,-2.8403,-2.8935,-2.9156,-2.9282,-3.0025,-3.0673,-3.0792,-4.8604,-4.8573,-4.825,-4.8096,-4.7912,-4.6973,-4.6388,-4.6003,-4.5357,-4.488,-4.4687,-4.461,-4.461,-4.461,-4.461,-4.461,-4.461,-4.461,-4.461,-4.461,-4.461,-4.461,-4.461,-4.461,-4.461,-4.461,-4.461,-4.461,-4.4579,-4.4302,-4.3901,-4.3424,-4.2556,-4.1971,-4.1509,-4.0909,-4.0551,-4.0489,-4.0474,-4.0351,-3.9982,-3.9721,-3.929,-3.897,-3.8304,-3.7324,-3.6123,-3.5647,-3.4724,-3.3627,-3.3276,-3.3157,-3.3051,-3.2945,-3.2789,-3.2417,-3.2055,-3.1703,-3.1384,-3.1099,-3.1024,-3.1024,-3.1024,-3.1024,-3.1024,-3.1024,-3.1024,-3.1024,-3.1024,-3.1024,-3.1024,-3.1024,-3.1024,-3.1024,-3.1024,-3.1024,-3.1024,-3.1024,-3.1024,-3.1024,-3.1024,-3.1011,-3.0998,-3.0686,-3.0307,-2.9784,-2.917,-2.8686,-2.8229,-2.7968,-2.7693,-2.7702,-2.7621,-2.7177,-2.6858,-2.6696,-2.6602,-2.6705,-2.6773,-2.6794,-2.6794,-2.6658,-2.6773,-2.699,-2.7248,-2.759,-2.7556,-2.7689,-2.85,-2.9156,-2.8998,-2.9156,-3.0178,-3.0822,-3.0896,-4.8604,-4.8558,-4.8035,-4.7727,-4.7419,-4.6326,-4.5757,-4.5464,-4.4933,-4.4603,-4.461,-4.461,-4.461,-4.461,-4.461,-4.461,-4.461,-4.461,-4.461,-4.461,-4.461,-4.461,-4.461,-4.461,-4.461,-4.461,-4.461,-4.461,-4.4564,-4.4348,-4.4002,-4.3485,-4.2848,-4.2186,-4.154,-4.0858,-4.0597,-4.0489,-4.0489,-4.0489,-4.0351,-3.9997,-3.969,-3.9613,-3.9062,-3.7934,-3.661,-3.5971,-3.5053,-3.3973,-3.3353,-3.3122,-3.2775,-3.2632,-3.2417,-3.2055,-3.174,-3.1421,-3.1123,-3.1024,-3.1024,-3.1024,-3.1024,-3.1024,-3.1024,-3.1024,-3.1024,-3.1024,-3.1024,-3.1024,-3.1024,-3.1024,-3.1024,-3.1024,-3.1024,-3.1024,-3.1024,-3.1024,-3.1024,-3.1024,-3.1024,-3.1024,-3.1011,-3.0581,-3.0176,-2.9627,-2.9013,-2.8543,-2.815,-2.8072,-2.7921,-2.8006,-2.7842,-2.7302,-2.6981,-2.6725,-2.6674,-2.6692,-2.6692,-2.6671,-2.6692,-2.6658,-2.6867,-2.7122,-2.7436,-2.7723,-2.7623,-2.7736,-2.8468,-2.8871,-2.8661,-2.9188,-3.0494,-3.0866,-3.0807,-4.8604,-4.8604,-4.8512,-4.8158,-4.7496,-4.6696,-4.608,-4.5495,-4.4887,-4.461,-4.461,-4.461,-4.461,-4.461,-4.461,-4.461,-4.461,-4.461,-4.461,-4.461,-4.461,-4.461,-4.461,-4.461,-4.461,-4.461,-4.461,-4.461,-4.4495,-4.4079,-4.371,-4.3325,-4.2504,-4.1678,-4.15,-4.1089,-4.052,-4.052,-4.052,-4.0489,-4.0474,-4.0366,-4.032,-4.0136,-3.9668,-3.8774,-3.7486,-3.6581,-3.5369,-3.4242,-3.3564,-3.3114,-3.2739,-3.2345,-3.2019,-3.1776,-3.1593,-3.1421,-3.1099,-3.1024,-3.1024,-3.1024,-3.1024,-3.1024,-3.1024,-3.1024,-3.1024,-3.1024,-3.1024,-3.1024,-3.1024,-3.1024,-3.1024,-3.1024,-3.1024,-3.1024,-3.1024,-3.1024,-3.1024,-3.1024,-3.1024,-3.1024,-3.1011,-3.049,-2.9993,-2.9431,-2.8908,-2.8503,-2.8229,-2.8268,-2.8177,-2.8235,-2.8208,-2.7703,-2.7385,-2.7088,-2.6854,-2.6797,-2.6797,-2.6763,-2.6869,-2.6989,-2.7097,-2.7395,-2.7734,-2.8186,-2.8465,-2.861,-2.877,-2.8903,-2.9093,-2.9934,-3.1073,-3.1087,-3.1013,-4.8604,-4.8543,-4.7788,-4.7311,-4.6911,-4.5911,-4.5295,-4.5003,-4.4748,-4.461,-4.461,-4.461,-4.461,-4.461,-4.461,-4.461,-4.461,-4.461,-4.461,-4.461,-4.461,-4.461,-4.461,-4.461,-4.461,-4.461,-4.4572,-4.4496,-4.4335,-4.4097,-4.3714,-4.2901,-4.264,-4.2056,-4.1536,-4.1572,-4.127,-4.0924,-4.0541,-4.0451,-4.047,-4.0489,-4.0489,-4.0489,-4.0166,-3.9397,-3.8332,-3.7129,-3.5926,-3.4782,-3.3868,-3.2994,-3.2489,-3.2164,-3.1886,-3.131,-3.1235,-3.1161,-3.1024,-3.1024,-3.1024,-3.1024,-3.1024,-3.1024,-3.1024,-3.1024,-3.1024,-3.1024,-3.1024,-3.1024,-3.1024,-3.1024,-3.1024,-3.1024,-3.1024,-3.1024,-3.1024,-3.1024,-3.1024,-3.1024,-3.1024,-3.1024,-3.1024,-3.0751,-3.0333,-2.9813,-2.951,-2.9261,-2.8987,-2.8917,-2.8712,-2.8447,-2.8372,-2.819,-2.7908,-2.7617,-2.7248,-2.7205,-2.7319,-2.7284,-2.7329,-2.742,-2.7618,-2.7799,-2.8118,-2.8601,-2.9187,-2.9201,-2.9017,-2.9331,-2.9704,-3.0696,-3.1664,-3.1975,-3.1916,-4.8466,-4.8512,-4.7511,-4.6834,-4.628,-4.5418,-4.491,-4.461,-4.461,-4.461,-4.461,-4.461,-4.461,-4.461,-4.461,-4.461,-4.461,-4.461,-4.461,-4.461,-4.461,-4.461,-4.461,-4.461,-4.461,-4.4594,-4.461,-4.4496,-4.4358,-4.409,-4.3586,-4.2533,-4.2618,-4.2254,-4.1699,-4.1565,-4.1464,-4.0659,-4.0355,-4.0312,-4.0385,-4.0436,-4.0455,-4.0455,-4.0359,-3.9932,-3.8898,-3.7903,-3.6728,-3.5337,-3.4398,-3.3466,-3.24,-3.2092,-3.174,-3.1272,-3.1061,-3.1061,-3.1024,-3.1024,-3.1024,-3.1024,-3.1024,-3.1024,-3.1024,-3.1024,-3.1024,-3.1024,-3.1024,-3.1024,-3.1024,-3.1024,-3.1024,-3.1024,-3.1024,-3.1024,-3.1024,-3.1024,-3.1024,-3.1024,-3.1024,-3.1024,-3.1024,-3.1024,-3.0699,-3.0218,-2.9996,-2.9902,-2.9666,-2.9441,-2.9369,-2.9077,-2.8766,-2.871,-2.8618,-2.8295,-2.7862,-2.7672,-2.7754,-2.7895,-2.8001,-2.8158,-2.835,-2.8498,-2.8716,-2.9151,-2.9808,-2.9533,-2.9338,-3.0284,-3.1116,-3.15,-3.2105,-3.2511,-3.2647,-4.805,-4.8604,-4.8466,-4.7327,-4.5757,-4.6249,-4.568,-4.4625,-4.461,-4.461,-4.461,-4.461,-4.461,-4.461,-4.461,-4.461,-4.461,-4.461,-4.461,-4.461,-4.461,-4.461,-4.461,-4.461,-4.4579,-4.451,-4.4541,-4.4419,-4.4266,-4.402,-4.3555,-4.3039,-4.2728,-4.2196,-4.1735,-4.1507,-4.1131,-4.0446,-4.0137,-4.0152,-4.0226,-4.0296,-4.0366,-4.0401,-4.0331,-3.999,-3.9367,-3.8556,-3.7503,-3.5942,-3.501,-3.3888,-3.2577,-3.2109,-3.168,-3.1198,-3.1104,-3.1078,-3.1026,-3.1024,-3.1024,-3.1024,-3.1024,-3.1024,-3.1024,-3.1024,-3.1024,-3.1024,-3.1024,-3.1024,-3.1024,-3.1024,-3.1024,-3.1024,-3.1024,-3.1024,-3.1024,-3.1024,-3.1024,-3.1024,-3.1024,-3.1024,-3.1024,-3.1024,-3.0895,-3.044,-3.0113,-2.997,-2.9879,-2.9758,-2.9936,-2.9785,-2.9372,-2.9279,-2.938,-2.9028,-2.8537,-2.8458,-2.8554,-2.8685,-2.8828,-2.8951,-2.9061,-2.9472,-2.9737,-3.0078,-3.035,-3.0385,-3.0748,-3.18,-3.2438,-3.2434,-3.289,-3.3467,-3.326,-4.7511,-4.7388,-4.7388,-4.6927,-4.6172,-4.5603,-4.5064,-4.4671,-4.461,-4.461,-4.461,-4.461,-4.461,-4.461,-4.461,-4.461,-4.461,-4.461,-4.461,-4.461,-4.461,-4.461,-4.461,-4.4548,-4.444,-4.4187,-4.425,-4.4029,-4.3495,-4.3752,-4.3594,-4.3208,-4.2915,-4.2635,-4.2243,-4.158,-4.0991,-4.0531,-4.0086,-3.9925,-4.0066,-4.0101,-4.0137,-4.0156,-4.0172,-4.0031,-3.9647,-3.8771,-3.7851,-3.6794,-3.5432,-3.408,-3.2832,-3.2243,-3.1689,-3.1243,-3.1339,-3.1352,-3.1091,-3.1063,-3.1024,-3.1024,-3.1024,-3.1024,-3.1024,-3.1024,-3.1024,-3.1024,-3.1013,-3.1065,-3.1024,-3.1024,-3.1024,-3.1024,-3.1024,-3.1024,-3.1024,-3.1024,-3.1024,-3.1024,-3.1024,-3.1024,-3.1024,-3.1024,-3.0882,-3.0712,-3.0348,-3.01,-3.0061,-3.0035,-3.0246,-3.0368,-2.9993,-2.9943,-3.003,-2.9648,-2.9215,-2.9239,-2.9312,-2.9421,-2.9567,-2.9652,-2.9813,-3.0289,-3.0655,-3.0863,-3.1129,-3.1447,-3.1958,-3.2575,-3.2829,-3.292,-3.3513,-3.4321,-3.4008,-4.745,-4.7127,-4.6557,-4.6172,-4.5895,-4.5203,-4.4756,-4.4625,-4.461,-4.461,-4.461,-4.461,-4.461,-4.461,-4.461,-4.461,-4.461,-4.461,-4.461,-4.461,-4.461,-4.461,-4.461,-4.4564,-4.444,-4.4048,-4.4104,-4.4006,-4.351,-4.3689,-4.353,-4.3457,-4.3433,-4.3088,-4.2674,-4.1811,-4.113,-4.045,-4.0049,-3.9696,-3.9889,-3.9925,-3.996,-3.9996,-3.996,-3.9874,-3.9692,-3.9097,-3.8204,-3.7114,-3.5882,-3.4524,-3.3428,-3.2533,-3.1953,-3.178,-3.1771,-3.1862,-3.1575,-3.1117,-3.1063,-3.1024,-3.1024,-3.1024,-3.1024,-3.1024,-3.1024,-3.1013,-3.1104,-3.1196,-3.113,-3.1143,-3.1117,-3.1117,-3.1037,-3.1024,-3.1024,-3.1024,-3.1024,-3.1024,-3.1024,-3.1037,-3.1024,-3.1024,-3.0947,-3.0869,-3.0738,-3.0542,-3.0516,-3.049,-3.0503,-3.0585,-3.0561,-3.0628,-3.0722,-3.0347,-3.0038,-3.009,-3.0164,-3.0164,-3.0275,-3.0322,-3.0422,-3.0734,-3.1093,-3.1532,-3.1927,-3.2303,-3.267,-3.3038,-3.3404,-3.3896,-3.426,-3.4921,-3.4756,-4.7927,-4.8296,-4.6419,-4.528,-4.4849,-4.5349,-4.518,-4.4641,-4.461,-4.461,-4.461,-4.461,-4.461,-4.461,-4.461,-4.461,-4.461,-4.461,-4.461,-4.461,-4.461,-4.461,-4.461,-4.4579,-4.4471,-4.4579,-4.448,-4.422,-4.379,-4.3834,-4.3645,-4.3423,-4.3329,-4.3225,-4.315,-4.2013,-4.0756,-3.9664,-3.955,-3.9553,-3.9661,-3.9696,-3.9768,-3.9818,-3.9783,-3.9696,-3.96,-3.952,-3.8602,-3.736,-3.6681,-3.5349,-3.3817,-3.3361,-3.2893,-3.2555,-3.2647,-3.2712,-3.2581,-3.1601,-3.1261,-3.1248,-3.1378,-3.1261,-3.1104,-3.1078,-3.113,-3.1287,-3.1535,-3.1535,-3.147,-3.1444,-3.1431,-3.1405,-3.1339,-3.1326,-3.1365,-3.1378,-3.1457,-3.13,-3.1117,-3.105,-3.1037,-3.1024,-3.1024,-3.0973,-3.1011,-3.0934,-3.0843,-3.0803,-3.0738,-3.0777,-3.0844,-3.0846,-3.0911,-3.0949,-3.0844,-3.0934,-3.0844,-3.0703,-3.069,-3.0751,-3.0904,-3.1185,-3.1341,-3.1589,-3.2409,-3.3192,-3.3459,-3.3713,-3.4599,-3.5138,-3.5397,-3.54,-3.516,-4.7204,-4.6557,-4.5865,-4.5203,-4.4687,-4.4818,-4.481,-4.4641,-4.461,-4.461,-4.461,-4.461,-4.461,-4.461,-4.461,-4.461,-4.461,-4.461,-4.461,-4.461,-4.461,-4.461,-4.461,-4.4564,-4.4372,-4.4119,-4.412,-4.406,-4.3274,-4.3667,-4.3645,-4.3369,-4.3275,-4.3075,-4.2581,-4.1796,-4.0891,-4.0142,-3.9709,-3.9445,-3.9496,-3.9547,-3.9598,-3.967,-3.9598,-3.9532,-3.9517,-3.9517,-3.889,-3.7812,-3.7275,-3.5967,-3.4719,-3.4337,-3.3523,-3.3264,-3.3344,-3.3794,-3.3357,-3.2568,-3.2163,-3.211,-3.2006,-3.1849,-3.164,-3.1954,-3.1888,-3.1771,-3.2097,-3.2176,-3.2267,-3.2267,-3.2267,-3.2267,-3.2228,-3.2215,-3.2241,-3.2215,-3.2189,-3.1771,-3.151,-3.1326,-3.1222,-3.1196,-3.1169,-3.1065,-3.1052,-3.0999,-3.0921,-3.0921,-3.0895,-3.0908,-3.096,-3.0973,-3.1024,-3.1024,-3.1024,-3.096,-3.096,-3.0934,-3.096,-3.1123,-3.132,-3.1603,-3.1603,-3.169,-3.2755,-3.3665,-3.4007,-3.448,-3.5133,-3.5472,-3.5489,-3.5474,-3.5415,-4.6742,-4.5926,-4.568,-4.5341,-4.4926,-4.4679,-4.461,-4.461,-4.461,-4.461,-4.461,-4.461,-4.461,-4.461,-4.461,-4.461,-4.461,-4.461,-4.461,-4.461,-4.461,-4.461,-4.461,-4.4579,-4.444,-4.4072,-4.412,-4.4037,-4.3525,-4.3689,-4.3606,-4.3384,-4.329,-4.311,-4.2611,-4.1938,-4.0891,-4.0217,-3.9723,-3.9828,-3.9813,-3.9798,-3.9798,-3.9723,-3.9604,-3.9424,-3.9388,-3.9316,-3.9141,-3.8392,-3.7564,-3.6523,-3.5934,-3.533,-3.4656,-3.4651,-3.4498,-3.4701,-3.3949,-3.36,-3.33,-3.3287,-3.2986,-3.2542,-3.2241,-3.2411,-3.2385,-3.2398,-3.2712,-3.2751,-3.2764,-3.2816,-3.2921,-3.2908,-3.2751,-3.2738,-3.2712,-3.2659,-3.262,-3.2215,-3.2006,-3.1784,-3.1561,-3.1431,-3.1405,-3.1261,-3.113,-3.1052,-3.1024,-3.1024,-3.1024,-3.1024,-3.1024,-3.1024,-3.1024,-3.1024,-3.1024,-3.1024,-3.1024,-3.1024,-3.1431,-3.1603,-3.1809,-3.2015,-3.2196,-3.2555,-3.3402,-3.409,-3.4543,-3.4872,-3.5198,-3.5424,-3.5489,-3.5504,-3.5504,-4.6573,-4.6449,-4.5849,-4.5557,-4.5457,-4.4818,-4.461,-4.461,-4.461,-4.461,-4.461,-4.461,-4.461,-4.461,-4.461,-4.4572,-4.4534,-4.4572,-4.4534,-4.4534,-4.4534,-4.4534,-4.4572,-4.4594,-4.4502,-4.4548,-4.4518,-4.4312,-4.3981,-4.3786,-4.3566,-4.3384,-4.3305,-4.3035,-4.2581,-4.1848,-4.0861,-4.0352,-3.9948,-3.9993,-3.9933,-4.0098,-4.0113,-4.0008,-3.9732,-3.9538,-3.9493,-3.9478,-3.9039,-3.856,-3.8144,-3.761,-3.7214,-3.6958,-3.6905,-3.6696,-3.6132,-3.5359,-3.468,-3.4438,-3.4217,-3.4048,-3.3391,-3.2934,-3.279,-3.2908,-3.2947,-3.2999,-3.3221,-3.3091,-3.3025,-3.3221,-3.3404,-3.3234,-3.2999,-3.296,-3.2934,-3.2921,-3.2894,-3.2738,-3.2607,-3.2411,-3.2267,-3.2097,-3.1679,-3.147,-3.13,-3.1039,-3.1024,-3.1024,-3.1024,-3.1024,-3.1024,-3.1024,-3.1024,-3.1024,-3.1024,-3.1024,-3.1048,-3.1123,-3.1566,-3.1942,-3.1978,-3.2232,-3.2875,-3.3402,-3.3919,-3.4558,-3.5213,-3.5457,-3.5424,-3.5618,-3.5759,-3.5564,-3.5519,-4.6034,-4.5203,-4.5464,-4.5365,-4.4918,-4.4664,-4.461,-4.461,-4.461,-4.461,-4.461,-4.461,-4.461,-4.461,-4.461,-4.4511,-4.4473,-4.4396,-4.4381,-4.4396,-4.4435,-4.4511,-4.4549,-4.4572,-4.4572,-4.4572,-4.4549,-4.4396,-4.4011,-4.3738,-4.3488,-4.3329,-4.3305,-4.2856,-4.2267,-4.1594,-4.1175,-4.0711,-4.0232,-3.9948,-3.9858,-3.9873,-4.0053,-4.0113,-3.9753,-3.9634,-3.9828,-3.9538,-3.92,-3.9083,-3.8478,-3.8,-3.7924,-3.7834,-3.7782,-3.7706,-3.7025,-3.6227,-3.5507,-3.5305,-3.5155,-3.4716,-3.4116,-3.3744,-3.3587,-3.3589,-3.3654,-3.3626,-3.3731,-3.3679,-3.3666,-3.3796,-3.3888,-3.3757,-3.36,-3.36,-3.3587,-3.3574,-3.3535,-3.3313,-3.3169,-3.2986,-3.2855,-3.2424,-3.198,-3.1719,-3.1483,-3.1196,-3.1024,-3.1024,-3.1024,-3.1024,-3.1024,-3.1024,-3.1024,-3.1024,-3.1024,-3.1024,-3.1048,-3.1222,-3.1663,-3.1978,-3.2051,-3.2506,-3.3248,-3.3734,-3.4177,-3.4824,-3.5457,-3.5489,-3.5487,-3.5789,-3.5968,-3.5833,-3.5774,-4.5326,-4.4718,-4.5018,-4.4957,-4.4633,-4.4511,-4.4473,-4.4511,-4.4587,-4.4534,-4.4511,-4.4572,-4.461,-4.461,-4.4572,-4.4549,-4.4419,-4.4358,-4.432,-4.432,-4.4281,-4.432,-4.4396,-4.4496,-4.4549,-4.4549,-4.4435,-4.432,-4.3934,-4.3581,-4.329,-4.329,-4.3305,-4.288,-4.2387,-4.2073,-4.1901,-4.1347,-4.0696,-3.9993,-3.9798,-3.9813,-4.0098,-4.0217,-3.9798,-3.9798,-3.9978,-3.9589,-3.9418,-3.9388,-3.8811,-3.8701,-3.8701,-3.8664,-3.8352,-3.8225,-3.7744,-3.6986,-3.636,-3.6162,-3.5843,-3.5454,-3.5019,-3.4764,-3.4467,-3.4386,-3.4168,-3.4031,-3.4228,-3.4358,-3.4371,-3.4384,-3.4384,-3.4358,-3.4358,-3.4358,-3.4358,-3.4345,-3.4162,-3.3914,-3.3718,-3.3535,-3.3208,-3.2751,-3.2332,-3.2176,-3.181,-3.1352,-3.1117,-3.1024,-3.1024,-3.1024,-3.1024,-3.1024,-3.1024,-3.105,-3.1088,-3.1088,-3.1024,-3.1259,-3.1773,-3.2173,-3.2403,-3.2981,-3.3734,-3.4153,-3.453,-3.5001,-3.5489,-3.5564,-3.5759,-3.6043,-3.6282,-3.6297,-3.6297,-4.4625,-4.461,-4.461,-4.4641,-4.4572,-4.4435,-4.432,-4.4281,-4.4458,-4.4473,-4.432,-4.4458,-4.4496,-4.4458,-4.4473,-4.4435,-4.432,-4.4205,-4.4181,-4.4243,-4.4181,-4.4143,-4.4205,-4.4305,-4.4358,-4.432,-4.4243,-4.4166,-4.391,-4.3542,-4.3305,-4.3305,-4.3305,-4.3035,-4.2761,-4.244,-4.2141,-4.1737,-4.1085,-4.0472,-4.0472,-4.0472,-4.0487,-4.0516,-4.0068,-3.9634,-3.9649,-3.9544,-3.9388,-3.9388,-3.9388,-3.9316,-3.9301,-3.9265,-3.8885,-3.8649,-3.8337,-3.782,-3.7179,-3.683,-3.6621,-3.6306,-3.6029,-3.5386,-3.4843,-3.4596,-3.4337,-3.4241,-3.4371,-3.4397,-3.4397,-3.4397,-3.4397,-3.4397,-3.4397,-3.4397,-3.4397,-3.4397,-3.4319,-3.4149,-3.411,-3.394,-3.3849,-3.3404,-3.2986,-3.2698,-3.228,-3.1744,-3.1522,-3.1326,-3.1206,-3.1181,-3.1209,-3.1209,-3.1052,-3.1102,-3.1178,-3.1164,-3.1202,-3.1984,-3.2974,-3.3012,-3.2781,-3.3655,-3.4558,-3.4627,-3.4945,-3.5555,-3.6013,-3.6043,-3.6222,-3.6402,-3.6567,-3.6761,-3.6985,-4.461,-4.461,-4.461,-4.461,-4.4572,-4.4549,-4.432,-4.4104,-4.4281,-4.4228,-4.4089,-4.4127,-4.4181,-4.422,-4.422,-4.4143,-4.3988,-4.3988,-4.3871,-4.3871,-4.3886,-4.3949,-4.3972,-4.4089,-4.4143,-4.4104,-4.4065,-4.3988,-4.3714,-4.3463,-4.3305,-4.3305,-4.329,-4.3155,-4.2806,-4.25,-4.2336,-4.2036,-4.1624,-4.1265,-4.125,-4.1265,-4.1332,-4.1265,-4.0935,-4.0502,-4.0322,-3.9903,-3.9597,-3.9388,-3.9388,-3.9388,-3.9388,-3.9388,-3.9316,-3.9156,-3.8995,-3.856,-3.8008,-3.7462,-3.7049,-3.6188,-3.5575,-3.5032,-3.4634,-3.4481,-3.4439,-3.4439,-3.4397,-3.4397,-3.4397,-3.4397,-3.4397,-3.4397,-3.4397,-3.4397,-3.4397,-3.4397,-3.4397,-3.4397,-3.4397,-3.4345,-3.428,-3.4045,-3.3652,-3.3221,-3.279,-3.2411,-3.2319,-3.2162,-3.1767,-3.1714,-3.1614,-3.1561,-3.1378,-3.139,-3.1597,-3.1803,-3.1923,-3.2909,-3.4115,-3.4383,-3.4447,-3.4831,-3.539,-3.556,-3.5891,-3.6514,-3.6836,-3.6671,-3.6716,-3.6911,-3.7255,-3.7509,-3.7764,-4.461,-4.461,-4.461,-4.4534,-4.4458,-4.4358,-4.3998,-4.3561,-4.3719,-4.365,-4.343,-4.3743,-4.4003,-4.4003,-4.4003,-4.3949,-4.3808,-4.3769,-4.3769,-4.3729,-4.369,-4.3675,-4.3754,-4.3895,-4.391,-4.391,-4.3871,-4.3754,-4.3542,-4.3423,-4.3305,-4.3305,-4.326,-4.311,-4.2761,-4.2746,-4.2596,-4.2312,-4.2177,-4.2177,-4.2058,-4.1863,-4.1617,-4.1572,-4.1452,-4.113,-4.0876,-4.0412,-4.0038,-3.9723,-3.9604,-3.9403,-3.9388,-3.9388,-3.9388,-3.9352,-3.9301,-3.9228,-3.8686,-3.8173,-3.7639,-3.6947,-3.6492,-3.6466,-3.5722,-3.5561,-3.4758,-3.4675,-3.4439,-3.4397,-3.4397,-3.4397,-3.4397,-3.4397,-3.4397,-3.4397,-3.4397,-3.4397,-3.4397,-3.4397,-3.4397,-3.4384,-3.4332,-3.4306,-3.3914,-3.3535,-3.313,-3.2881,-3.2842,-3.3093,-3.2697,-3.2484,-3.2603,-3.2306,-3.2084,-3.2097,-3.2227,-3.2399,-3.2641,-3.3666,-3.4759,-3.5656,-3.6237,-3.6187,-3.6291,-3.6629,-3.7022,-3.7404,-3.7345,-3.712,-3.724,-3.7434,-3.7808,-3.8182,-3.8362,-4.4534,-4.4549,-4.4534,-4.4473,-4.4281,-4.4143,-4.3645,-4.3051,-4.3247,-4.3124,-4.2779,-4.3542,-4.3879,-4.391,-4.391,-4.391,-4.3832,-4.3636,-4.3596,-4.3611,-4.3611,-4.3557,-4.3542,-4.366,-4.366,-4.3675,-4.3651,-4.3518,-4.3344,-4.3305,-4.3305,-4.3305,-4.3305,-4.329,-4.3305,-4.329,-4.311,-4.3035,-4.3021,-4.3155,-4.2781,-4.2297,-4.1983,-4.1743,-4.1587,-4.1519,-4.1324,-4.098,-4.0591,-4.0127,-3.9783,-3.9649,-3.9508,-3.9508,-3.9388,-3.9388,-3.9388,-3.9352,-3.9192,-3.8958,-3.887,-3.876,-3.8427,-3.772,-3.6816,-3.6188,-3.5426,-3.5127,-3.4853,-3.4616,-3.4616,-3.4481,-3.4481,-3.4481,-3.4481,-3.4481,-3.4481,-3.4481,-3.4481,-3.4481,-3.4481,-3.4481,-3.4426,-3.4413,-3.4175,-3.3837,-3.3561,-3.3313,-3.3316,-3.3821,-3.3913,-3.3935,-3.4118,-3.3686,-3.304,-3.2896,-3.2975,-3.3137,-3.3479,-3.4455,-3.5447,-3.6537,-3.7109,-3.6919,-3.7094,-3.7436,-3.7659,-3.7898,-3.7764,-3.7699,-3.8003,-3.8272,-3.8392,-3.8721,-3.8871,-4.4281,-4.4143,-4.4281,-4.432,-4.4281,-4.4258,-4.4066,-4.3782,-4.3765,-4.3594,-4.3199,-4.3219,-4.3448,-4.3463,-4.3423,-4.3463,-4.3542,-4.3409,-4.3369,-4.3384,-4.3409,-4.3369,-4.3354,-4.3442,-4.3409,-4.3394,-4.3379,-4.3299,-4.305,-4.314,-4.3275,-4.323,-4.3245,-4.3275,-4.3305,-4.3305,-4.3305,-4.3305,-4.3305,-4.3305,-4.3305,-4.2991,-4.3021,-4.2776,-4.2447,-4.2321,-4.2036,-4.1557,-4.095,-4.0382,-3.9873,-3.9813,-3.9723,-3.9634,-3.9433,-3.9448,-3.9448,-3.9433,-3.9375,-3.9128,-3.9069,-3.8649,-3.8075,-3.7438,-3.6869,-3.6766,-3.6282,-3.6298,-3.5993,-3.5546,-3.5381,-3.4893,-3.4758,-3.4703,-3.4703,-3.4703,-3.4703,-3.4703,-3.4703,-3.4703,-3.4703,-3.4662,-3.4551,-3.4538,-3.4454,-3.4206,-3.4123,-3.3914,-3.393,-3.4472,-3.5035,-3.518,-3.5348,-3.4804,-3.4043,-3.3847,-3.3874,-3.3971,-3.4499,-3.5755,-3.6816,-3.7674,-3.8022,-3.7846,-3.7901,-3.8162,-3.8332,-3.8417,-3.8641,-3.8701,-3.894,-3.9134,-3.9185,-3.914,-3.9149]},{"header":{"parameterUnit":"m.s-1","parameterCategory":1,"la1":31.0,"la2":29.5877,"lo1":-88.7671,"lo2":-86.6584,"dy":0.0162,"dx":0.0185,"nx":115,"ny":88,"refTime":"2024-05-04T18:00:00:Z","depth":0,"parameterNumber":3,"parameterNumberName":"V-component_of_WINDS"},"data":[0.0,0.0,0.0,0.0,0.0,0.0,0.0,0.0,0.0,0.0,0.0,0.0,0.0,0.0,0.0,0.0,0.0,0.0,0.0,0.0,0.0,0.0,0.0,0.0,0.0,0.0,0.0,0.0,0.0,0.0,0.0,0.0,0.0,0.0,0.0,0.0,0.0,0.0,0.0,0.0,0.0,0.0,0.0,0.0,0.0,0.0,0.0,0.0,0.0,0.0,0.0,0.0,0.0,0.0,0.0,0.0,0.0,0.0,0.0,0.0,0.0,0.0,0.0,0.0,0.0,0.0,0.0,0.0,0.0,0.0,0.0,0.0,0.0,0.0,0.0,0.0,0.0,0.0,0.0,0.0,0.0,0.0,0.0,0.0,0.0,0.0,0.0,0.0,0.0,0.0,0.0,0.0,0.0,0.0,0.0,0.0,0.0,0.0,0.0,0.0,0.0,0.0,0.0,0.0,0.0,0.0,0.0,0.0,0.0,0.0,0.0,0.0,0.0,0.0,0.0,0.0,0.0,0.0,0.0,0.0,0.0,0.0,0.0,0.0,0.0,0.0,0.0,0.0,0.0,0.0,0.0,0.0,0.0,0.0,0.0,0.0,0.0,0.0,0.0,0.0,0.0,0.0,0.0,0.0,0.0,0.0,0.0,0.0,0.0,0.0,0.0,0.0,0.0,0.0,0.0,0.0,0.0,0.0,0.0,0.0,0.0,0.0,0.0,0.0,0.0,0.0,0.0,0.0,0.0,0.0,0.0,0.0,0.0,0.0,0.0,0.0,0.0,0.0,0.0,0.0,0.0,0.0,0.0,0.0,0.0,0.0,0.0,0.0,0.0,0.0,0.0,0.0,0.0,0.0,0.0,0.0,0.0,0.0,0.0,0.0,0.0,0.0,0.0,0.0,0.0,0.0,0.0,0.0,0.0,0.0,0.0,0.0,0.0,0.0,0.0,0.0,0.0,0.0,0.0,0.0,0.0,0.0,0.0,0.0,0.0,0.0,0.0,0.0,0.0,0.0,0.0,0.0,0.0,0.0,0.0,0.0,0.0,0.0,0.0,0.0,0.0,0.0,0.0,0.0,0.0,0.0,0.0,0.0,0.0,0.0,0.0,0.0,0.0,0.0,0.0,0.0,0.0,0.0,0.0,0.0,0.0,0.0,0.0,0.0,0.0,0.0,0.0,0.0,0.0,0.0,0.0,0.0,0.0,0.0,0.0,0.0,0.0,0.0,0.0,0.0,0.0,0.0,0.0,0.0,0.0,0.0,0.0,0.0,0.0,0.0,0.0,0.0,0.0,0.0,0.0,0.0,0.0,0.0,0.0,0.0,0.0,0.0,0.0,0.0,0.0,0.0,0.0,0.0,0.0,0.0,0.0,0.0,0.0,0.0,0.0,0.0,0.0,0.0,0.0,0.0,0.0,0.0,0.0,0.0,0.0,0.0,0.0,0.0,0.0,0.0,0.0,0.0,0.0,0.0,0.0,0.0,0.0,0.0,0.0,0.0,0.0,0.0,0.0,0.0,0.0,0.0,0.0,0.0,0.0,0.0,0.0,0.0,0.0,0.0,0.0,0.0,0.0,0.0,0.0,0.0,0.0,0.0,0.0,0.0,0.0,0.0,0.0,0.0,0.0,0.0,0.0,0.0,0.0,0.0,0.0,0.0,0.0,0.0,0.0,0.0,0.0,0.0,0.0,0.0,0.0,0.0,0.0,0.0,0.0,0.0,0.0,0.0,0.0,0.0,0.0,0.0,0.0,0.0,0.0,0.0,0.0,0.0,0.0,0.0,0.0,0.0,0.0,0.0,0.0,0.0,0.0,0.0,0.0,0.0,0.0,0.0,0.0,0.0,0.0,0.0,0.0,0.0,0.0,0.0,0.0,0.0,0.0,0.0,0.0,0.0,0.0,0.0,0.0,0.0,0.0,0.0,0.0,0.0,0.0,0.0,0.0,0.0,0.0,0.0,0.0,0.0,0.0,0.0,0.0,0.0,0.0,0.0,0.0,0.0,0.0,0.0,0.0,0.0,0.0,0.0,0.0,0.0,0.0,0.0,0.0,0.0,0.0,0.0,0.0,0.0,0.0,0.0,0.0,0.0,0.0,0.0,0.0,0.0,0.0,0.0,0.0,0.0,0.0,0.0,0.0,0.0,0.0,0.0,0.0,0.0,0.0,0.0,0.0,0.0,0.0,0.0,0.0,0.0,0.0,0.0,0.0,0.0,0.0,0.0,0.0,0.0,0.0,0.0,0.0,0.0,0.0,0.0,0.0,0.0,0.0,0.0,0.0,0.0,0.0,0.0,0.0,0.0,0.0,0.0,0.0,0.0,0.0,0.0,0.0,0.0,0.0,0.0,0.0,0.0,0.0,0.0,0.0,0.0,0.0,0.0,0.0,0.0,0.0,0.0,0.0,0.0,0.0,0.0,0.0,0.0,0.0,0.0,0.0,0.0,0.0,0.0,0.0,0.0,0.0,0.0,0.0,0.0,0.0,0.0,0.0,0.0,0.0,0.0,0.0,0.0,0.0,0.0,0.0,0.0,0.0,0.0,0.0,0.0,0.0,0.0,0.0,0.0,0.0,0.0,0.0,0.0,0.0,0.0,0.0,0.0,0.0,0.0,0.0,0.0,0.0,0.0,0.0,0.0,0.0,0.0,0.0,0.0,0.0,0.0,0.0,0.0,0.0,0.0,0.0,0.0,0.0,0.0,0.0,0.0,0.0,0.0,0.0,0.0,0.0,0.0,0.0,0.0,0.0,0.0,0.0,0.0,0.0,0.0,0.0,0.0,0.0,0.0,0.0,0.0,0.0,0.0,0.0,0.0,0.0,0.0,0.0,0.0,0.0,0.0,0.0,0.0,0.0,0.0,0.0,0.0,0.0,0.0,0.0,0.0,0.0,0.0,0.0,0.0,0.0,0.0,0.0,0.0,0.0,0.0,0.0,0.0,0.0,0.0,0.0,0.0,0.0,0.0,0.0,0.0,0.0,0.0,0.0,0.0,0.0,0.0,0.0,0.0,0.0,0.0,0.0,0.0,0.0,0.0,0.0,0.0,0.0,0.0,0.0,0.0,0.0,0.0,0.0,0.0,0.0,0.0,0.0,0.0,0.0,0.0,0.0,0.0,0.0,0.0,0.0,0.0,0.0,0.0,0.0,0.0,0.0,0.0,0.0,0.0,0.0,0.0,0.0,0.0,0.0,0.0,0.0,0.0,0.0,0.0,0.0,0.0,0.0,0.0,0.0,0.0,0.0,0.0,0.0,0.0,0.0,0.0,0.0,0.0,0.0,0.0,0.0,0.0,0.0,0.0,0.0,0.0,0.0,0.0,0.0,0.0,0.0,0.0,0.0,0.0,0.0,0.0,0.0,0.0,0.0,0.0,0.0,0.0,0.0,0.0,0.0,0.0,0.0,0.0,0.0,0.0,0.0,0.0,0.0,0.0,0.0,0.0,0.0,0.0,0.0,0.0,0.0,0.0,0.0,0.0,0.0,0.0,0.0,0.0,0.0,0.0,0.0,0.0,0.0,0.0,0.0,0.0,0.0,0.0,0.0,0.0,0.0,0.0,0.0,0.0,0.0,0.0,0.0,0.0,0.0,0.0,0.0,0.0,0.0,0.0,0.0,0.0,0.0,0.0,0.0,0.0,0.0,0.0,0.0,0.0,0.0,0.0,0.0,0.0,0.0,0.0,0.0,0.0,0.0,0.0,0.0,0.0,0.0,0.0,0.0,0.0,0.0,0.0,0.0,0.0,0.0,0.0,0.0,0.0,0.0,0.0,0.0,0.0,0.0,0.0,0.0,0.0,0.0,0.0,0.0,0.0,0.0,0.0,0.0,0.0,0.0,0.0,0.0,0.0,0.0,0.0,0.0,0.0,0.0,0.0,0.0,0.0,0.0,0.0,0.0,0.0,0.0,0.0,0.0,0.0,0.0,0.0,0.0,0.0,0.0,0.0,0.0,0.0,0.0,0.0,0.0,0.0,0.0,0.0,0.0,0.0,0.0,0.0,0.0,0.0,0.0,0.0,0.0,0.0,0.0,0.0,0.0,0.0,0.0,0.0,0.0,0.0,0.0,0.0,0.0,0.0,0.0,0.0,0.0,0.0,0.0,0.0,0.0,0.0,0.0,0.0,0.0,0.0,0.0,0.0,0.0,0.0,0.0,0.0,0.0,0.0,0.0,0.0,0.0,0.0,0.0,0.0,0.0,0.0,0.0,0.0,0.0,0.0,0.0,0.0,0.0,0.0,0.0,0.0,0.0,0.0,0.0,0.0,0.8921,0.0,0.0,0.0,0.0,0.0,0.0,0.0,0.0,0.0,0.0,0.0,0.0,0.0,0.0,0.0,0.0,0.0,0.0,0.0,0.0,0.0,0.0,0.0,0.0,0.0,0.0,0.0,0.0,0.0,0.0,0.0,0.0,0.0,0.0,0.0,0.0,0.0,0.0,0.0,0.0,0.0,0.0,0.0,0.0,0.0,0.0,0.0,0.0,0.0,0.0,0.0,0.0,0.0,0.0,0.0,0.0,0.0,0.0,0.0,0.0,0.0,0.0,0.0,0.0,0.0,0.0,0.0,0.0,0.0,0.0,0.0,0.0,0.0,0.0,0.0,0.0,0.0,0.0,0.0,0.0,0.0,0.0,0.0,0.0,0.0,0.0,0.0,0.0,0.0,0.0,0.0,0.0,0.0,0.0,0.0,0.0,0.0,0.0,0.0,0.0,0.0,0.0,0.0,0.0,0.0,0.0,0.0,0.0,0.0,0.0,1.0416,1.0249,1.0009,0.966,0.9183,0.0,0.0,0.0,0.0,0.0,0.0,0.0,0.0,0.0,0.0,0.0,0.0,0.0,0.0,0.0,0.0,0.0,0.0,0.0,0.0,0.0,0.0,0.0,0.0,0.0,0.0,0.0,0.0,0.0,0.0,0.0,0.0,0.0,0.0,0.0,0.0,0.0,0.0,0.0,0.0,0.0,0.0,0.0,0.0,0.0,0.0,0.0,0.0,0.0,0.0,0.0,0.0,0.0,0.0,0.0,0.0,0.0,0.0,0.0,0.0,0.0,0.0,0.0,0.0,0.0,0.0,0.0,0.0,0.0,0.0,0.0,0.0,0.0,0.0,0.0,0.0,0.0,0.0,0.0,0.0,0.0,0.0,0.0,0.0,0.0,0.0,0.0,0.0,0.0,0.0,0.0,0.0,0.0,0.0,0.0,0.0,0.0,0.0,0.0,0.0,0.0,0.0,0.0,0.0,0.0,0.0,0.0,0.0,0.0,0.0,0.0,0.0,1.0423,1.0113,0.9755,0.0,0.0,0.0,0.0,0.0,0.0,0.0,0.0,0.0,0.0,0.0,0.0,0.0,0.0,0.0,0.0,0.0,0.0,0.0,0.0,0.0,0.0,0.0,0.0,0.0,0.0,0.0,0.0,0.0,0.0,0.0,0.0,0.0,0.0,0.0,0.0,0.0,0.0,0.0,0.0,0.0,0.0,0.0,0.0,0.0,0.0,0.0,0.0,0.0,0.0,0.0,0.0,0.0,0.0,0.0,0.0,0.0,0.0,0.0,0.0,0.0,0.0,0.0,0.0,0.0,0.0,0.0,0.0,0.0,0.0,0.0,0.0,0.0,0.0,0.0,0.0,0.0,0.0,0.0,0.0,0.0,0.0,0.0,0.0,0.0,0.0,0.0,0.0,0.0,0.0,0.0,0.0,0.0,0.0,0.0,0.0,0.0,0.0,0.0,0.0,0.0,0.0,0.0,0.0,0.0,0.0,0.0,0.0,0.0,0.0,1.0791,1.1368,1.1352,0.0,1.0846,0.0,0.0,0.0,0.0,0.0,0.0,0.0,0.0,0.0,0.0,0.0,0.0,0.0,0.0,0.0,0.0,0.0,0.0,0.0,0.0,0.0,0.0,0.0,0.0,0.0,0.0,0.0,0.0,0.0,0.0,0.0,0.0,0.0,0.0,0.0,0.0,0.0,0.0,0.0,0.0,0.0,0.0,0.0,0.0,0.0,0.0,0.0,0.0,0.0,0.0,0.0,0.0,0.0,0.0,0.0,0.0,0.0,0.0,0.0,0.0,0.0,0.0,0.0,0.0,0.0,0.0,0.0,0.0,0.0,0.0,0.0,0.0,0.0,0.0,0.0,0.0,0.0,0.0,0.0,0.0,0.0,0.0,0.0,0.0,0.0,0.0,0.0,0.0,0.0,0.0,0.0,0.0,0.0,0.0,0.0,0.0,0.0,0.0,0.0,0.0,0.0,0.0,0.0,0.0,0.0,0.0,0.0,0.0,0.0,0.0,1.0822,1.1499,1.1296,1.0939,0.0,0.0,0.0,0.0,0.0,0.0,0.0,0.0,0.0,0.0,0.0,0.0,0.0,0.0,0.0,0.0,0.0,0.0,0.0,0.0,0.0,0.0,0.0,0.0,0.0,0.0,0.0,0.0,0.0,0.0,0.0,0.0,0.0,0.0,0.0,0.0,0.0,0.0,0.0,0.0,0.0,0.0,0.0,0.0,0.0,0.0,0.0,0.0,0.0,0.0,0.0,0.0,0.0,0.0,0.0,0.0,0.0,0.0,0.0,0.0,0.0,0.0,0.0,0.0,0.0,0.0,0.0,0.0,0.0,0.0,0.0,0.0,0.0,0.0,0.0,0.0,0.0,0.0,0.0,0.0,0.0,0.0,0.0,0.0,0.0,0.0,0.0,0.0,0.0,0.0,0.0,0.0,0.0,0.0,0.0,0.0,0.0,0.0,0.0,0.0,0.0,0.0,0.0,0.0,0.0,0.0,0.0,0.0,0.0,0.0,1.0687,1.0918,1.1459,1.1101,1.0558,0.9914,0.0,0.0,0.0,0.0,0.0,0.0,0.0,0.0,0.0,0.0,0.0,0.0,0.0,0.0,0.0,0.0,0.0,0.0,0.0,0.0,0.0,0.0,0.0,0.0,0.0,0.0,0.0,0.0,0.0,0.0,0.0,0.0,0.0,0.0,0.0,0.0,0.0,0.0,0.0,0.0,0.0,0.0,0.0,0.0,0.0,0.0,0.0,0.0,0.0,0.0,0.0,0.0,0.0,0.0,0.0,0.0,0.0,0.0,0.0,0.0,0.0,0.0,0.0,0.0,0.0,0.0,0.0,0.0,0.0,0.0,0.0,0.0,0.0,0.0,0.0,0.0,0.0,0.0,0.0,0.0,0.0,0.0,0.0,0.0,0.0,0.0,0.0,0.0,0.0,0.0,0.0,0.0,0.0,0.0,0.0,0.0,0.0,0.0,0.0,0.0,0.0,0.0,0.0,0.0,0.0,0.0,0.0,0.0,1.1436,1.113,1.1165,1.1467,1.087,1.0311,0.0,0.0,0.0,0.0,0.0,0.0,0.0,0.0,0.0,0.0,0.0,0.0,0.0,0.0,0.0,0.0,0.0,0.0,0.0,0.0,0.0,0.0,0.0,0.0,0.0,0.0,0.0,0.0,0.0,0.0,0.0,0.0,0.0,0.0,0.0,0.0,0.0,0.0,0.0,0.0,0.0,0.0,0.0,0.0,0.0,0.0,0.0,0.0,0.0,0.0,0.0,0.0,0.0,0.0,0.0,0.0,0.0,0.0,0.0,0.0,0.0,0.0,0.0,0.0,0.0,0.0,0.0,0.0,0.0,0.0,0.0,0.0,0.0,0.0,0.0,0.0,0.0,0.0,0.0,0.0,0.0,0.0,0.0,0.0,0.0,0.0,0.0,0.0,0.0,0.0,0.0,0.0,0.0,0.0,0.0,0.0,0.0,0.0,0.0,0.0,0.0,0.0,0.0,0.0,0.0,0.0,0.0,0.0,0.0,1.0894,1.1146,1.1364,1.1417,1.1042,1.0845,0.0,0.0,0.0,0.0,0.0,0.0,0.0,0.0,0.0,0.0,0.0,0.0,0.0,0.0,0.0,0.0,0.0,0.0,0.0,0.0,0.0,0.0,0.0,0.0,0.0,0.0,0.0,0.0,0.0,0.0,0.0,0.0,0.0,0.0,0.0,0.0,0.0,0.0,0.0,0.0,0.0,0.0,0.0,0.0,0.0,0.0,0.0,0.0,0.0,0.0,0.0,0.0,0.0,0.0,0.0,0.0,0.0,0.0,0.0,0.0,0.0,0.0,0.0,0.0,0.0,0.0,0.0,0.0,0.0,0.0,0.0,0.0,0.0,0.0,0.0,0.0,0.0,0.0,0.0,0.0,0.0,0.0,0.0,0.0,0.0,0.0,0.0,0.0,0.0,0.0,0.0,0.0,0.0,0.0,0.0,0.0,0.0,0.0,0.0,0.0,0.0,0.0,0.0,0.0,0.0,0.0,0.0,0.0,0.0,1.1127,0.0,1.1996,1.1411,1.1232,1.0921,0.0,0.0,0.0,0.0,0.0,0.0,0.0,0.0,0.0,0.0,0.0,0.0,0.0,0.0,0.0,0.0,0.0,0.0,0.0,0.0,0.0,0.0,0.0,0.0,0.0,0.0,0.0,0.0,0.0,0.0,0.0,0.0,0.0,0.0,0.0,0.0,0.0,0.0,0.0,0.0,0.0,0.0,0.0,0.0,0.0,0.0,0.0,0.0,0.0,0.0,0.0,0.0,0.0,0.0,0.0,0.0,0.0,0.0,0.0,0.0,0.0,0.0,0.0,0.0,0.0,0.0,0.0,0.0,0.0,0.0,0.0,0.0,0.0,0.0,0.0,0.0,0.0,0.0,0.0,0.0,0.0,0.0,0.0,0.0,0.0,0.0,0.0,0.0,0.0,0.0,0.0,0.0,0.0,0.0,0.0,0.0,0.0,0.0,0.0,0.0,0.0,0.0,0.0,0.0,0.0,0.0,0.0,0.0,1.164,1.2263,1.3244,1.2986,1.1521,1.1376,1.0456,0.0,0.0,0.0,0.0,0.0,0.0,0.0,0.0,0.0,0.0,0.0,0.0,0.0,0.0,0.0,0.0,0.0,0.0,0.0,0.0,0.0,0.0,0.0,0.0,0.0,0.0,0.0,0.0,0.0,0.0,0.0,0.0,0.0,0.0,0.0,0.0,0.0,0.0,0.0,0.0,0.0,0.0,0.0,0.0,0.0,0.0,0.0,0.0,0.0,0.0,0.0,0.0,0.0,0.0,0.0,0.0,0.0,0.0,0.0,0.0,0.0,0.0,0.0,0.0,0.0,0.0,0.0,0.0,0.0,0.0,0.0,0.0,0.0,0.0,0.0,0.0,0.0,0.0,0.0,0.0,0.0,0.0,0.0,0.0,0.0,0.0,0.0,0.0,0.0,0.0,0.0,0.0,0.0,0.0,0.0,0.0,0.0,0.0,0.0,0.0,0.0,0.0,0.0,0.0,0.0,0.0,0.0,0.0,0.0,1.1091,1.1938,1.2556,1.2838,1.1019,1.0649,0.0,0.0,0.0,0.0,0.0,0.0,0.0,0.0,0.0,0.0,0.0,0.0,0.0,0.0,0.0,0.0,0.0,0.0,0.0,0.0,0.0,0.0,0.0,0.0,0.0,0.0,0.0,0.0,0.0,0.0,0.0,0.0,0.0,0.0,0.0,0.0,0.0,0.0,0.0,0.0,0.0,0.0,0.0,0.0,0.0,0.0,0.0,0.0,0.0,0.0,0.0,0.0,0.0,0.0,0.0,0.0,0.0,0.0,0.0,0.0,0.0,0.0,0.0,0.0,0.0,0.0,0.0,0.0,0.0,0.0,0.0,0.0,0.0,0.0,0.0,0.0,0.0,0.0,0.0,0.0,0.0,0.0,0.0,0.0,0.0,0.0,0.0,0.0,0.0,0.0,0.0,0.0,0.0,0.0,0.0,0.0,0.0,0.0,0.0,0.0,0.0,0.0,0.0,0.0,0.0,0.0,0.0,0.0,0.0,1.1963,1.2797,1.3376,1.353,1.1681,1.1232,1.2415,0.0,0.0,0.0,0.0,0.0,0.0,0.0,0.0,0.0,0.0,0.0,0.0,0.0,0.0,0.0,0.0,0.0,0.0,0.0,0.0,0.0,0.0,0.0,0.0,0.0,0.0,0.0,0.0,0.0,0.0,0.0,0.0,0.0,0.0,0.0,0.0,0.0,0.0,0.0,0.0,0.0,0.0,0.0,0.0,0.0,0.0,0.0,0.0,0.0,0.0,0.0,0.0,0.0,0.0,0.0,0.0,0.0,0.0,0.0,0.0,0.0,0.0,0.0,0.0,0.0,0.0,0.0,0.0,0.0,0.0,0.0,0.0,0.0,0.0,0.0,0.0,0.0,0.0,0.0,0.0,0.0,0.0,0.0,0.0,0.0,0.0,0.0,0.0,0.0,0.0,0.0,0.0,0.0,0.0,0.0,0.0,0.0,0.0,0.0,0.0,0.0,0.0,0.0,0.0,0.0,0.0,0.0,0.0,1.4338,1.5578,1.539,1.3743,1.3125,1.2237,0.0,0.0,0.0,0.0,0.0,0.0,0.0,0.0,0.0,0.0,0.0,0.0,0.0,0.0,0.0,0.0,0.0,0.0,0.0,0.0,0.0,0.0,0.0,0.0,0.0,0.0,0.0,0.0,0.0,0.0,0.0,0.0,0.0,0.0,0.0,0.0,0.0,0.0,0.0,0.0,0.0,0.0,0.0,0.0,0.0,0.0,0.0,0.0,0.0,0.0,0.0,0.0,0.0,0.0,0.0,0.0,0.0,0.0,0.0,0.0,0.0,0.0,0.0,0.0,0.0,0.0,0.0,0.0,0.0,0.0,0.0,0.0,0.0,0.0,0.0,0.0,0.0,0.0,0.0,0.0,0.0,0.0,0.0,0.0,0.0,0.0,0.0,0.0,0.0,0.0,0.0,0.0,0.0,0.0,0.0,0.0,0.0,0.0,0.0,0.0,0.0,0.0,0.0,0.0,0.0,0.0,0.0,0.0,0.0,1.6773,1.8157,1.7804,1.5643,1.4039,1.3517,0.0,0.0,0.0,0.0,0.0,0.0,0.0,0.0,0.0,0.0,0.0,0.0,0.0,0.0,0.0,0.0,0.0,0.0,0.0,0.0,0.0,0.0,0.0,0.0,0.0,0.0,0.0,0.0,0.0,0.0,0.0,0.0,0.0,0.0,0.0,0.0,0.0,0.0,0.0,0.0,0.0,0.0,0.0,0.0,0.0,0.0,0.0,0.0,0.0,0.0,0.0,0.0,0.0,0.0,0.0,0.0,0.0,0.0,0.0,0.0,0.0,0.0,0.0,0.0,0.0,0.0,0.0,0.0,0.0,0.0,0.0,0.0,0.0,0.0,0.0,0.0,0.0,0.0,0.0,0.0,0.0,0.0,0.0,0.0,0.0,0.0,0.0,0.0,0.0,0.0,0.0,0.0,0.0,0.0,0.0,0.0,0.0,0.0,0.0,0.0,0.0,0.0,0.0,0.0,0.0,0.0,0.0,0.0,1.7442,1.8165,2.0483,2.073,1.8757,1.6538,1.5215,0.0,0.0,0.0,0.0,0.0,0.0,0.0,0.0,0.0,0.0,0.0,0.0,0.0,0.0,0.0,0.0,0.0,0.0,0.0,0.0,0.0,0.0,0.0,0.0,0.0,0.0,0.0,0.0,0.0,0.0,0.0,0.0,0.0,0.0,0.0,0.0,0.0,0.0,0.0,0.0,0.0,0.0,0.0,0.0,0.0,0.0,0.0,0.0,0.0,0.0,0.0,0.0,0.0,0.0,0.0,0.0,0.0,0.0,0.0,0.0,0.0,0.0,0.0,0.0,0.0,0.0,0.0,0.0,0.0,0.0,0.0,0.0,0.0,0.0,0.0,0.0,0.0,0.0,0.0,0.0,0.0,0.0,0.0,0.0,0.0,0.0,0.0,0.0,0.0,0.0,0.0,0.0,0.0,0.0,0.0,0.0,0.0,0.0,0.0,0.0,0.0,0.0,0.0,0.0,0.0,0.0,0.0,0.0,1.9245,1.9193,2.2451,2.359,2.2316,1.9606,1.7102,0.0,0.0,0.0,0.0,0.0,0.0,0.0,0.0,0.0,0.0,0.0,0.0,0.0,0.0,0.0,0.0,0.0,0.0,0.0,0.0,0.0,0.0,0.0,0.0,0.0,0.0,0.0,0.0,0.0,0.0,0.0,0.0,0.0,0.0,0.0,0.0,0.0,0.0,0.0,0.0,0.0,0.0,0.0,0.0,0.0,0.0,0.0,0.0,0.0,0.0,0.0,0.0,0.0,0.0,0.0,0.0,0.0,0.0,0.0,0.0,0.0,0.0,0.0,0.0,0.0,0.0,0.0,0.0,0.0,0.0,0.0,0.0,0.0,0.0,0.0,0.0,0.0,0.0,0.0,0.0,0.0,0.0,0.0,0.0,0.0,0.0,0.0,0.0,0.0,0.0,0.0,0.0,0.0,0.0,0.0,0.0,0.0,0.0,0.0,0.0,0.0,0.0,0.0,0.0,0.0,0.0,0.0,0.0,1.9839,2.13,2.3218,2.4208,2.4249,2.0627,1.8146,0.0,0.0,0.0,0.0,0.0,0.0,0.0,0.0,0.0,0.0,0.0,0.0,0.0,0.0,0.0,0.0,0.0,0.0,0.0,0.0,0.0,0.0,0.0,0.0,0.0,0.0,0.0,0.0,0.0,0.0,0.0,0.0,0.0,0.0,0.0,0.0,0.0,0.0,0.0,0.0,0.0,0.0,0.0,0.0,0.0,0.0,0.0,0.0,1.3821,0.0,0.0,0.0,0.0,0.0,0.0,0.0,0.0,0.0,0.0,0.0,0.0,0.0,0.0,0.0,0.0,0.0,0.0,0.0,0.0,0.0,0.0,0.0,0.0,0.0,0.0,0.0,0.0,0.0,0.0,0.0,0.0,0.0,0.0,0.0,0.0,0.0,0.0,0.0,0.0,0.0,0.0,0.0,0.0,0.0,0.0,0.0,0.0,0.0,0.0,0.0,0.0,0.0,0.0,0.0,0.0,0.0,0.0,0.0,2.0441,2.1971,2.3646,2.4637,2.4855,2.1742,1.9317,0.0,0.0,0.0,0.0,0.0,0.0,0.0,0.0,0.0,0.0,0.0,0.0,0.0,0.0,0.0,0.0,0.0,0.0,0.0,0.0,0.0,0.0,0.0,0.0,0.0,0.0,0.0,0.0,0.0,0.0,0.0,0.0,0.0,0.0,0.0,0.0,0.0,0.0,0.0,0.0,0.0,0.0,0.0,0.0,0.0,0.0,0.0,0.0,0.0,0.0,0.0,0.0,0.0,0.0,0.0,0.0,0.0,0.0,0.0,0.0,0.0,0.0,0.0,0.0,0.0,0.0,0.0,0.0,0.0,0.0,0.0,0.0,0.0,0.0,0.0,0.0,0.0,0.0,0.0,0.0,0.0,0.0,0.0,0.0,0.0,0.0,0.0,0.0,0.0,0.0,0.0,0.0,0.0,0.0,0.0,0.0,0.0,0.0,0.0,0.0,0.0,0.0,0.0,0.0,0.0,0.0,0.0,1.9127,2.1044,2.2351,2.3883,2.4826,2.4945,2.2532,2.0269,1.8347,0.0,0.0,0.0,0.0,0.0,0.0,0.0,0.0,0.0,0.0,0.0,0.0,0.0,0.0,0.0,0.0,0.0,0.0,0.0,0.0,0.0,0.0,0.0,0.0,0.0,0.0,0.0,0.0,0.0,0.0,0.0,0.0,0.0,0.0,0.0,0.0,0.0,0.0,1.3783,1.34,0.0,0.0,0.0,0.0,0.0,0.0,0.0,0.0,1.465,0.0,0.0,0.0,0.0,0.0,0.0,0.0,0.0,0.0,0.0,0.0,0.0,0.0,0.0,0.0,0.0,0.0,0.0,0.0,0.0,0.0,0.0,0.0,0.0,0.0,0.0,0.0,0.0,0.0,0.0,0.0,0.0,0.0,0.0,0.0,0.0,0.0,0.0,0.0,0.0,0.0,0.0,0.0,0.0,0.0,0.0,0.0,0.0,0.0,0.0,0.0,0.0,0.0,0.0,0.0,0.0,1.9705,2.0181,2.1509,2.3772,2.4128,2.4402,2.4498,2.2142,2.0129,1.8666,0.0,0.0,0.0,0.0,0.0,0.0,0.0,0.0,0.0,0.0,0.0,0.0,0.0,0.0,0.0,0.0,0.0,0.0,0.0,0.0,0.0,0.0,0.0,0.0,0.0,0.0,0.0,0.0,0.0,0.0,0.0,0.0,0.0,0.0,0.0,0.0,0.0,0.0,0.0,1.4376,1.4134,0.0,0.0,0.0,0.0,0.0,0.0,0.0,0.0,1.5927,0.0,0.0,0.0,0.0,0.0,0.0,0.0,0.0,0.0,0.0,0.0,0.0,0.0,0.0,0.0,0.0,0.0,0.0,0.0,0.0,0.0,0.0,0.0,0.0,0.0,0.0,0.0,0.0,0.0,0.0,0.0,0.0,0.0,0.0,0.0,0.0,0.0,0.0,0.0,0.0,0.0,0.0,0.0,0.0,0.0,0.0,0.0,0.0,0.0,0.0,0.0,0.0,0.0,0.0,0.0,1.9042,2.0108,2.146,2.3182,2.3611,2.3678,2.3295,2.0968,1.9068,0.0,0.0,0.0,0.0,0.0,0.0,0.0,0.0,0.0,0.0,0.0,0.0,0.0,0.0,0.0,0.0,0.0,0.0,0.0,0.0,0.0,0.0,0.0,0.0,0.0,0.0,0.0,0.0,0.0,0.0,0.0,0.0,0.0,0.0,0.0,0.0,0.0,0.0,0.0,0.0,1.5163,1.5101,1.5349,0.0,0.0,0.0,0.0,0.0,0.0,1.5682,1.5894,0.0,0.0,0.0,0.0,0.0,0.0,0.0,0.0,0.0,0.0,0.0,0.0,0.0,0.0,0.0,0.0,0.0,0.0,0.0,0.0,0.0,0.0,0.0,0.0,0.0,0.0,0.0,0.0,0.0,0.0,0.0,0.0,0.0,0.0,0.0,0.0,0.0,0.0,0.0,0.0,0.0,0.0,0.0,0.0,0.0,0.0,0.0,0.0,0.0,0.0,0.0,0.0,0.0,0.0,0.0,1.8245,1.9962,2.142,2.2639,2.3123,2.3116,2.2474,2.0042,1.8269,0.0,0.0,0.0,0.0,0.0,0.0,0.0,0.0,0.0,0.0,0.0,0.0,0.0,0.0,0.0,0.0,0.0,0.0,0.0,0.0,0.0,0.0,0.0,0.0,0.0,0.0,0.0,0.0,0.0,0.0,0.0,0.0,0.0,0.0,0.0,0.0,0.0,0.0,0.0,0.0,0.0,1.6226,1.6467,1.5804,0.0,0.0,0.0,0.0,1.5813,1.6375,0.0,0.0,0.0,0.0,0.0,0.0,0.0,0.0,0.0,0.0,0.0,0.0,0.0,0.0,0.0,0.0,0.0,0.0,0.0,0.0,0.0,0.0,0.0,0.0,0.0,0.0,0.0,0.0,0.0,0.0,0.0,0.0,0.0,0.0,0.0,0.0,0.0,0.0,0.0,0.0,0.0,0.0,0.0,0.0,0.0,0.0,0.0,0.0,0.0,0.0,0.0,0.0,0.0,0.0,0.0,0.0,1.9484,2.0391,2.1817,2.3834,2.3297,2.3026,2.3131,2.0455,1.8634,0.0,0.0,0.0,0.0,0.0,0.0,0.0,0.0,0.0,0.0,0.0,0.0,0.0,0.0,0.0,0.0,0.0,0.0,0.0,0.0,0.0,0.0,0.0,0.0,0.0,0.0,0.0,0.0,0.0,0.0,0.0,0.0,0.0,0.0,0.0,0.0,0.0,0.0,0.0,0.0,0.0,1.7337,1.6986,1.655,1.5956,0.0,0.0,1.7575,1.7387,1.9756,0.0,0.0,0.0,0.0,0.0,0.0,0.0,0.0,0.0,0.0,0.0,0.0,0.0,0.0,0.0,0.0,0.0,0.0,0.0,0.0,0.0,0.0,0.0,0.0,0.0,0.0,0.0,0.0,0.0,0.0,0.0,0.0,0.0,0.0,0.0,0.0,0.0,0.0,0.0,0.0,0.0,0.0,0.0,0.0,0.0,0.0,0.0,0.0,0.0,0.0,0.0,0.0,0.0,0.0,0.0,1.6812,1.9042,2.0133,2.1307,2.2694,2.2308,2.1983,2.1866,1.8907,1.7187,0.0,0.0,0.0,0.0,0.0,0.0,0.0,0.0,0.0,0.0,0.0,0.0,0.0,0.0,0.0,0.0,0.0,0.0,0.0,0.0,0.0,0.0,0.0,0.0,0.0,0.0,0.0,0.0,0.0,0.0,0.0,0.0,0.0,0.0,0.0,0.0,0.0,0.0,0.0,0.0,0.0,0.0,1.8199,1.8715,0.0,0.0,0.0,1.88,1.7805,0.0,0.0,0.0,0.0,0.0,0.0,0.0,0.0,0.0,0.0,0.0,0.0,0.0,0.0,0.0,0.0,0.0,0.0,0.0,0.0,0.0,0.0,0.0,0.0,0.0,0.0,0.0,0.0,0.0,0.0,0.0,0.0,0.0,0.0,0.0,0.0,0.0,0.0,0.0,0.0,0.0,0.0,0.0,0.0,0.0,0.0,0.0,0.0,0.0,0.0,0.0,0.0,0.0,0.0,0.0,0.0,0.0,1.8722,1.9903,2.0961,2.1931,2.1567,2.1323,2.1128,1.8328,0.0,0.0,0.0,0.0,0.0,0.0,0.0,0.0,0.0,0.0,0.0,0.0,0.0,0.0,0.0,0.0,0.0,0.0,0.0,0.0,0.0,0.0,0.0,0.0,0.0,0.0,0.0,1.2362,0.0,0.0,0.0,0.0,0.0,0.0,0.0,0.0,0.0,0.0,0.0,0.0,0.0,0.0,2.0581,1.9649,2.0486,2.092,0.0,0.0,1.9789,1.902,2.1063,2.153,0.0,0.0,0.0,0.0,0.0,0.0,0.0,0.0,0.0,0.0,0.0,0.0,0.0,0.0,0.0,0.0,0.0,0.0,0.0,0.0,0.0,0.0,0.0,0.0,0.0,0.0,0.0,0.0,0.0,0.0,0.0,0.0,0.0,0.0,0.0,0.0,0.0,0.0,0.0,0.0,0.0,0.0,0.0,0.0,0.0,0.0,0.0,0.0,0.0,0.0,0.0,0.0,0.0,0.0,1.7113,1.9118,2.0051,2.1176,2.2536,2.1847,2.1644,2.2068,2.0082,1.8521,0.0,0.0,0.0,0.0,0.0,0.0,0.0,0.0,0.0,0.0,0.0,0.0,0.0,0.0,0.0,0.0,0.0,0.0,0.0,0.0,0.0,0.0,0.0,0.0,0.0,0.0,0.0,0.0,0.0,0.0,0.0,0.0,0.0,0.0,0.0,0.0,0.0,0.0,0.0,0.0,0.0,2.2145,2.1276,2.1132,2.1498,0.0,2.1305,2.0699,2.1908,2.4807,2.5423,2.0771,0.0,0.0,0.0,0.0,0.0,0.0,0.0,0.0,0.0,0.0,0.0,0.0,0.0,0.0,0.0,0.0,0.0,0.0,0.0,0.0,0.0,0.0,0.0,0.0,0.0,0.0,0.0,0.0,0.0,0.0,0.0,0.0,0.0,0.0,0.0,0.0,0.0,0.0,0.0,0.0,0.0,0.0,0.0,0.0,0.0,0.0,0.0,0.0,0.0,0.0,0.0,0.0,0.0,1.7254,1.8807,1.994,2.1075,2.2246,2.1614,2.1447,2.1742,1.9944,1.8325,0.0,0.0,0.0,0.0,0.0,0.0,0.0,0.0,0.0,0.0,0.0,0.0,0.0,0.0,0.0,0.0,0.0,0.0,0.0,0.0,0.0,0.0,0.0,0.0,0.0,0.0,0.0,0.0,1.4431,1.4602,1.461,0.0,0.0,0.0,0.0,0.0,0.0,0.0,0.0,0.0,0.0,2.3075,2.3403,2.4304,0.0,0.0,2.3344,2.2642,2.2396,2.3975,2.3871,1.9848,1.9813,0.0,0.0,0.0,0.0,0.0,0.0,0.0,0.0,0.0,0.0,0.0,0.0,0.0,0.0,0.0,0.0,0.0,0.0,0.0,0.0,0.0,0.0,0.0,0.0,0.0,0.0,0.0,0.0,0.0,0.0,0.0,0.0,0.0,0.0,0.0,0.0,0.0,0.0,0.0,0.0,0.0,0.0,0.0,0.0,0.0,0.0,0.0,0.0,0.0,0.0,0.0,0.0,1.7304,1.8581,1.9857,2.1044,2.2167,2.1561,2.147,2.1899,2.0339,1.8819,0.0,0.0,0.0,0.0,0.0,0.0,0.0,0.0,0.0,0.0,0.0,0.0,0.0,0.0,0.0,0.0,0.0,0.0,0.0,0.0,0.0,0.0,0.0,0.0,0.0,0.0,0.0,0.0,1.4886,1.5097,1.5861,0.0,0.0,0.0,0.0,0.0,0.0,0.0,0.0,0.0,0.0,2.4079,2.4513,2.5427,2.569,2.4681,2.3802,2.305,2.2604,2.3224,2.2836,2.0207,0.0,0.0,0.0,0.0,0.0,0.0,0.0,0.0,0.0,0.0,0.0,0.0,0.0,0.0,0.0,0.0,0.0,0.0,0.0,0.0,0.0,0.0,0.0,0.0,0.0,0.0,0.0,1.5362,0.0,0.0,1.6316,0.0,0.0,0.0,0.0,0.0,0.0,0.0,0.0,0.0,0.0,0.0,0.0,0.0,0.0,0.0,0.0,0.0,0.0,0.0,0.0,0.0,0.0,1.7339,1.8591,1.9848,2.112,2.2331,2.1594,2.1804,2.299,2.1787,2.0569,1.9511,0.0,0.0,0.0,0.0,0.0,0.0,0.0,0.0,0.0,0.0,0.0,0.0,0.0,0.0,0.0,0.0,0.0,0.0,0.0,0.0,0.0,0.0,0.0,0.0,0.0,0.0,1.509,1.4444,1.4783,0.0,0.0,0.0,0.0,0.0,0.0,0.0,0.0,0.0,1.9798,2.3108,2.5159,2.4161,2.3559,2.3534,2.3998,2.223,2.1352,2.2852,2.3253,2.3255,0.0,0.0,0.0,0.0,0.0,0.0,0.0,0.0,0.0,0.0,0.0,0.0,0.0,0.0,0.0,0.0,0.0,0.0,0.0,0.0,0.0,0.0,0.0,0.0,0.0,0.0,0.0,1.6883,1.6915,0.0,0.0,0.0,0.0,0.0,0.0,0.0,0.0,0.0,0.0,0.0,1.9908,1.9793,0.0,0.0,0.0,0.0,0.0,0.0,0.0,0.0,0.0,0.0,0.0,0.0,1.7647,1.86,1.9559,2.0964,2.2732,2.1969,2.215,2.3392,2.2757,2.1493,1.9671,0.0,0.0,0.0,0.0,0.0,0.0,0.0,0.0,0.0,0.0,0.0,0.0,0.0,0.0,0.0,0.0,0.0,0.0,0.0,0.0,0.0,0.0,0.0,0.0,0.0,1.6053,0.0,0.0,0.0,0.0,0.0,0.0,0.0,0.0,0.0,0.0,0.0,1.9836,2.128,2.2585,2.3552,2.3941,2.4142,2.4424,0.0,0.0,0.0,0.0,0.0,0.0,0.0,0.0,0.0,0.0,0.0,0.0,0.0,0.0,2.142,1.8492,1.8318,1.868,1.8861,0.0,0.0,0.0,0.0,0.0,0.0,0.0,0.0,0.0,0.0,0.0,0.0,0.0,0.0,1.8184,1.8448,1.7866,0.0,0.0,0.0,0.0,0.0,0.0,0.0,0.0,2.0425,2.1533,2.2546,2.2407,2.251,0.0,2.101,1.8856,0.0,0.0,0.0,0.0,0.0,0.0,0.0,0.0,1.796,1.8519,1.9868,2.138,2.2969,2.2422,2.2691,2.3977,2.3543,2.2491,2.0837,1.8776,1.7131,0.0,0.0,0.0,0.0,0.0,0.0,0.0,0.0,0.0,0.0,0.0,0.0,0.0,0.0,0.0,0.0,0.0,0.0,0.0,0.0,0.0,0.0,0.0,1.6082,0.0,0.0,0.0,0.0,0.0,0.0,0.0,0.0,0.0,1.9812,2.0258,2.0957,2.215,2.2782,2.3188,2.3125,0.0,0.0,0.0,0.0,0.0,0.0,0.0,2.2526,2.2302,2.2996,2.3728,2.4216,2.5433,2.624,2.5882,0.0,0.0,2.1981,2.1773,2.2152,2.2017,2.2276,2.235,2.181,2.1875,2.1975,0.0,0.0,0.0,0.0,0.0,0.0,0.0,0.0,1.9489,1.961,0.0,1.9127,0.0,0.0,0.0,0.0,1.8361,1.9768,0.0,0.0,2.3375,2.4637,2.5128,2.4481,2.4149,2.412,2.2911,2.1724,2.059,1.7813,0.0,0.0,0.0,0.0,0.0,0.0,1.8323,1.8512,2.0601,2.228,2.3302,2.2943,2.3388,2.4746,2.4176,2.3556,2.2979,2.1097,1.939,1.7963,1.667,0.0,0.0,0.0,0.0,0.0,0.0,0.0,0.0,0.0,0.0,0.0,0.0,0.0,0.0,0.0,0.0,0.0,0.0,0.0,0.0,1.6665,0.0,0.0,0.0,0.0,0.0,0.0,0.0,0.0,0.0,0.0,2.0115,2.1858,2.3059,2.2396,0.0,0.0,0.0,0.0,2.2602,2.1211,2.0949,2.1228,2.1835,2.3327,2.4901,2.6294,0.0,0.0,2.7091,2.7524,2.7737,2.6393,2.8069,2.8708,2.6452,2.5576,2.5192,2.5057,2.5052,2.4826,2.4415,2.404,2.3679,2.2387,0.0,0.0,0.0,0.0,2.1362,2.1998,2.2842,2.2363,2.2107,2.1949,2.1563,0.0,0.0,0.0,0.0,0.0,0.0,2.2558,2.3924,2.4826,2.6132,2.7793,2.7833,2.8011,2.8263,2.6554,2.5042,2.3663,2.1497,1.9442,1.7533,0.0,0.0,0.0,0.0,1.9049,2.0508,2.111,2.2296,2.4208,2.3515,2.3761,2.5123,2.4596,2.4073,2.3577,2.2272,2.1075,1.9989,1.9225,0.0,0.0,0.0,0.0,0.0,0.0,0.0,0.0,0.0,0.0,0.0,0.0,0.0,0.0,0.0,0.0,0.0,0.0,0.0,1.6107,1.6965,1.7354,0.0,0.0,0.0,0.0,0.0,0.0,0.0,0.0,0.0,2.3568,2.233,2.1667,0.0,0.0,2.1167,2.0955,2.2339,2.365,2.4439,2.5362,0.0,2.7853,2.7488,2.7302,2.8097,2.969,3.0979,3.1295,3.2298,3.277,3.1744,3.2129,3.2185,3.1018,2.9928,2.9203,2.8973,2.864,2.8156,2.7549,2.6943,2.6662,2.6019,2.5468,2.3664,2.3068,2.3302,2.3302,2.4225,2.5599,2.4583,2.4597,2.5265,2.4373,2.3576,2.2834,2.2674,0.0,0.0,0.0,2.4896,2.6563,2.6967,2.8182,2.995,3.0213,3.0334,3.032,2.8833,2.7417,2.6137,2.3974,2.214,2.0541,0.0,0.0,1.8475,1.9264,2.0153,2.1079,2.1985,2.3106,2.4384,2.4232,2.4504,2.5264,2.4999,2.459,2.4085,2.3288,2.2392,2.139,2.0685,1.9675,0.0,0.0,0.0,0.0,0.0,0.0,0.0,0.0,0.0,0.0,0.0,1.6751,1.5008,0.0,0.0,0.0,1.6754,1.6585,1.6554,1.7242,0.0,0.0,0.0,0.0,0.0,0.0,0.0,2.0775,2.3344,2.5287,2.5466,2.374,2.2973,2.4301,2.3389,2.2701,2.2859,0.0,2.5609,2.6701,2.753,2.8491,2.975,2.991,3.0188,3.133,3.2809,3.3761,3.3838,3.4969,3.5442,3.4577,3.4446,3.4281,3.3158,3.2371,3.1707,3.1163,3.0505,2.9902,2.9457,2.8679,2.8176,2.8665,2.9235,2.5739,2.4551,2.493,2.494,2.6141,2.7994,2.6343,2.6984,2.9079,2.7212,2.6523,2.6767,2.6035,0.0,2.6084,2.6468,2.7493,2.9048,2.9404,3.0311,3.1705,3.1705,3.1452,3.0927,3.0003,2.8981,2.7928,2.5659,2.4554,2.4548,2.1561,1.9899,1.9668,2.1055,2.15,2.0924,2.3121,2.4299,2.4284,2.4969,2.5348,2.5312,2.5264,2.5011,2.453,2.3989,2.3288,2.2313,2.139,2.0665,2.0058,0.0,0.0,0.0,0.0,0.0,0.0,0.0,0.0,0.0,0.0,0.0,0.0,0.0,0.0,0.0,1.852,0.0,1.8188,1.7884,0.0,0.0,0.0,2.0979,2.2569,2.3909,2.4612,2.4434,0.0,0.0,2.6333,2.5894,2.6127,2.7855,2.7362,2.6704,2.6329,2.7204,2.8085,2.8315,2.846,2.8781,2.997,3.1433,3.3172,3.4811,3.6149,3.6017,3.5228,3.588,3.6187,3.4898,3.5163,3.5036,3.3483,3.3057,3.2874,3.1915,3.1099,3.042,3.0266,2.931,2.8591,2.8926,2.8794,2.8904,2.8208,2.7006,2.6996,2.7563,2.845,2.8367,2.8599,2.8892,2.8711,2.8422,2.8099,2.8293,2.8424,2.8456,2.861,2.9314,3.0355,3.0169,3.0617,3.1705,3.1705,3.1645,3.15,3.0853,3.0041,2.904,2.7696,2.6542,2.5639,2.4428,2.3467,2.2626,2.2037,2.2454,2.39,2.4141,2.4363,2.4657,2.5469,2.5709,2.5324,2.4915,2.4616,2.4472,2.3652,2.3083,2.283,2.2192,2.1469,2.0653,1.9623,0.0,0.0,0.0,0.0,0.0,0.0,0.0,0.0,0.0,1.8168,1.6258,0.0,1.794,0.0,1.9578,2.0935,2.1334,2.1713,0.0,0.0,2.3032,2.3506,2.3939,2.5813,2.6385,2.4612,2.6425,2.7983,2.8216,2.8054,2.8555,3.0287,2.8162,2.6464,2.6795,2.8728,3.027,3.0785,3.1838,3.3245,3.4057,3.4574,3.4857,3.5552,3.5439,3.5302,3.5691,3.5985,3.5747,3.4384,3.4469,3.4164,3.2838,3.2343,3.2177,3.1987,3.1354,3.0648,3.0279,2.9542,2.9085,3.0598,3.0697,3.1644,3.1284,3.0023,2.9642,3.0263,3.157,3.0954,3.0958,3.1433,3.0738,3.0237,2.9953,3.023,3.035,3.0398,3.0406,3.0722,3.124,3.0962,3.1149,3.1705,3.1705,3.1705,3.1693,3.1175,3.0517,2.967,2.8698,2.7827,2.7105,2.5997,2.549,2.5417,2.4068,2.3752,2.4477,2.4325,2.4589,2.5349,2.5613,2.5419,2.4741,2.4428,2.3978,2.3309,2.2541,2.2092,2.208,2.1612,2.1054,2.0543,2.0109,1.9537,0.0,0.0,0.0,0.0,0.0,0.0,0.0,0.0,0.0,0.0,0.0,1.9725,1.9724,2.1203,2.2389,2.2953,2.3164,2.3626,2.4506,2.5186,2.5895,2.6623,2.8125,2.8596,2.7315,2.8555,2.9667,2.999,3.0013,3.0422,3.1787,3.0514,2.9334,2.9134,3.0275,3.1352,3.1965,3.2897,3.4008,3.5256,3.5169,3.5121,3.5458,3.5273,3.5151,3.5379,3.5427,3.5078,3.414,3.4278,3.4135,3.2812,3.201,3.1565,3.1305,3.0534,3.0063,3.0457,2.9859,2.9301,3.2564,3.3089,3.3723,3.3657,3.3043,3.2373,3.3286,3.4985,3.3391,3.3396,3.4511,3.2551,3.1705,3.1705,3.1705,3.1705,3.1705,3.1705,3.1705,3.1705,3.1705,3.1705,3.1705,3.1705,3.1705,3.1693,3.1163,3.0639,3.0182,2.9207,2.8661,2.8471,2.6868,2.6591,2.7495,2.6308,2.5191,2.4142,2.4447,2.5028,2.5901,2.548,2.4848,2.3964,2.3782,2.3091,2.1753,2.117,2.0904,2.0879,2.045,2.0238,2.0361,2.0417,2.0103,0.0,1.9736,0.0,0.0,0.0,0.0,0.0,0.0,0.0,0.0,2.1428,2.2094,2.2972,2.321,2.3551,2.4175,2.4062,2.4624,2.6336,2.7142,2.8126,2.9566,3.0234,3.0612,3.0612,3.0612,3.08,3.1205,3.1395,3.1611,3.2162,3.2553,3.2257,3.1698,3.1594,3.2,3.2466,3.26,3.3209,3.3993,3.4312,3.4588,3.5043,3.5063,3.4952,3.4284,3.439,3.4378,3.3802,3.3939,3.3903,3.2821,3.1784,3.0997,3.0497,2.9577,2.9295,3.033,2.9934,2.9463,3.207,3.202,3.4206,3.4607,3.3868,3.4559,3.4357,3.366,3.4022,3.393,3.3466,3.2271,3.1705,3.1705,3.1705,3.1705,3.1705,3.1705,3.1705,3.1705,3.1705,3.1705,3.1705,3.1705,3.1705,3.1669,3.1175,3.0819,3.0754,2.9678,2.9039,2.8721,2.7957,2.7387,2.6992,0.0,0.0,0.0,2.6245,2.6199,2.5111,2.5032,2.4572,2.3541,2.2659,0.0,2.117,2.0646,2.0352,2.0352,2.0253,0.0,0.0,0.0,0.0,0.0,0.0,0.0,0.0,0.0,0.0,0.0,2.3703,2.3189,2.2262,2.2312,2.3261,2.5216,2.5483,2.6112,2.7591,2.8124,2.8512,2.8915,2.9522,3.0073,3.0409,3.0539,3.0612,3.0612,3.0612,3.0656,3.0772,3.0786,3.1018,3.1611,3.1816,3.177,3.1553,3.2353,3.2922,3.2643,3.2861,3.3108,3.2919,3.3732,3.4167,3.3993,3.3867,3.3402,3.2518,3.3056,3.3231,3.2272,3.2406,3.2537,3.173,3.0959,3.0231,2.9556,2.9663,2.9816,2.9507,2.9217,2.9125,3.3054,3.3178,3.5645,3.625,0.0,3.6183,3.5628,3.4416,3.4613,3.4272,3.3597,3.2539,3.207,3.2058,3.1837,3.1705,3.1705,3.1705,3.1705,3.1705,3.1705,3.1705,3.1705,3.1705,3.1705,3.1693,3.144,3.1175,3.0855,3.0338,2.973,2.9028,2.8527,2.8052,2.7666,2.7363,2.6861,2.6057,2.6069,2.5853,2.5465,2.5244,2.4548,2.3355,2.2781,0.0,0.0,0.0,0.0,0.0,0.0,0.0,0.0,2.1259,0.0,2.1911,2.1992,2.2575,2.3823,2.4108,2.4778,2.6042,2.6372,2.5962,2.4755,2.5244,2.6218,2.7638,2.7697,2.814,2.9465,2.9767,2.9939,3.0088,3.0379,3.0612,3.0612,3.0612,3.0612,3.0612,3.0612,3.0612,3.0612,3.0872,3.1148,3.1451,3.1785,3.1843,3.1611,3.2063,3.2353,3.2092,3.2585,3.2875,3.2658,3.2977,3.3267,3.2687,3.2498,3.2106,3.1221,3.1615,3.1864,3.1311,3.1579,3.1732,3.1217,3.0463,2.9774,2.951,2.9069,2.8765,2.8607,2.9043,2.9349,3.4314,3.4947,3.7096,3.7673,3.7204,3.7204,3.6603,3.5569,3.4907,0.0,0.0,3.3056,3.2635,3.2611,3.2154,3.1994,3.1994,3.1898,3.1805,3.1849,3.1753,3.1705,3.1705,3.1705,3.1705,3.1705,3.1705,3.1488,3.1067,3.097,3.0434,2.9599,2.9017,2.8632,2.8351,2.778,2.7162,2.6593,2.56,2.5341,2.5853,2.537,2.4498,2.3267,2.3157,2.2262,2.0573,2.0388,2.0394,2.0449,2.039,2.0655,2.1406,2.2025,2.2439,2.2574,2.3156,2.4264,2.6001,2.6263,2.7127,2.8979,2.9288,2.88,2.7485,2.8281,2.9102,2.974,2.9519,2.9691,3.0524,3.0341,3.031,3.0582,3.0612,3.0612,3.0612,3.0612,3.0612,3.0612,3.0612,3.0612,3.0612,3.0974,3.1409,3.1555,3.1886,3.2133,3.1656,3.1453,3.1409,3.1409,3.1903,3.2338,3.2353,3.2513,3.2237,3.1727,3.17,3.1438,3.0845,3.0786,3.0933,3.1023,3.1267,3.1358,3.1108,3.0293,2.9594,2.9725,2.8499,2.7452,2.8,2.8838,2.9317,3.4936,3.6057,3.7429,3.7673,3.7204,3.7204,3.6591,3.5557,3.4534,3.4054,3.3958,3.344,3.3176,3.3164,3.3092,3.3056,3.302,3.2587,3.2382,3.2358,3.1889,3.1705,3.1705,3.1705,3.1705,3.1705,3.1705,3.1681,3.1548,3.1139,3.0826,3.0543,2.9707,2.8796,2.7966,2.6983,2.6665,2.7007,2.6466,2.5812,2.5012,2.4566,2.4067,2.3413,2.2929,2.2341,2.1607,2.1145,2.1076,2.1453,2.1039,2.1623,2.3357,2.4402,2.5349,2.6206,2.7176,2.7999,2.8549,2.8864,2.9636,3.0962,3.1637,3.1188,2.9406,2.9378,2.9755,3.0394,3.0393,3.0436,3.0598,3.0538,3.0522,3.0582,3.0612,3.0612,3.0612,3.0612,3.0612,3.0612,3.0612,3.0612,3.0627,3.0714,3.0959,3.138,3.1569,3.1582,3.1438,3.1047,3.0772,3.0816,3.125,3.1582,3.1741,3.2133,3.2135,3.1642,3.1917,3.1787,3.0786,3.1322,3.1745,3.1469,3.1395,3.1391,3.1298,3.0432,2.9501,2.9013,2.8485,2.823,2.754,2.8053,2.843,3.4603,3.5443,3.7203,3.7841,3.7601,3.7312,3.6579,3.5629,3.5363,3.4943,3.4378,3.3921,3.3693,3.3669,3.3404,3.3284,3.3272,3.3044,3.2779,3.2503,3.2238,3.1994,3.1729,3.1705,3.1705,3.1705,3.1705,3.1705,3.1681,3.1452,3.1211,3.0819,2.9821,2.9102,2.86,2.7573,2.7183,2.7397,2.637,2.5719,2.5525,2.504,2.4541,2.4008,2.3741,2.3389,2.2904,2.2657,2.277,2.3246,2.3055,2.3709,2.5467,2.6043,2.6792,2.7779,2.852,2.9045,2.9296,3.0114,3.1016,3.1939,3.2307,3.2133,3.1279,3.0858,3.0771,3.1047,3.0816,3.0612,3.0612,3.0612,3.0612,3.0612,3.0612,3.0612,3.0612,3.0612,3.0612,3.0612,3.0612,3.0612,3.0612,3.0612,3.0685,3.0974,3.1018,3.1018,3.1018,3.0816,3.0698,3.1061,3.1596,3.1799,3.1598,3.1743,3.1685,3.1119,3.1264,3.1206,3.0685,3.1177,3.1264,3.109,3.1018,3.085,3.0604,3.0052,2.9355,2.8693,2.835,2.8013,2.7628,2.7691,2.7696,3.4825,3.5388,3.7203,3.7974,3.7926,3.7409,3.6723,3.6038,3.6278,3.5942,3.5172,3.4631,3.4282,3.4186,3.3801,3.3645,3.3621,3.3513,3.3176,3.2695,3.2551,3.2202,3.1765,3.1705,3.1705,3.1705,3.1705,3.1705,3.1705,3.1705,3.144,3.0898,3.0062,2.9544,2.928,2.8366,2.7858,2.7813,2.6418,2.5805,2.6069,2.5588,2.5095,2.4735,2.4699,2.4518,2.4145,2.4035,2.4262,2.4861,2.4825,2.5537,2.7224,2.7506,2.8088,2.9187,2.9733,3.014,3.0496,3.1469,3.2331,3.2869,3.2916,3.2948,3.2858,3.2338,3.1816,3.1526,3.1076,3.0786,3.0641,3.0612,3.0612,3.0612,3.0612,3.0612,3.0612,3.0612,3.0612,3.0612,3.0612,3.0612,3.0612,3.0612,3.0627,3.0627,3.0612,3.0612,3.0612,3.0612,3.08,3.1221,3.1758,3.1787,3.138,3.1308,3.1105,3.0656,3.0641,3.0685,3.0627,3.0612,3.0627,3.0656,3.0641,3.0414,2.9806,2.9637,2.9233,2.8487,2.8066,2.7868,2.7703,2.7482,2.7395,3.6611,3.7601,3.788,3.7974,3.7926,3.7421,3.7132,3.6964,3.6603,3.6374,3.6122,3.5701,3.5184,3.4739,3.4691,3.4631,3.4546,3.4138,3.3658,3.3188,3.2719,3.2214,3.1765,3.1705,3.1705,3.1705,3.1705,3.1705,3.1705,3.1705,3.1452,3.0927,3.0771,3.023,2.9364,2.8739,2.8438,2.8426,2.7306,2.6513,2.6081,2.5588,2.5288,2.524,2.5228,2.518,2.5095,2.4699,2.4921,2.5828,2.5492,2.6225,2.8217,2.8975,2.9942,3.1344,3.2013,3.266,3.3314,3.3844,3.4081,3.4206,3.4148,3.4167,3.4138,3.363,3.2774,3.1874,3.1496,3.1148,3.0699,3.0612,3.0612,3.0612,3.0612,3.0612,3.0612,3.0612,3.0612,3.0612,3.0612,3.0612,3.0612,3.0612,3.0612,3.0612,3.0612,3.0612,3.0612,3.0612,3.0612,3.0714,3.0801,3.083,3.0743,3.0699,3.0714,3.0627,3.0612,3.0612,3.0612,3.0612,3.0612,3.0612,3.0612,3.0357,2.9946,2.956,2.9139,2.826,2.7894,2.7842,2.7623,2.7403,2.7369,3.6514,3.7,3.7708,3.7974,3.7938,3.7745,3.7481,3.7168,3.6976,3.6531,3.5954,3.5701,3.5485,3.5231,3.4919,3.4775,3.4751,3.4546,3.4222,3.3717,3.32,3.2683,3.2178,3.1849,3.1705,3.1705,3.1705,3.1705,3.1705,3.1705,3.1597,3.1368,3.1091,3.0694,3.0194,2.9388,2.8979,2.8955,2.7894,2.7246,2.6983,2.6214,2.5769,2.5733,2.5468,2.5312,2.53,2.5048,2.546,2.6514,2.6409,2.734,2.9524,2.9903,3.0623,3.1916,3.2459,3.3129,3.4094,3.4094,3.4128,3.438,3.438,3.438,3.4414,3.4167,3.363,3.2788,3.1944,3.1264,3.0743,3.0612,3.0612,3.0612,3.0612,3.0612,3.0612,3.0612,3.0612,3.0612,3.0612,3.0612,3.0612,3.0612,3.0612,3.0612,3.0612,3.0612,3.0612,3.0612,3.0612,3.0612,3.0612,3.0612,3.0612,3.0612,3.0612,3.0612,3.0612,3.0612,3.0612,3.0612,3.0612,3.0612,3.0612,3.0538,3.0296,2.9853,2.939,2.8468,2.7577,2.739,2.7356,2.7335,2.7369,3.6731,3.6827,3.7655,3.7974,3.7974,3.7974,3.7769,3.7445,3.7409,3.6892,3.6074,3.5905,3.5737,3.5557,3.5064,3.4775,3.4775,3.4775,3.4414,3.3861,3.344,3.2923,3.2274,3.191,3.1705,3.1705,3.1705,3.1705,3.1705,3.1705,3.1705,3.1645,3.132,3.0951,3.0603,2.9845,2.9436,2.922,2.839,2.8005,2.7993,2.7103,2.6478,2.6298,2.5805,2.5528,2.5516,2.5372,2.5826,2.6926,2.7007,2.8046,3.0207,3.0405,3.1039,3.2352,3.281,3.3409,3.4346,3.4128,3.4094,3.4346,3.438,3.438,3.438,3.438,3.4124,3.3503,3.26,3.183,3.1221,3.0816,3.067,3.0785,3.0698,3.0612,3.0612,3.0612,3.0612,3.0612,3.0612,3.0612,3.0612,3.0612,3.0612,3.0612,3.0612,3.0612,3.0612,3.0612,3.0612,3.0612,3.0612,3.0612,3.0612,3.0612,3.0612,3.0612,3.0612,3.0612,3.0612,3.0612,3.0612,3.0612,3.0612,3.0447,3.019,2.9884,2.9747,2.898,2.8091,2.7323,2.7369,2.7335,2.7369,3.7933,3.7868,3.7974,3.7974,3.7974,3.7974,3.7962,3.7841,3.7866,3.7565,3.6928,3.6483,3.6062,3.5569,3.5052,3.4775,3.4775,3.4775,3.4342,3.3501,3.3332,3.2731,3.1777,3.1717,3.1705,3.1705,3.1705,3.1705,3.1705,3.1705,3.1705,3.1705,3.1645,3.1163,3.0374,3.0146,2.9809,2.9388,2.8799,2.8703,2.9003,2.8162,2.7342,2.6898,2.6358,2.6069,2.6021,2.5576,2.5863,2.6952,2.7083,2.8098,3.0132,3.0446,3.1315,3.2926,3.3528,3.3908,3.4312,3.4346,3.4346,3.438,3.438,3.438,3.438,3.438,3.4153,3.3576,3.3402,3.3009,3.2425,3.1438,3.0961,3.1235,3.0916,3.0699,3.0612,3.0612,3.0612,3.0612,3.0612,3.0612,3.0612,3.0612,3.0612,3.0612,3.0612,3.0612,3.0612,3.0612,3.0612,3.0612,3.0612,3.0612,3.0612,3.0612,3.0612,3.0612,3.0612,3.0612,3.0612,3.0612,3.0612,3.0612,3.0642,3.0447,3.0038,2.9884,2.9915,2.9359,2.8436,2.7829,2.7689,2.7436,2.7403,3.7974,3.7974,3.7974,3.7974,3.7974,3.7974,3.7793,3.7457,3.712,3.6675,3.6158,3.5629,3.528,3.5051,3.4871,3.4775,3.4775,3.4775,3.457,3.4198,3.3609,3.308,3.2741,3.2066,3.1705,3.1705,3.1705,3.1705,3.1705,3.1705,3.1705,3.1705,3.1705,3.1488,3.1139,3.0802,3.0482,3.0242,2.9472,2.9112,2.9232,2.8595,2.8126,2.7909,2.7054,2.6635,2.6585,2.6405,2.6846,2.7966,2.8014,2.8939,3.0753,3.1327,3.1943,3.2812,3.3269,3.3618,3.3991,3.4264,3.438,3.438,3.438,3.438,3.438,3.4414,3.4312,3.4066,3.3674,3.3518,3.3499,3.2571,3.1569,3.1047,3.109,3.1018,3.0714,3.0612,3.0612,3.0612,3.0612,3.0612,3.0612,3.0612,3.0612,3.0612,3.0612,3.0612,3.0612,3.0612,3.0612,3.0612,3.0612,3.0612,3.0612,3.0612,3.0612,3.0612,3.0612,3.0612,3.0612,3.0612,3.0612,3.0642,3.0642,3.0702,3.0342,2.987,2.9931,2.9532,2.8634,2.8124,2.8105,2.7656,2.749,3.7974,3.7974,3.7974,3.7974,3.7974,3.7974,3.7673,3.718,3.6807,3.6266,3.5641,3.5232,3.4943,3.4799,3.4775,3.4775,3.4775,3.4775,3.4691,3.4474,3.3849,3.3356,3.2959,3.2286,3.1841,3.1741,3.1705,3.1705,3.1705,3.1705,3.1705,3.1705,3.1705,3.1621,3.1404,3.0922,3.0687,3.0669,2.9677,2.9172,2.94,2.8871,2.851,2.8414,2.7774,2.7318,2.72,2.717,2.7619,2.8471,2.8795,2.9639,3.1153,3.1857,3.2336,3.2668,3.2952,3.3269,3.3583,3.3874,3.4094,3.4196,3.423,3.423,3.438,3.438,3.438,3.4312,3.4066,3.3983,3.392,3.3485,3.2687,3.1729,3.1714,3.1584,3.0988,3.0917,3.0785,3.0656,3.0612,3.0612,3.0612,3.0612,3.0612,3.0612,3.0612,3.0612,3.0612,3.0612,3.0612,3.0612,3.0612,3.0612,3.0612,3.0612,3.0612,3.0612,3.0612,3.0612,3.0612,3.0612,3.0612,3.0642,3.0702,3.0821,3.0598,3.0054,2.9718,2.9518,2.8839,2.8189,2.8006,2.7743,2.759,3.7974,3.7974,3.7974,3.7974,3.7974,3.7974,3.7673,3.718,3.7144,3.6531,3.5581,3.5557,3.5207,3.4847,3.4775,3.4775,3.4775,3.4775,3.4558,3.4138,3.3994,3.3501,3.2731,3.2587,3.2226,3.1801,3.1729,3.1705,3.1705,3.1705,3.1705,3.1705,3.1705,3.1512,3.097,3.0633,3.0482,3.0543,2.9508,2.916,2.9809,2.9039,2.851,2.851,2.8454,2.8252,2.7779,2.7815,2.8161,2.8707,2.933,3.0144,3.1284,3.1884,3.2336,3.261,3.2704,3.2917,3.3234,3.3374,3.3632,3.3805,3.3839,3.4059,3.4346,3.438,3.438,3.4366,3.4356,3.4182,3.379,3.3964,3.3906,3.3503,3.2745,3.2237,3.1625,3.1437,3.125,3.0743,3.0612,3.0612,3.0612,3.0612,3.0612,3.0612,3.0612,3.0612,3.0612,3.0612,3.0612,3.0612,3.0612,3.0612,3.0612,3.0612,3.0612,3.0612,3.0612,3.0612,3.0612,3.0612,3.0612,3.0642,3.0791,3.091,3.0984,3.0478,3.0009,2.9656,2.8917,2.8222,2.7927,2.7696,2.7556,3.7974,3.7974,3.7974,3.7974,3.7974,3.7974,3.7481,3.6735,3.7024,3.6398,3.5316,3.5411,3.5279,3.4871,3.4775,3.4775,3.4775,3.4775,3.4739,3.4486,3.4162,3.3838,3.349,3.3188,3.2755,3.225,3.1886,3.1705,3.1705,3.1705,3.1705,3.1705,3.1705,3.1621,3.144,3.1296,3.1332,3.124,3.023,2.9797,2.9977,2.9051,2.8522,2.855,2.8882,2.902,2.8899,2.8881,2.9214,2.9741,3.0361,3.1053,3.1789,3.211,3.2241,3.2386,3.2574,3.2739,3.2917,3.3339,3.3632,3.3805,3.4025,3.423,3.438,3.438,3.438,3.438,3.4414,3.4283,3.4211,3.4269,3.3978,3.2948,3.3006,3.273,3.1729,3.1148,3.0845,3.067,3.0612,3.0612,3.0612,3.0612,3.0612,3.0612,3.0612,3.0612,3.0612,3.0612,3.0612,3.0612,3.0612,3.0612,3.0612,3.0642,3.0628,3.0642,3.0612,3.0612,3.0612,3.0612,3.0612,3.0702,3.0851,3.0969,3.1073,3.0658,3.007,2.9625,2.898,2.8436,2.7966,2.7663,2.7456,3.7974,3.7974,3.7974,3.7974,3.7974,3.7974,3.7372,3.6531,3.6747,3.6098,3.5051,3.5111,3.5148,3.4823,3.4775,3.4775,3.4775,3.4775,3.4775,3.4739,3.4474,3.4198,3.391,3.3296,3.2707,3.2226,3.1874,3.1705,3.1705,3.1705,3.1705,3.1705,3.1705,3.1705,3.1681,3.1512,3.1416,3.1259,3.0368,2.9785,2.9629,2.8943,2.851,2.859,2.9079,2.938,2.9419,2.9806,3.0241,3.0671,3.1233,3.1776,3.2169,3.2205,3.2205,3.2241,3.2372,3.2503,3.2574,3.2895,3.3283,3.3409,3.377,3.4059,3.4162,3.4264,3.438,3.438,3.438,3.438,3.438,3.438,3.4008,3.3354,3.3601,3.3224,3.2092,3.109,3.0816,3.08,3.0772,3.0743,3.0843,3.0685,3.0627,3.0612,3.0612,3.0612,3.0612,3.0612,3.0612,3.0612,3.0612,3.0612,3.0612,3.0628,3.0657,3.0657,3.0642,3.0612,3.0612,3.0612,3.0612,3.0791,3.094,3.1014,3.1073,3.0146,2.9421,2.9139,2.8807,2.8026,2.739,2.739,2.7214,3.7974,3.7974,3.7974,3.7974,3.7962,3.7979,3.7312,3.6507,3.6435,3.5857,3.4992,3.498,3.4871,3.4799,3.4775,3.4775,3.4775,3.4775,3.4775,3.4775,3.4679,3.4462,3.3922,3.3152,3.2466,3.197,3.1777,3.1717,3.1705,3.1705,3.1705,3.1705,3.1705,3.1705,3.1645,3.1223,3.1011,3.0874,2.9929,2.9448,2.9328,2.8799,2.851,2.855,2.9157,2.9535,2.9678,3.0558,3.1233,3.1344,3.1827,3.2132,3.2169,3.2205,3.2205,3.2205,3.2205,3.2241,3.2205,3.2372,3.2516,3.281,3.3234,3.3444,3.3839,3.4196,3.438,3.438,3.438,3.438,3.438,3.438,3.4356,3.4385,3.4167,3.3616,3.2687,3.1496,3.1192,3.1366,3.109,3.0888,3.1395,3.0974,3.0772,3.0612,3.0612,3.0612,3.0612,3.0612,3.0612,3.0612,3.0642,3.0672,3.0672,3.0791,3.0851,3.0821,3.0791,3.0732,3.0672,3.0642,3.0612,3.0791,3.094,3.1014,3.0732,2.9856,2.9107,2.8712,2.8111,2.7302,2.7024,2.7011,2.7079,3.7974,3.7974,3.7974,3.7974,3.7914,3.7577,3.7036,3.6447,3.6398,3.5785,3.5015,3.5195,3.5148,3.4811,3.4775,3.4775,3.4775,3.4775,3.4775,3.4775,3.4775,3.4474,3.397,3.3392,3.2791,3.2298,3.191,3.1717,3.1705,3.1717,3.1717,3.1705,3.1705,3.1705,3.1669,3.1548,3.1284,3.0855,3.0254,2.9665,2.9256,2.8811,2.8522,2.859,2.9496,3.0024,3.0177,3.1283,3.1936,3.1936,3.2059,3.2205,3.2205,3.2205,3.2205,3.2205,3.2205,3.2205,3.2241,3.2408,3.2596,3.2739,3.3234,3.3701,3.377,3.4162,3.438,3.438,3.438,3.438,3.438,3.438,3.438,3.4356,3.4095,3.3659,3.3198,3.2542,3.2092,3.2176,3.2077,3.1859,3.1642,3.138,3.1076,3.0772,3.0627,3.0612,3.0612,3.0612,3.0612,3.0642,3.0672,3.0732,3.0791,3.0955,3.1014,3.1014,3.0984,3.0925,3.0806,3.0702,3.0672,3.0702,3.0821,3.094,3.0433,2.9732,2.9093,2.8409,2.7815,2.7235,2.6909,2.6773,2.6943,3.7974,3.7974,3.7974,3.7974,3.7914,3.7421,3.6892,3.6423,3.6146,3.5629,3.4979,3.5099,3.5112,3.4799,3.4775,3.4775,3.4775,3.4775,3.4775,3.4775,3.4775,3.4474,3.3982,3.3525,3.3128,3.2779,3.209,3.1853,3.1937,3.1837,3.1717,3.1705,3.1705,3.1705,3.1705,3.1693,3.1452,3.097,3.053,3.0074,2.9328,2.9015,2.8727,2.8809,2.9639,3.0469,3.1097,3.1827,3.2205,3.2169,3.2205,3.2205,3.2205,3.2205,3.2205,3.2205,3.2205,3.2205,3.2205,3.2372,3.2467,3.261,3.3178,3.3528,3.3701,3.4059,3.438,3.438,3.438,3.438,3.438,3.438,3.438,3.437,3.408,3.3761,3.3547,3.2875,3.2701,3.2759,3.2672,3.2527,3.2266,3.1903,3.1409,3.1032,3.0727,3.0685,3.0612,3.0612,3.0612,3.0642,3.0672,3.0732,3.0851,3.0984,3.1132,3.1146,3.1161,3.1102,3.0895,3.0762,3.0762,3.0732,3.0762,3.0672,3.0221,2.967,2.8921,2.8279,2.7729,2.7222,2.6807,2.6636,2.6773,3.7974,3.7974,3.7974,3.7974,3.789,3.7409,3.6892,3.6374,3.5893,3.5352,3.4883,3.4775,3.4823,3.4775,3.4775,3.4775,3.4775,3.4775,3.4775,3.4775,3.4739,3.4534,3.415,3.3705,3.338,3.3116,3.2238,3.2226,3.2358,3.2058,3.1849,3.1837,3.1801,3.1705,3.1705,3.1705,3.1416,3.1019,3.0874,3.0254,2.9496,2.9208,2.8967,2.8718,2.9484,3.0671,3.1519,3.2059,3.2059,3.2205,3.2205,3.2205,3.2205,3.2205,3.2205,3.2205,3.2241,3.2314,3.2277,3.2386,3.2422,3.2566,3.3072,3.3339,3.3548,3.4011,3.438,3.438,3.438,3.438,3.438,3.438,3.438,3.4366,3.4337,3.4109,3.363,3.3064,3.2933,3.346,3.305,3.3079,3.2962,3.2542,3.1685,3.1322,3.1018,3.0829,3.0714,3.0612,3.0612,3.0612,3.0672,3.0717,3.0881,3.1043,3.1146,3.1263,3.1292,3.1249,3.094,3.0821,3.0851,3.0851,3.0762,3.0612,3.0326,2.967,2.8889,2.8149,2.7597,2.7053,2.6568,2.6568,2.6624,3.7974,3.7974,3.7974,3.7974,3.789,3.7421,3.6892,3.6374,3.5845,3.528,3.4907,3.4775,3.4775,3.4775,3.4775,3.4775,3.4775,3.4775,3.4775,3.4775,3.4775,3.4727,3.4486,3.4114,3.3693,3.3356,3.3104,3.3008,3.2971,3.2623,3.2322,3.2286,3.197,3.1717,3.1753,3.1717,3.1452,3.1019,3.0891,3.0398,2.9617,2.9388,2.9124,2.8738,2.9275,3.0177,3.1158,3.1431,3.1666,3.2059,3.2205,3.2205,3.2205,3.2205,3.2205,3.2277,3.2467,3.2574,3.2646,3.286,3.3037,3.3037,3.3353,3.3701,3.3736,3.4094,3.438,3.438,3.438,3.438,3.438,3.438,3.438,3.438,3.4414,3.4356,3.4211,3.4051,3.4008,3.4066,3.4022,3.3877,3.3576,3.3344,3.2542,3.1756,3.1337,3.1076,3.0903,3.0699,3.0612,3.0612,3.0702,3.0791,3.0969,3.1132,3.1205,3.1292,3.1366,3.1336,3.1029,3.0866,3.091,3.0821,3.0702,3.0507,3.0357,2.987,2.9156,2.8325,2.7584,2.7209,2.6884,2.6714,2.6555,3.7974,3.7974,3.7974,3.7974,3.7841,3.7156,3.6663,3.6278,3.5569,3.5051,3.4823,3.4775,3.4775,3.4775,3.4775,3.4775,3.4775,3.4775,3.4775,3.4775,3.4775,3.4775,3.4751,3.4534,3.4186,3.3945,3.3464,3.3416,3.344,3.3164,3.2863,3.2827,3.231,3.213,3.203,3.1849,3.1597,3.138,3.1284,3.0831,3.017,3.0025,2.9811,2.9346,2.945,2.9986,3.1071,3.122,3.1579,3.2009,3.2205,3.2205,3.2205,3.2205,3.2264,3.2431,3.2574,3.2846,3.2988,3.3164,3.3269,3.3304,3.3632,3.377,3.3908,3.4162,3.438,3.438,3.438,3.438,3.438,3.438,3.438,3.438,3.438,3.438,3.438,3.438,3.438,3.438,3.4356,3.4211,3.4008,3.3688,3.3358,3.2513,3.1524,3.1279,3.1134,3.0946,3.067,3.0642,3.0732,3.0866,3.1073,3.122,3.1292,3.1336,3.1366,3.1278,3.1073,3.0999,3.0955,3.0851,3.0702,3.0612,3.0387,2.9901,2.9515,2.8967,2.8357,2.7749,2.7297,2.7095,2.6871,3.7974,3.7974,3.7974,3.7974,3.7817,3.6964,3.6519,3.6254,3.5376,3.4943,3.4775,3.4775,3.4775,3.4775,3.4775,3.4775,3.4775,3.4775,3.4775,3.4775,3.4775,3.4775,3.4763,3.4715,3.4679,3.4655,3.4054,3.3885,3.3958,3.3681,3.3404,3.3296,3.2755,3.2442,3.2346,3.2006,3.1681,3.1621,3.1609,3.1356,3.0886,3.0778,3.0507,3.0041,2.9601,2.9981,3.0839,3.1125,3.1394,3.2132,3.2205,3.2205,3.2205,3.2205,3.2336,3.2668,3.2775,3.3023,3.3339,3.3444,3.3563,3.3479,3.3736,3.3874,3.4025,3.4196,3.4346,3.438,3.438,3.438,3.438,3.438,3.438,3.438,3.438,3.438,3.438,3.438,3.438,3.438,3.438,3.4327,3.4124,3.3848,3.3587,3.318,3.2208,3.1437,3.1322,3.1076,3.0772,3.0642,3.0732,3.094,3.1146,3.1278,3.1351,3.1336,3.1336,3.1249,3.1146,3.119,3.1117,3.0881,3.0732,3.0612,3.0477,3.0129,2.9777,2.9515,2.903,2.8293,2.7835,2.7504,2.7162,3.7974,3.7974,3.7974,3.7974,3.7878,3.73,3.6747,3.6338,3.5677,3.5183,3.4799,3.4775,3.4775,3.4775,3.4775,3.4775,3.4775,3.4775,3.4775,3.4775,3.4775,3.4775,3.4775,3.4775,3.4775,3.4763,3.4535,3.4523,3.4438,3.415,3.385,3.3658,3.2996,3.2563,3.237,3.203,3.1705,3.1705,3.1705,3.144,3.1127,3.0898,3.0724,3.0191,2.9711,3.0062,3.0713,3.0765,3.0972,3.2059,3.2169,3.2205,3.2241,3.2241,3.2408,3.2739,3.3058,3.3339,3.3701,3.3991,3.4162,3.423,3.423,3.423,3.4312,3.4346,3.438,3.438,3.438,3.438,3.438,3.438,3.438,3.438,3.438,3.438,3.438,3.438,3.438,3.438,3.438,3.4366,3.4225,3.3964,3.3616,3.3166,3.2338,3.1656,3.1322,3.1032,3.0714,3.0657,3.0732,3.0969,3.1205,3.1366,3.1424,3.1307,3.1278,3.1249,3.122,3.1336,3.1263,3.1014,3.0762,3.0582,3.0417,3.0266,2.967,2.9125,2.8903,2.8776,2.7999,2.7317,2.7183,3.7974,3.795,3.7697,3.7577,3.7433,3.6699,3.6242,3.5942,3.5437,3.5064,3.4835,3.4775,3.4775,3.4775,3.4775,3.4775,3.4775,3.4775,3.4775,3.4775,3.4775,3.4775,3.4775,3.4775,3.4775,3.4775,3.4775,3.4775,3.4751,3.4534,3.4222,3.385,3.3248,3.2791,3.243,3.1961,3.1753,3.1705,3.1693,3.1597,3.1308,3.1103,3.0766,3.0446,3.0061,3.0225,3.0784,3.0919,3.1197,3.1981,3.2205,3.23,3.2408,3.2516,3.2646,3.2988,3.3339,3.3701,3.4025,3.4312,3.438,3.438,3.438,3.438,3.438,3.438,3.438,3.438,3.438,3.438,3.438,3.438,3.438,3.438,3.438,3.438,3.438,3.438,3.438,3.438,3.438,3.4366,3.4351,3.408,3.3659,3.3079,3.2396,3.1859,3.1351,3.1061,3.0756,3.1037,3.1083,3.1058,3.1308,3.1395,3.1424,3.1336,3.1278,3.1234,3.1234,3.1351,3.1278,3.1117,3.0866,3.0507,3.0538,3.0417,2.9577,2.8903,2.9062,2.8903,2.7835,2.7149,2.7095,3.7974,3.7938,3.7529,3.7288,3.7048,3.6194,3.5749,3.5521,3.5027,3.4847,3.4775,3.4775,3.4775,3.4775,3.4775,3.4775,3.4775,3.4775,3.4775,3.4775,3.4775,3.4775,3.4775,3.4775,3.4775,3.4775,3.4775,3.4775,3.4739,3.457,3.4378,3.3898,3.3477,3.2959,3.2454,3.1994,3.1789,3.1705,3.1705,3.1705,3.1597,3.132,3.1079,3.1019,3.0518,3.065,3.1476,3.12,3.1561,3.2098,3.235,3.2336,3.2632,3.2775,3.2988,3.3339,3.3667,3.3991,3.4264,3.438,3.438,3.438,3.438,3.438,3.438,3.438,3.438,3.438,3.438,3.438,3.438,3.438,3.438,3.438,3.438,3.438,3.438,3.438,3.438,3.438,3.438,3.438,3.4366,3.3964,3.3514,3.2904,3.2222,3.17,3.1264,3.1177,3.1077,3.1447,3.1539,3.1338,3.1383,3.1499,3.1439,3.1322,3.1322,3.1366,3.1322,3.1351,3.1249,3.1132,3.0672,3.0387,3.0477,3.0401,2.9608,2.9188,2.9421,2.8871,2.7517,2.7129,2.7196,3.7974,3.7974,3.7902,3.7625,3.7108,3.6483,3.6002,3.5545,3.4991,3.4775,3.4775,3.4775,3.4775,3.4775,3.4775,3.4775,3.4775,3.4775,3.4775,3.4775,3.4775,3.4775,3.4775,3.4775,3.4775,3.4775,3.4775,3.4775,3.4763,3.4438,3.415,3.3849,3.3282,3.2563,3.2569,3.2175,3.1729,3.1729,3.1729,3.1705,3.1693,3.1609,3.1573,3.1428,3.1202,3.1259,3.2016,3.166,3.1707,3.2637,3.2413,3.24,3.2668,3.3058,3.3374,3.3632,3.3805,3.3991,3.4312,3.438,3.438,3.438,3.438,3.438,3.438,3.438,3.438,3.438,3.438,3.438,3.438,3.438,3.438,3.438,3.438,3.438,3.438,3.438,3.438,3.438,3.438,3.438,3.4366,3.3862,3.3311,3.2687,3.2106,3.1656,3.1351,3.1395,3.1293,3.1635,3.2024,3.1869,3.1782,3.1857,3.1722,3.1514,3.1514,3.1544,3.153,3.153,3.1309,3.11,3.0667,3.0358,3.0392,3.0148,2.9533,2.9156,2.8967,2.8097,2.6952,2.6964,2.7258,3.7974,3.7926,3.7336,3.6964,3.6651,3.5869,3.5388,3.516,3.4883,3.4775,3.4775,3.4775,3.4775,3.4775,3.4775,3.4775,3.4775,3.4775,3.4775,3.4775,3.4775,3.4775,3.4775,3.4775,3.4775,3.4775,3.4823,3.492,3.4872,3.4763,3.4461,3.382,3.3615,3.3378,3.2965,3.2699,3.2608,3.2479,3.2176,3.1817,3.1761,3.1705,3.1705,3.1705,3.1452,3.1761,3.1951,3.1922,3.1785,3.2435,3.2209,3.2494,3.2917,3.3234,3.3528,3.4094,3.4162,3.423,3.438,3.438,3.438,3.438,3.438,3.438,3.438,3.438,3.438,3.438,3.438,3.438,3.438,3.438,3.438,3.438,3.438,3.438,3.438,3.438,3.438,3.438,3.438,3.438,3.438,3.4153,3.3688,3.3184,3.2774,3.2498,3.2193,3.2046,3.1888,3.1733,3.2139,3.2429,3.2389,3.2407,3.2258,3.2065,3.1916,3.1946,3.1857,3.1752,3.1632,3.1629,3.1503,3.1145,3.0623,3.0041,2.9592,2.8949,2.8312,2.776,2.7223,2.7069,2.7319,3.7866,3.7902,3.712,3.6591,3.6158,3.5485,3.5088,3.4775,3.4775,3.4775,3.4775,3.4775,3.4775,3.4775,3.4775,3.4775,3.4775,3.4775,3.4775,3.4775,3.4775,3.4775,3.4775,3.4775,3.4775,3.4763,3.4775,3.492,3.5126,3.515,3.4748,3.3908,3.4052,3.3912,3.3542,3.321,3.3055,3.2779,3.2316,3.1994,3.1837,3.1805,3.1749,3.1749,3.1745,3.1906,3.2065,3.1946,3.1997,3.2381,3.2217,3.2459,3.3114,3.3304,3.3667,3.4128,3.4346,3.4346,3.438,3.438,3.438,3.438,3.438,3.438,3.438,3.438,3.438,3.438,3.438,3.438,3.438,3.438,3.438,3.438,3.438,3.438,3.438,3.438,3.438,3.438,3.438,3.438,3.438,3.438,3.4095,3.3634,3.3387,3.3209,3.2948,3.2626,3.269,3.2506,3.2443,3.2882,3.3066,3.2983,3.2839,3.2616,3.2495,3.2374,3.2283,3.225,3.2185,3.2211,3.2174,3.1674,3.1002,3.0317,2.966,2.9118,2.8575,2.8239,2.7847,2.7645,2.7394,3.7541,3.7974,3.7866,3.6976,3.5749,3.6134,3.5689,3.4787,3.4775,3.4775,3.4775,3.4775,3.4775,3.4775,3.4775,3.4775,3.4775,3.4775,3.4775,3.4775,3.4775,3.4775,3.4775,3.4775,3.4751,3.4775,3.4799,3.5017,3.5211,3.5488,3.5192,3.4775,3.46,3.417,3.3871,3.3687,3.3159,3.2825,3.243,3.2225,3.2069,3.1981,3.1893,3.1849,3.1937,3.2239,3.2814,3.2353,3.2386,3.2935,3.2505,3.2583,3.3296,3.3396,3.375,3.4196,3.4545,3.4516,3.4457,3.438,3.438,3.438,3.438,3.438,3.438,3.438,3.438,3.438,3.438,3.438,3.438,3.438,3.438,3.438,3.438,3.438,3.438,3.438,3.438,3.438,3.438,3.438,3.438,3.438,3.4312,3.3881,3.3518,3.3358,3.3256,3.305,3.3467,3.3445,3.3054,3.324,3.3723,3.3615,3.3265,3.31,3.2992,3.2853,3.2727,3.2723,3.2703,3.2518,3.2382,3.1904,3.1565,3.1259,3.0681,2.959,2.8889,2.8569,2.8403,2.8269,2.7908,3.712,3.7024,3.7024,3.6663,3.6074,3.5629,3.5208,3.4823,3.4775,3.4775,3.4775,3.4775,3.4775,3.4775,3.4775,3.4775,3.4775,3.4775,3.4775,3.4775,3.4775,3.4775,3.4775,3.4727,3.4643,3.4523,3.4727,3.4944,3.4987,3.5508,3.5856,3.5618,3.5298,3.5146,3.4823,3.4276,3.364,3.2968,3.2679,3.2475,3.23,3.2257,3.2213,3.2157,3.2169,3.2344,3.2537,3.2461,3.2759,3.2984,3.2825,3.3199,3.3702,3.3755,3.3982,3.4472,3.4806,3.482,3.453,3.4424,3.438,3.438,3.438,3.438,3.438,3.438,3.438,3.438,3.4443,3.4501,3.438,3.438,3.438,3.438,3.438,3.438,3.438,3.438,3.438,3.438,3.438,3.438,3.438,3.438,3.4298,3.4109,3.3779,3.3503,3.346,3.3431,3.374,3.4024,3.3678,3.3696,3.4167,3.3956,3.3608,3.3561,3.3498,3.3401,3.3273,3.3223,3.3184,3.291,3.273,3.2452,3.2306,3.2352,3.1542,3.0046,2.9301,2.8934,2.8877,2.8862,2.8536,3.7072,3.6819,3.6374,3.6074,3.5857,3.5316,3.4968,3.4787,3.4775,3.4775,3.4775,3.4775,3.4775,3.4775,3.4775,3.4775,3.4775,3.4775,3.4775,3.4775,3.4775,3.4775,3.4775,3.4739,3.4643,3.4414,3.4691,3.5004,3.5155,3.5616,3.5963,3.6143,3.6203,3.5915,3.5649,3.5006,3.4207,3.3344,3.294,3.2723,3.2519,3.2475,3.2431,3.2388,3.2431,3.2506,3.2575,3.2589,3.2918,3.3271,3.346,3.3779,3.424,3.4583,3.4643,3.4987,3.5285,3.5386,3.5067,3.4559,3.4424,3.438,3.438,3.438,3.438,3.438,3.438,3.4443,3.4545,3.4646,3.4574,3.4588,3.4559,3.4559,3.4395,3.438,3.438,3.438,3.438,3.438,3.438,3.4395,3.438,3.438,3.437,3.4283,3.4138,3.392,3.3891,3.3862,3.3877,3.4118,3.4166,3.4316,3.4572,3.4226,3.3952,3.401,3.3944,3.3944,3.3846,3.375,3.3713,3.3614,3.3416,3.3083,3.2702,3.2303,3.1343,3.0207,2.9684,2.9271,2.9326,2.9302,2.9164,3.7445,3.7733,3.6266,3.5376,3.504,3.5351,3.5219,3.4799,3.4775,3.4775,3.4775,3.4775,3.4775,3.4775,3.4775,3.4775,3.4775,3.4775,3.4775,3.4775,3.4775,3.4775,3.4775,3.4751,3.4667,3.4751,3.4908,3.5174,3.5461,3.5655,3.5978,3.6275,3.6358,3.627,3.6207,3.5253,3.4198,3.3282,3.3113,3.2896,3.2766,3.2723,3.2636,3.2605,3.2649,3.2723,3.2717,3.2722,3.3115,3.3639,3.3834,3.436,3.5249,3.5386,3.5583,3.5998,3.6099,3.6171,3.6185,3.5096,3.4719,3.4704,3.4849,3.4719,3.4545,3.4516,3.4574,3.4748,3.5024,3.5024,3.4951,3.4922,3.4907,3.4878,3.4806,3.4791,3.4835,3.4849,3.4936,3.4762,3.4559,3.4409,3.4395,3.438,3.438,3.4399,3.4366,3.4356,3.4254,3.4211,3.4138,3.4182,3.4331,3.4409,3.4481,3.4448,3.4331,3.4356,3.4331,3.4249,3.4234,3.4153,3.4172,3.4182,3.3905,3.3433,3.2693,3.1983,3.1133,3.0422,3.001,2.9681,2.9767,2.9704,2.9503,3.6879,3.6374,3.5833,3.5316,3.4835,3.5016,3.4931,3.4799,3.4775,3.4775,3.4775,3.4775,3.4775,3.4775,3.4775,3.4775,3.4775,3.4775,3.4775,3.4775,3.4775,3.4775,3.4775,3.4739,3.4667,3.4547,3.4703,3.4968,3.5043,3.5519,3.5978,3.631,3.6392,3.6144,3.573,3.4994,3.4311,3.3684,3.3319,3.3025,3.2995,3.2964,3.2934,3.2847,3.2934,3.2952,3.2939,3.2939,3.3289,3.3897,3.4082,3.4733,3.5408,3.548,3.5636,3.6064,3.623,3.6399,3.6562,3.617,3.572,3.5662,3.5546,3.5372,3.514,3.5488,3.5415,3.5285,3.5648,3.5735,3.5836,3.5836,3.5836,3.5836,3.5793,3.5778,3.5807,3.5778,3.5749,3.5363,3.5072,3.4791,3.4675,3.4646,3.4617,3.4501,3.4486,3.4428,3.4341,3.4341,3.4312,3.4327,3.4385,3.4399,3.438,3.438,3.438,3.4385,3.4385,3.4356,3.4385,3.4264,3.4031,3.3742,3.3742,3.3687,3.2541,3.1599,3.123,3.0707,3.0139,2.983,2.9779,2.9767,2.9716,3.6519,3.5881,3.5689,3.5425,3.51,3.4907,3.4775,3.4775,3.4775,3.4775,3.4775,3.4775,3.4775,3.4775,3.4775,3.4775,3.4775,3.4775,3.4775,3.4775,3.4775,3.4775,3.4775,3.4751,3.4643,3.4511,3.4703,3.5029,3.5167,3.5616,3.6026,3.6323,3.6405,3.6254,3.5755,3.519,3.4311,3.3746,3.3332,3.342,3.3407,3.3395,3.3395,3.3332,3.3232,3.3081,3.3124,3.321,3.3356,3.3891,3.4345,3.4887,3.5159,3.5408,3.5497,3.5883,3.6354,3.6727,3.7212,3.7317,3.6983,3.6968,3.6635,3.6141,3.5807,3.5996,3.5967,3.5981,3.633,3.6373,3.6388,3.6446,3.6562,3.6548,3.6373,3.6359,3.633,3.6272,3.6228,3.5857,3.5625,3.5299,3.5053,3.4907,3.4878,3.4719,3.4574,3.4486,3.438,3.438,3.438,3.438,3.438,3.438,3.438,3.438,3.438,3.438,3.438,3.438,3.3928,3.3742,3.352,3.3297,3.3122,3.2769,3.1905,3.1169,3.0696,3.0381,3.0062,2.9856,2.9779,2.9792,2.9792,3.6386,3.629,3.5821,3.5593,3.5435,3.5016,3.4775,3.4775,3.4775,3.4775,3.4775,3.4775,3.4775,3.4775,3.4775,3.4823,3.4872,3.4823,3.4872,3.4872,3.4872,3.4872,3.4823,3.4763,3.4691,3.4727,3.486,3.509,3.5536,3.5775,3.6073,3.6323,3.6417,3.6191,3.573,3.5115,3.4286,3.3859,3.352,3.3558,3.3508,3.3646,3.3658,3.3571,3.3413,3.325,3.3212,3.3199,3.3564,3.3966,3.4345,3.4843,3.5238,3.5534,3.5561,3.5748,3.629,3.7017,3.7681,3.7665,3.7918,3.7649,3.7085,3.6577,3.6417,3.6548,3.6591,3.6649,3.6896,3.6751,3.6678,3.6896,3.7099,3.691,3.6649,3.6606,3.6577,3.6562,3.6533,3.6359,3.6214,3.5996,3.5836,3.5648,3.5183,3.4951,3.4762,3.4472,3.438,3.438,3.438,3.438,3.438,3.438,3.438,3.438,3.438,3.438,3.4332,3.4264,3.3776,3.3367,3.3332,3.3087,3.2448,3.1905,3.1355,3.0709,3.0075,2.9818,2.9856,3.002,3.0005,2.9842,2.9804,3.5966,3.5316,3.5521,3.5363,3.5015,3.4895,3.4775,3.4775,3.4775,3.4775,3.4775,3.4775,3.4775,3.4775,3.4775,3.4932,3.4981,3.5078,3.5066,3.5078,3.503,3.4932,3.4884,3.4823,3.4823,3.4823,3.4884,3.5078,3.556,3.5895,3.6168,3.6358,3.6417,3.604,3.5466,3.4901,3.455,3.4161,3.3759,3.352,3.3445,3.3458,3.3608,3.3658,3.3357,3.3257,3.342,3.325,3.3406,3.3454,3.4118,3.4592,3.4675,3.4744,3.4772,3.4855,3.5521,3.6306,3.7092,3.7285,3.7453,3.7886,3.7641,3.7476,3.7302,3.7222,3.7295,3.7346,3.7462,3.7404,3.7389,3.7535,3.7636,3.7491,3.7317,3.7317,3.7302,3.7288,3.7244,3.6997,3.6838,3.6635,3.6489,3.6011,3.5595,3.5305,3.4965,3.4646,3.438,3.438,3.438,3.438,3.438,3.438,3.438,3.438,3.438,3.438,3.4332,3.4147,3.3659,3.3332,3.3262,3.2791,3.2037,3.1526,3.1044,3.0406,2.9818,2.9779,2.9843,3.003,3.0181,3.0068,3.0018,3.5412,3.4859,3.5172,3.5124,3.4871,3.4932,3.4981,3.4932,3.4835,3.4872,3.4932,3.4823,3.4775,3.4775,3.4823,3.4884,3.5017,3.5126,3.5175,3.5175,3.5223,3.5175,3.5078,3.492,3.4884,3.4884,3.503,3.5175,3.5656,3.6086,3.6405,3.6405,3.6417,3.5981,3.5567,3.5303,3.5082,3.4618,3.4148,3.3558,3.3395,3.3407,3.3646,3.3746,3.3395,3.3395,3.3545,3.3219,3.3149,3.3124,3.3738,3.3865,3.3865,3.3907,3.423,3.4343,3.4814,3.5561,3.6201,3.6399,3.6713,3.7116,3.7553,3.7443,3.7532,3.7526,3.7699,3.7796,3.8014,3.8159,3.8173,3.8188,3.8188,3.8159,3.8159,3.8159,3.8159,3.8144,3.7941,3.7665,3.7447,3.7244,3.6881,3.6373,3.5988,3.5735,3.5328,3.482,3.4559,3.438,3.438,3.438,3.438,3.438,3.438,3.4409,3.4375,3.4375,3.438,3.4113,3.3555,3.3171,3.2974,3.234,3.1526,3.1158,3.0887,3.0292,2.9779,2.9842,3.0005,3.0244,3.0444,3.0457,3.0457,3.4787,3.4775,3.4775,3.4799,3.4823,3.503,3.5175,3.5223,3.4969,3.4981,3.5175,3.4969,3.492,3.4969,3.4981,3.503,3.5175,3.532,3.538,3.5271,3.538,3.5428,3.532,3.5163,3.5126,3.5175,3.5271,3.5368,3.5716,3.6133,3.6417,3.6417,3.6417,3.6191,3.5881,3.5533,3.5282,3.4944,3.4474,3.396,3.396,3.396,3.3972,3.3997,3.3621,3.3257,3.3269,3.3181,3.3124,3.3124,3.3124,3.321,3.3197,3.324,3.3654,3.3894,3.4217,3.4731,3.5359,3.5722,3.5909,3.6227,3.6503,3.7127,3.761,3.7838,3.7968,3.8028,3.8173,3.8202,3.8202,3.8202,3.8202,3.8202,3.8202,3.8202,3.8202,3.8202,3.8115,3.7926,3.7883,3.7694,3.7593,3.7099,3.6635,3.6315,3.5851,3.5256,3.5009,3.4791,3.4506,3.4554,3.4661,3.4661,3.4486,3.4467,3.4399,3.4385,3.4351,3.3704,3.2902,3.2726,3.2709,3.2008,3.1322,3.1042,3.0713,3.0367,3.0218,3.0244,3.0394,3.0545,3.0683,3.0846,3.1035,3.4775,3.4775,3.4775,3.4775,3.4823,3.4884,3.5175,3.5476,3.5223,3.5259,3.5464,3.5416,3.538,3.5332,3.5332,3.5428,3.562,3.562,3.5764,3.5764,3.5777,3.5668,3.5608,3.5464,3.5428,3.5476,3.5524,3.562,3.5955,3.6228,3.6417,3.6417,3.6405,3.6292,3.5918,3.5583,3.5445,3.5194,3.4926,3.4625,3.4613,3.4625,3.4605,3.4625,3.4349,3.3985,3.3834,3.3483,3.33,3.3124,3.3124,3.3124,3.3124,3.3124,3.321,3.3368,3.3526,3.3966,3.4524,3.5087,3.5467,3.6346,3.7,3.7567,3.7962,3.8127,3.8165,3.8165,3.8202,3.8202,3.8202,3.8202,3.8202,3.8202,3.8202,3.8202,3.8202,3.8202,3.8202,3.8202,3.8202,3.8144,3.8072,3.781,3.7375,3.6896,3.6417,3.5996,3.5894,3.5642,3.4972,3.4915,3.5111,3.5053,3.4849,3.4786,3.4862,3.4329,3.4084,3.327,3.2374,3.2204,3.2193,3.1777,3.1242,3.1048,3.0994,3.1048,3.0909,3.0771,3.0809,3.0972,3.126,3.1474,3.1687,3.4775,3.4775,3.4775,3.4872,3.4969,3.5126,3.5233,3.5433,3.5641,3.5664,3.5563,3.5581,3.5633,3.5633,3.5633,3.5668,3.5872,3.592,3.592,3.5968,3.6015,3.6003,3.5908,3.5704,3.5716,3.5716,3.5764,3.5908,3.6133,3.6275,3.6417,3.6417,3.638,3.6254,3.5881,3.5868,3.5742,3.5504,3.5391,3.5391,3.529,3.5127,3.4843,3.4806,3.4705,3.4512,3.4299,3.3909,3.3596,3.3332,3.3232,3.3136,3.3124,3.3124,3.3124,3.3167,3.3197,3.3283,3.3852,3.4371,3.4869,3.5602,3.6096,3.6149,3.683,3.6986,3.7848,3.7924,3.8165,3.8202,3.8202,3.8202,3.8202,3.8202,3.8202,3.8202,3.8202,3.8202,3.8202,3.8202,3.8202,3.8188,3.813,3.8101,3.7665,3.7244,3.6794,3.6519,3.6475,3.6353,3.5683,3.5295,3.5425,3.5644,3.5633,3.5569,3.5557,3.4896,3.4023,3.3592,3.3057,3.2175,3.1639,3.1666,3.1547,3.1215,3.1203,3.1386,3.1336,3.1148,3.1248,3.1411,3.1725,3.2039,3.219,3.4872,3.4884,3.4872,3.4981,3.5223,3.5428,3.5422,3.5409,3.5968,3.6025,3.5737,3.5734,3.5692,3.5716,3.5716,3.5716,3.5812,3.6051,3.6098,3.6111,3.6111,3.6146,3.6133,3.5991,3.5991,3.6003,3.6063,3.6193,3.637,3.6417,3.6417,3.6417,3.6417,3.6405,3.6417,3.6405,3.6254,3.6191,3.6179,3.6292,3.5977,3.5491,3.5228,3.5027,3.4818,3.4839,3.4675,3.4387,3.406,3.3671,3.3382,3.3269,3.3224,3.3224,3.3124,3.3124,3.3124,3.3167,3.3326,3.3569,3.3641,3.3768,3.4147,3.4868,3.5709,3.6346,3.7169,3.7505,3.7787,3.811,3.811,3.8127,3.8127,3.8127,3.8127,3.8127,3.8127,3.8127,3.8127,3.8127,3.8127,3.8127,3.815,3.8136,3.7955,3.7498,3.7273,3.6997,3.6758,3.6587,3.6208,3.5838,3.5718,3.5966,3.5978,3.6216,3.6144,3.5302,3.4517,3.4156,3.3638,3.2539,3.1975,3.2164,3.1962,3.1622,3.1599,3.18,3.1687,3.1703,3.1888,3.2114,3.2215,3.2491,3.2616,3.5223,3.5428,3.5223,3.5175,3.5223,3.5284,3.5367,3.5533,3.5678,3.5856,3.6088,3.6185,3.6216,3.6228,3.6275,3.6228,3.6133,3.6263,3.631,3.6323,3.6263,3.631,3.6298,3.6131,3.6263,3.625,3.6238,3.6332,3.6204,3.6279,3.6392,3.6355,3.6367,3.6392,3.6417,3.6417,3.6417,3.6417,3.6417,3.6417,3.6417,3.6153,3.6179,3.5893,3.5617,3.5433,3.5194,3.4793,3.4361,3.3884,3.3458,3.3407,3.3332,3.3257,3.3162,3.3174,3.3174,3.3162,3.326,3.3641,3.3739,3.3894,3.4509,3.5142,3.5682,3.5816,3.6362,3.6457,3.6867,3.7621,3.7776,3.783,3.7848,3.7872,3.7872,3.7872,3.7872,3.7872,3.7872,3.7872,3.7872,3.791,3.8037,3.8023,3.8098,3.7823,3.7897,3.7665,3.7519,3.7129,3.6598,3.635,3.6049,3.5571,3.533,3.6376,3.6405,3.5642,3.4802,3.4079,3.3368,3.2605,3.2259,3.2466,3.2371,3.2093,3.2164,3.2307,3.2495,3.2546,3.2747,3.291,3.288,3.2842,3.2923]}]]